Missouri River (Missouri), Glasgow (06906500)

StateMissouriLatestUnknown (93500 cfs)
RiverMissouri RiverRatingObservedEstimated
Updated2020-08-11 19:30 (29 minutes ago)Flood - The river is flooding. Obstacles can be treacherous or deadly. The river should be avoided at this stage for casual trips and definitely for the inexperienced. Trips should be attempted only with protective gear and equipment.Flood(none)(none)
Discharge93500 cfs (median: 52800 cfs)High - The river is high and potentially dangerous, especially for the young and / or inexperienced. Normal stream obstacles are sometimes difficult to navigate. Extended distances can be attempted, but canoe travel may not be advisable.High(none)(none)
Height18.22 feetGood - Conditions are ideal for a canoe or kayak. Boats typically will drag on fewer than one-quarter of riffles, if at all, and portages are unnecessary or rare. Normal float lengths can be attempted without a problem.Good(none)(none)
TrendFalling (falling over 24 hours)Low - River is low but can still be floated. Some riffles are okay but most come with significant dragging and might need a portage. Float lengths should be reduced to accommodate low flow, dragging, and portages.Low(none)(none)
USGSExternal icon USGS Site (External icon Google Maps)Poor - River is too low to float comfortably. Most or all riffles will drag or must be portaged and some obstacles (such as slick shelf rock) cause undue problems. Avoid the river at this stage for casual paddling trips.Poor(none)(none)

Trending Data

Plot Image

Trips for Missouri River (Missouri), Glasgow (06906500)

DateStartEndDistanceConditionDischargeHeightFishingDetails

A total of 0 rows are displayed.

Condition Descriptions

Fishing Conditions

Fish Species

Notes

Classic Trip List

The classic River Trips application is still available for use. It is updated with the new system using a data retrofit. It is no longer maintained. The original River Trips application is no longer updated (as of 1 Dec 2016) but can be checked for errors or for the condition of the data before it was converted to the new system.

Gauge Data Table

ObservationHeightDischargeMaximum
Discharge
Minimum
Discharge
Mean
Discharge
P05P10P20P25P50
(Median)
P75P80P90P95
2020-08-11 19:30 18.22 93500 201000 (2011) 33600 (2002) 69200 33600 34300 38400 41700 52800 82400 102000 139000 201000
2020-08-11 18:30 18.24 93700 201000 (2011) 33600 (2002) 69200 33600 34300 38400 41700 52800 82400 102000 139000 201000
2020-08-11 17:30 18.27 93900 201000 (2011) 33600 (2002) 69200 33600 34300 38400 41700 52800 82400 102000 139000 201000
2020-08-11 16:30 18.33 94400 201000 (2011) 33600 (2002) 69200 33600 34300 38400 41700 52800 82400 102000 139000 201000
2020-08-11 15:30 18.40 95000 201000 (2011) 33600 (2002) 69200 33600 34300 38400 41700 52800 82400 102000 139000 201000
2020-08-11 14:30 18.45 95500 201000 (2011) 33600 (2002) 69200 33600 34300 38400 41700 52800 82400 102000 139000 201000
2020-08-11 13:30 18.49 95800 201000 (2011) 33600 (2002) 69200 33600 34300 38400 41700 52800 82400 102000 139000 201000
2020-08-11 12:30 18.52 96100 201000 (2011) 33600 (2002) 69200 33600 34300 38400 41700 52800 82400 102000 139000 201000
2020-08-11 11:30 18.57 96500 201000 (2011) 33600 (2002) 69200 33600 34300 38400 41700 52800 82400 102000 139000 201000
2020-08-11 10:30 18.59 96700 201000 (2011) 33600 (2002) 69200 33600 34300 38400 41700 52800 82400 102000 139000 201000
2020-08-11 09:30 18.67 97400 201000 (2011) 33600 (2002) 69200 33600 34300 38400 41700 52800 82400 102000 139000 201000
2020-08-11 08:30 18.70 97700 201000 (2011) 33600 (2002) 69200 33600 34300 38400 41700 52800 82400 102000 139000 201000
2020-08-11 07:30 18.74 98000 201000 (2011) 33600 (2002) 69200 33600 34300 38400 41700 52800 82400 102000 139000 201000
2020-08-11 06:30 18.77 98300 201000 (2011) 33600 (2002) 69200 33600 34300 38400 41700 52800 82400 102000 139000 201000
2020-08-11 05:30 18.80 98500 201000 (2011) 33600 (2002) 69200 33600 34300 38400 41700 52800 82400 102000 139000 201000
2020-08-11 04:30 18.87 99100 201000 (2011) 33600 (2002) 69200 33600 34300 38400 41700 52800 82400 102000 139000 201000
2020-08-11 03:30 18.94 99800 201000 (2011) 33600 (2002) 69200 33600 34300 38400 41700 52800 82400 102000 139000 201000
2020-08-11 02:30 19.04 101000 201000 (2011) 33600 (2002) 69200 33600 34300 38400 41700 52800 82400 102000 139000 201000
2020-08-11 01:30 19.04 101000 201000 (2011) 33600 (2002) 69200 33600 34300 38400 41700 52800 82400 102000 139000 201000
2020-08-11 00:30 19.16 102000 201000 (2011) 33600 (2002) 69200 33600 34300 38400 41700 52800 82400 102000 139000 201000
2020-08-10 23:30 19.19 102000 204000 (2011) 31500 (2002) 67700 31500 34300 36200 41600 52700 83300 89200 142000 204000
2020-08-10 22:30 19.26 103000 204000 (2011) 31500 (2002) 67700 31500 34300 36200 41600 52700 83300 89200 142000 204000
2020-08-10 21:30 19.24 102000 204000 (2011) 31500 (2002) 67700 31500 34300 36200 41600 52700 83300 89200 142000 204000
2020-08-10 20:30 19.34 103000 204000 (2011) 31500 (2002) 67700 31500 34300 36200 41600 52700 83300 89200 142000 204000
2020-08-10 19:30 19.40 104000 204000 (2011) 31500 (2002) 67700 31500 34300 36200 41600 52700 83300 89200 142000 204000
2020-08-10 18:30 19.34 103000 204000 (2011) 31500 (2002) 67700 31500 34300 36200 41600 52700 83300 89200 142000 204000
2020-08-10 17:30 19.36 104000 204000 (2011) 31500 (2002) 67700 31500 34300 36200 41600 52700 83300 89200 142000 204000
2020-08-10 16:30 19.41 104000 204000 (2011) 31500 (2002) 67700 31500 34300 36200 41600 52700 83300 89200 142000 204000
2020-08-10 15:30 19.39 104000 204000 (2011) 31500 (2002) 67700 31500 34300 36200 41600 52700 83300 89200 142000 204000
2020-08-10 14:30 19.39 104000 204000 (2011) 31500 (2002) 67700 31500 34300 36200 41600 52700 83300 89200 142000 204000
2020-08-10 13:30 19.37 104000 204000 (2011) 31500 (2002) 67700 31500 34300 36200 41600 52700 83300 89200 142000 204000
2020-08-10 12:30 19.28 103000 204000 (2011) 31500 (2002) 67700 31500 34300 36200 41600 52700 83300 89200 142000 204000
2020-08-10 11:30 19.28 103000 204000 (2011) 31500 (2002) 67700 31500 34300 36200 41600 52700 83300 89200 142000 204000
2020-08-10 10:30 19.27 103000 204000 (2011) 31500 (2002) 67700 31500 34300 36200 41600 52700 83300 89200 142000 204000
2020-08-10 09:30 19.26 103000 204000 (2011) 31500 (2002) 67700 31500 34300 36200 41600 52700 83300 89200 142000 204000
2020-08-10 08:30 19.27 103000 204000 (2011) 31500 (2002) 67700 31500 34300 36200 41600 52700 83300 89200 142000 204000
2020-08-10 07:30 19.22 102000 204000 (2011) 31500 (2002) 67700 31500 34300 36200 41600 52700 83300 89200 142000 204000
2020-08-10 06:30 19.17 102000 204000 (2011) 31500 (2002) 67700 31500 34300 36200 41600 52700 83300 89200 142000 204000
2020-08-10 05:30 19.14 102000 204000 (2011) 31500 (2002) 67700 31500 34300 36200 41600 52700 83300 89200 142000 204000
2020-08-10 04:30 19.11 101000 204000 (2011) 31500 (2002) 67700 31500 34300 36200 41600 52700 83300 89200 142000 204000
2020-08-10 03:30 19.07 101000 204000 (2011) 31500 (2002) 67700 31500 34300 36200 41600 52700 83300 89200 142000 204000
2020-08-10 02:30 19.02 100000 204000 (2011) 31500 (2002) 67700 31500 34300 36200 41600 52700 83300 89200 142000 204000
2020-08-10 01:30 18.92 99600 204000 (2011) 31500 (2002) 67700 31500 34300 36200 41600 52700 83300 89200 142000 204000
2020-08-10 00:30 18.88 99200 204000 (2011) 31500 (2002) 67700 31500 34300 36200 41600 52700 83300 89200 142000 204000
2020-08-09 23:30 18.84 98900 206000 (2011) 30900 (2002) 68900 30900 34500 35700 40800 56500 76000 84300 143000 206000
2020-08-09 22:30 18.73 97900 206000 (2011) 30900 (2002) 68900 30900 34500 35700 40800 56500 76000 84300 143000 206000
2020-08-09 21:30 18.66 97300 206000 (2011) 30900 (2002) 68900 30900 34500 35700 40800 56500 76000 84300 143000 206000
2020-08-09 20:30 18.54 96300 206000 (2011) 30900 (2002) 68900 30900 34500 35700 40800 56500 76000 84300 143000 206000
2020-08-09 19:30 18.40 95000 206000 (2011) 30900 (2002) 68900 30900 34500 35700 40800 56500 76000 84300 143000 206000
2020-08-09 18:30 18.32 94400 206000 (2011) 30900 (2002) 68900 30900 34500 35700 40800 56500 76000 84300 143000 206000
2020-08-09 17:30 18.21 93400 206000 (2011) 30900 (2002) 68900 30900 34500 35700 40800 56500 76000 84300 143000 206000
2020-08-09 16:30 18.10 92500 206000 (2011) 30900 (2002) 68900 30900 34500 35700 40800 56500 76000 84300 143000 206000
2020-08-09 15:30 18.02 91800 206000 (2011) 30900 (2002) 68900 30900 34500 35700 40800 56500 76000 84300 143000 206000
2020-08-09 14:30 17.97 91400 206000 (2011) 30900 (2002) 68900 30900 34500 35700 40800 56500 76000 84300 143000 206000
2020-08-09 13:30 17.86 90500 206000 (2011) 30900 (2002) 68900 30900 34500 35700 40800 56500 76000 84300 143000 206000
2020-08-09 12:30 17.82 90100 206000 (2011) 30900 (2002) 68900 30900 34500 35700 40800 56500 76000 84300 143000 206000
2020-08-09 11:30 17.79 89900 206000 (2011) 30900 (2002) 68900 30900 34500 35700 40800 56500 76000 84300 143000 206000
2020-08-09 10:30 17.71 89200 206000 (2011) 30900 (2002) 68900 30900 34500 35700 40800 56500 76000 84300 143000 206000
2020-08-09 09:30 17.65 88600 206000 (2011) 30900 (2002) 68900 30900 34500 35700 40800 56500 76000 84300 143000 206000
2020-08-09 08:30 17.62 88400 206000 (2011) 30900 (2002) 68900 30900 34500 35700 40800 56500 76000 84300 143000 206000
2020-08-09 07:30 17.62 88400 206000 (2011) 30900 (2002) 68900 30900 34500 35700 40800 56500 76000 84300 143000 206000
2020-08-09 06:30 17.57 87900 206000 (2011) 30900 (2002) 68900 30900 34500 35700 40800 56500 76000 84300 143000 206000
2020-08-09 05:30 17.55 87800 206000 (2011) 30900 (2002) 68900 30900 34500 35700 40800 56500 76000 84300 143000 206000
2020-08-09 04:30 17.53 87600 206000 (2011) 30900 (2002) 68900 30900 34500 35700 40800 56500 76000 84300 143000 206000
2020-08-09 03:30 17.51 87400 206000 (2011) 30900 (2002) 68900 30900 34500 35700 40800 56500 76000 84300 143000 206000
2020-08-09 02:30 17.48 87100 206000 (2011) 30900 (2002) 68900 30900 34500 35700 40800 56500 76000 84300 143000 206000
2020-08-09 01:30 17.49 87200 206000 (2011) 30900 (2002) 68900 30900 34500 35700 40800 56500 76000 84300 143000 206000
2020-08-09 00:30 17.49 87200 206000 (2011) 30900 (2002) 68900 30900 34500 35700 40800 56500 76000 84300 143000 206000
2020-08-08 23:30 17.46 87000 209000 (2011) 30700 (2002) 71200 30700 34900 35300 40900 60100 84300 86400 140000 209000
2020-08-08 22:30 17.47 87100 209000 (2011) 30700 (2002) 71200 30700 34900 35300 40900 60100 84300 86400 140000 209000
2020-08-08 21:30 17.41 86500 209000 (2011) 30700 (2002) 71200 30700 34900 35300 40900 60100 84300 86400 140000 209000
2020-08-08 20:30 17.44 86800 209000 (2011) 30700 (2002) 71200 30700 34900 35300 40900 60100 84300 86400 140000 209000
2020-08-08 19:30 17.45 86900 209000 (2011) 30700 (2002) 71200 30700 34900 35300 40900 60100 84300 86400 140000 209000
2020-08-08 18:30 17.45 86900 209000 (2011) 30700 (2002) 71200 30700 34900 35300 40900 60100 84300 86400 140000 209000
2020-08-08 17:30 17.42 86600 209000 (2011) 30700 (2002) 71200 30700 34900 35300 40900 60100 84300 86400 140000 209000
2020-08-08 16:30 17.38 86300 209000 (2011) 30700 (2002) 71200 30700 34900 35300 40900 60100 84300 86400 140000 209000
2020-08-08 15:30 17.40 86400 209000 (2011) 30700 (2002) 71200 30700 34900 35300 40900 60100 84300 86400 140000 209000
2020-08-08 14:30 17.36 86100 209000 (2011) 30700 (2002) 71200 30700 34900 35300 40900 60100 84300 86400 140000 209000
2020-08-08 13:30 17.36 86100 209000 (2011) 30700 (2002) 71200 30700 34900 35300 40900 60100 84300 86400 140000 209000
2020-08-08 12:30 17.31 85700 209000 (2011) 30700 (2002) 71200 30700 34900 35300 40900 60100 84300 86400 140000 209000
2020-08-08 11:30 17.28 85400 209000 (2011) 30700 (2002) 71200 30700 34900 35300 40900 60100 84300 86400 140000 209000
2020-08-08 10:30 17.22 84900 209000 (2011) 30700 (2002) 71200 30700 34900 35300 40900 60100 84300 86400 140000 209000
2020-08-08 09:30 17.22 84900 209000 (2011) 30700 (2002) 71200 30700 34900 35300 40900 60100 84300 86400 140000 209000
2020-08-08 08:30 17.17 84500 209000 (2011) 30700 (2002) 71200 30700 34900 35300 40900 60100 84300 86400 140000 209000
2020-08-08 07:30 17.12 84000 209000 (2011) 30700 (2002) 71200 30700 34900 35300 40900 60100 84300 86400 140000 209000
2020-08-08 06:30 17.04 83400 209000 (2011) 30700 (2002) 71200 30700 34900 35300 40900 60100 84300 86400 140000 209000
2020-08-08 05:30 17.08 83700 209000 (2011) 30700 (2002) 71200 30700 34900 35300 40900 60100 84300 86400 140000 209000
2020-08-08 04:30 17.06 83500 209000 (2011) 30700 (2002) 71200 30700 34900 35300 40900 60100 84300 86400 140000 209000
2020-08-08 03:30 17.04 83400 209000 (2011) 30700 (2002) 71200 30700 34900 35300 40900 60100 84300 86400 140000 209000
2020-08-08 02:30 17.09 83800 209000 (2011) 30700 (2002) 71200 30700 34900 35300 40900 60100 84300 86400 140000 209000
2020-08-08 01:30 17.04 83400 209000 (2011) 30700 (2002) 71200 30700 34900 35300 40900 60100 84300 86400 140000 209000
2020-08-08 00:30 17.07 83600 209000 (2011) 30700 (2002) 71200 30700 34900 35300 40900 60100 84300 86400 140000 209000
2020-08-07 23:30 17.10 83900 210000 (2011) 30700 (2002) 72400 30700 34700 35400 40200 58500 84600 96200 134000 210000
2020-08-07 22:30 17.10 83900 210000 (2011) 30700 (2002) 72400 30700 34700 35400 40200 58500 84600 96200 134000 210000
2020-08-07 21:30 17.10 83900 210000 (2011) 30700 (2002) 72400 30700 34700 35400 40200 58500 84600 96200 134000 210000
2020-08-07 20:30 17.07 83600 210000 (2011) 30700 (2002) 72400 30700 34700 35400 40200 58500 84600 96200 134000 210000
2020-08-07 19:30 17.05 83500 210000 (2011) 30700 (2002) 72400 30700 34700 35400 40200 58500 84600 96200 134000 210000
2020-08-07 18:30 17.06 83500 210000 (2011) 30700 (2002) 72400 30700 34700 35400 40200 58500 84600 96200 134000 210000
2020-08-07 17:30 17.05 83500 210000 (2011) 30700 (2002) 72400 30700 34700 35400 40200 58500 84600 96200 134000 210000
2020-08-07 16:30 17.04 83400 210000 (2011) 30700 (2002) 72400 30700 34700 35400 40200 58500 84600 96200 134000 210000
2020-08-07 15:30 17.04 83400 210000 (2011) 30700 (2002) 72400 30700 34700 35400 40200 58500 84600 96200 134000 210000
2020-08-07 14:30 17.06 83500 210000 (2011) 30700 (2002) 72400 30700 34700 35400 40200 58500 84600 96200 134000 210000
2020-08-07 13:30 17.04 83400 210000 (2011) 30700 (2002) 72400 30700 34700 35400 40200 58500 84600 96200 134000 210000
2020-08-07 12:30 17.07 83600 210000 (2011) 30700 (2002) 72400 30700 34700 35400 40200 58500 84600 96200 134000 210000
2020-08-07 11:30 17.06 83500 210000 (2011) 30700 (2002) 72400 30700 34700 35400 40200 58500 84600 96200 134000 210000
2020-08-07 10:30 17.04 83400 210000 (2011) 30700 (2002) 72400 30700 34700 35400 40200 58500 84600 96200 134000 210000
2020-08-07 09:30 17.04 83400 210000 (2011) 30700 (2002) 72400 30700 34700 35400 40200 58500 84600 96200 134000 210000
2020-08-07 08:30 17.05 83500 210000 (2011) 30700 (2002) 72400 30700 34700 35400 40200 58500 84600 96200 134000 210000
2020-08-07 07:30 17.06 83500 210000 (2011) 30700 (2002) 72400 30700 34700 35400 40200 58500 84600 96200 134000 210000
2020-08-07 06:30 17.08 83700 210000 (2011) 30700 (2002) 72400 30700 34700 35400 40200 58500 84600 96200 134000 210000
2020-08-07 05:30 17.06 83500 210000 (2011) 30700 (2002) 72400 30700 34700 35400 40200 58500 84600 96200 134000 210000
2020-08-07 04:30 17.01 83100 210000 (2011) 30700 (2002) 72400 30700 34700 35400 40200 58500 84600 96200 134000 210000
2020-08-07 03:30 17.01 83100 210000 (2011) 30700 (2002) 72400 30700 34700 35400 40200 58500 84600 96200 134000 210000
2020-08-07 02:30 17.03 83300 210000 (2011) 30700 (2002) 72400 30700 34700 35400 40200 58500 84600 96200 134000 210000
2020-08-07 01:30 17.01 83100 210000 (2011) 30700 (2002) 72400 30700 34700 35400 40200 58500 84600 96200 134000 210000
2020-08-07 00:30 16.99 83000 210000 (2011) 30700 (2002) 72400 30700 34700 35400 40200 58500 84600 96200 134000 210000
2020-08-06 23:30 16.97 82800 212000 (2011) 31000 (2002) 71300 31000 34500 35700 40700 54600 83700 105000 134000 212000
2020-08-06 22:30 16.95 82600 212000 (2011) 31000 (2002) 71300 31000 34500 35700 40700 54600 83700 105000 134000 212000
2020-08-06 21:30 16.93 82500 212000 (2011) 31000 (2002) 71300 31000 34500 35700 40700 54600 83700 105000 134000 212000
2020-08-06 20:30 16.88 82000 212000 (2011) 31000 (2002) 71300 31000 34500 35700 40700 54600 83700 105000 134000 212000
2020-08-06 19:30 16.86 81900 212000 (2011) 31000 (2002) 71300 31000 34500 35700 40700 54600 83700 105000 134000 212000
2020-08-06 18:30 16.83 81600 212000 (2011) 31000 (2002) 71300 31000 34500 35700 40700 54600 83700 105000 134000 212000
2020-08-06 17:30 16.83 81600 212000 (2011) 31000 (2002) 71300 31000 34500 35700 40700 54600 83700 105000 134000 212000
2020-08-06 16:30 16.81 81500 212000 (2011) 31000 (2002) 71300 31000 34500 35700 40700 54600 83700 105000 134000 212000
2020-08-06 15:30 16.81 81500 212000 (2011) 31000 (2002) 71300 31000 34500 35700 40700 54600 83700 105000 134000 212000
2020-08-06 14:30 16.78 81200 212000 (2011) 31000 (2002) 71300 31000 34500 35700 40700 54600 83700 105000 134000 212000
2020-08-06 13:30 16.79 81300 212000 (2011) 31000 (2002) 71300 31000 34500 35700 40700 54600 83700 105000 134000 212000
2020-08-06 12:30 16.76 81000 212000 (2011) 31000 (2002) 71300 31000 34500 35700 40700 54600 83700 105000 134000 212000
2020-08-06 11:30 16.73 80800 212000 (2011) 31000 (2002) 71300 31000 34500 35700 40700 54600 83700 105000 134000 212000
2020-08-06 10:30 16.73 80800 212000 (2011) 31000 (2002) 71300 31000 34500 35700 40700 54600 83700 105000 134000 212000
2020-08-06 09:30 16.75 81000 212000 (2011) 31000 (2002) 71300 31000 34500 35700 40700 54600 83700 105000 134000 212000
2020-08-06 08:30 16.75 81000 212000 (2011) 31000 (2002) 71300 31000 34500 35700 40700 54600 83700 105000 134000 212000
2020-08-06 07:30 16.74 80900 212000 (2011) 31000 (2002) 71300 31000 34500 35700 40700 54600 83700 105000 134000 212000
2020-08-06 06:30 16.77 81100 212000 (2011) 31000 (2002) 71300 31000 34500 35700 40700 54600 83700 105000 134000 212000
2020-08-06 05:30 16.80 81400 212000 (2011) 31000 (2002) 71300 31000 34500 35700 40700 54600 83700 105000 134000 212000
2020-08-06 04:30 16.80 81400 212000 (2011) 31000 (2002) 71300 31000 34500 35700 40700 54600 83700 105000 134000 212000
2020-08-06 03:30 16.77 81100 212000 (2011) 31000 (2002) 71300 31000 34500 35700 40700 54600 83700 105000 134000 212000
2020-08-06 02:30 16.84 81700 212000 (2011) 31000 (2002) 71300 31000 34500 35700 40700 54600 83700 105000 134000 212000
2020-08-06 01:30 16.86 81900 212000 (2011) 31000 (2002) 71300 31000 34500 35700 40700 54600 83700 105000 134000 212000
2020-08-06 00:30 16.90 82200 212000 (2011) 31000 (2002) 71300 31000 34500 35700 40700 54600 83700 105000 134000 212000
2020-08-05 23:30 16.91 82300 213000 (2011) 31100 (2002) 71100 31100 34100 35600 40900 52200 84300 106000 136000 213000
2020-08-05 22:30 16.91 82300 213000 (2011) 31100 (2002) 71100 31100 34100 35600 40900 52200 84300 106000 136000 213000
2020-08-05 21:30 16.96 82700 213000 (2011) 31100 (2002) 71100 31100 34100 35600 40900 52200 84300 106000 136000 213000
2020-08-05 20:30 16.98 82900 213000 (2011) 31100 (2002) 71100 31100 34100 35600 40900 52200 84300 106000 136000 213000
2020-08-05 19:30 17.00 83000 213000 (2011) 31100 (2002) 71100 31100 34100 35600 40900 52200 84300 106000 136000 213000
2020-08-05 18:30 16.99 83000 213000 (2011) 31100 (2002) 71100 31100 34100 35600 40900 52200 84300 106000 136000 213000
2020-08-05 17:30 17.01 83100 213000 (2011) 31100 (2002) 71100 31100 34100 35600 40900 52200 84300 106000 136000 213000
2020-08-05 16:30 17.05 83500 213000 (2011) 31100 (2002) 71100 31100 34100 35600 40900 52200 84300 106000 136000 213000
2020-08-05 15:30 17.11 84000 213000 (2011) 31100 (2002) 71100 31100 34100 35600 40900 52200 84300 106000 136000 213000
2020-08-05 14:30 17.14 84200 213000 (2011) 31100 (2002) 71100 31100 34100 35600 40900 52200 84300 106000 136000 213000
2020-08-05 13:30 17.21 84800 213000 (2011) 31100 (2002) 71100 31100 34100 35600 40900 52200 84300 106000 136000 213000
2020-08-05 12:30 17.23 85000 213000 (2011) 31100 (2002) 71100 31100 34100 35600 40900 52200 84300 106000 136000 213000
2020-08-05 11:30 17.24 85100 213000 (2011) 31100 (2002) 71100 31100 34100 35600 40900 52200 84300 106000 136000 213000
2020-08-05 10:30 17.29 85500 213000 (2011) 31100 (2002) 71100 31100 34100 35600 40900 52200 84300 106000 136000 213000
2020-08-05 09:30 17.34 85900 213000 (2011) 31100 (2002) 71100 31100 34100 35600 40900 52200 84300 106000 136000 213000
2020-08-05 08:30 17.37 86200 213000 (2011) 31100 (2002) 71100 31100 34100 35600 40900 52200 84300 106000 136000 213000
2020-08-05 07:30 17.46 87000 213000 (2011) 31100 (2002) 71100 31100 34100 35600 40900 52200 84300 106000 136000 213000
2020-08-05 06:30 17.51 87400 213000 (2011) 31100 (2002) 71100 31100 34100 35600 40900 52200 84300 106000 136000 213000
2020-08-05 05:30 17.57 87900 213000 (2011) 31100 (2002) 71100 31100 34100 35600 40900 52200 84300 106000 136000 213000
2020-08-05 04:30 17.58 88000 213000 (2011) 31100 (2002) 71100 31100 34100 35600 40900 52200 84300 106000 136000 213000
2020-08-05 03:30 17.62 88400 213000 (2011) 31100 (2002) 71100 31100 34100 35600 40900 52200 84300 106000 136000 213000
2020-08-05 02:30 17.67 88800 213000 (2011) 31100 (2002) 71100 31100 34100 35600 40900 52200 84300 106000 136000 213000
2020-08-05 01:30 17.72 89300 213000 (2011) 31100 (2002) 71100 31100 34100 35600 40900 52200 84300 106000 136000 213000
2020-08-05 00:30 17.78 89800 213000 (2011) 31100 (2002) 71100 31100 34100 35600 40900 52200 84300 106000 136000 213000
2020-08-04 23:30 17.83 90200 215000 (2011) 31700 (2002) 72900 31700 33400 35700 39600 52900 91400 112000 144000 215000
2020-08-04 22:30 17.85 90400 215000 (2011) 31700 (2002) 72900 31700 33400 35700 39600 52900 91400 112000 144000 215000
2020-08-04 21:30 17.92 91000 215000 (2011) 31700 (2002) 72900 31700 33400 35700 39600 52900 91400 112000 144000 215000
2020-08-04 20:30 17.93 91100 215000 (2011) 31700 (2002) 72900 31700 33400 35700 39600 52900 91400 112000 144000 215000
2020-08-04 19:30 17.98 91500 215000 (2011) 31700 (2002) 72900 31700 33400 35700 39600 52900 91400 112000 144000 215000
2020-08-04 18:30 18.06 92200 215000 (2011) 31700 (2002) 72900 31700 33400 35700 39600 52900 91400 112000 144000 215000
2020-08-04 17:30 18.11 92600 215000 (2011) 31700 (2002) 72900 31700 33400 35700 39600 52900 91400 112000 144000 215000
2020-08-04 16:30 18.12 92700 215000 (2011) 31700 (2002) 72900 31700 33400 35700 39600 52900 91400 112000 144000 215000
2020-08-04 15:30 18.20 93300 215000 (2011) 31700 (2002) 72900 31700 33400 35700 39600 52900 91400 112000 144000 215000
2020-08-04 14:30 18.27 93900 215000 (2011) 31700 (2002) 72900 31700 33400 35700 39600 52900 91400 112000 144000 215000
2020-08-04 13:30 18.31 94300 215000 (2011) 31700 (2002) 72900 31700 33400 35700 39600 52900 91400 112000 144000 215000
2020-08-04 12:30 18.37 94800 215000 (2011) 31700 (2002) 72900 31700 33400 35700 39600 52900 91400 112000 144000 215000
2020-08-04 11:30 18.44 95400 215000 (2011) 31700 (2002) 72900 31700 33400 35700 39600 52900 91400 112000 144000 215000
2020-08-04 10:30 18.53 96200 215000 (2011) 31700 (2002) 72900 31700 33400 35700 39600 52900 91400 112000 144000 215000
2020-08-04 09:30 18.57 96500 215000 (2011) 31700 (2002) 72900 31700 33400 35700 39600 52900 91400 112000 144000 215000
2020-08-04 08:30 18.64 97100 215000 (2011) 31700 (2002) 72900 31700 33400 35700 39600 52900 91400 112000 144000 215000
2020-08-04 07:30 18.70 97700 215000 (2011) 31700 (2002) 72900 31700 33400 35700 39600 52900 91400 112000 144000 215000
2020-08-04 06:30 18.75 98100 215000 (2011) 31700 (2002) 72900 31700 33400 35700 39600 52900 91400 112000 144000 215000
2020-08-04 05:30 18.81 98600 215000 (2011) 31700 (2002) 72900 31700 33400 35700 39600 52900 91400 112000 144000 215000
2020-08-04 04:30 18.88 99200 215000 (2011) 31700 (2002) 72900 31700 33400 35700 39600 52900 91400 112000 144000 215000
2020-08-04 03:30 18.97 100000 215000 (2011) 31700 (2002) 72900 31700 33400 35700 39600 52900 91400 112000 144000 215000
2020-08-04 02:30 19.03 101000 215000 (2011) 31700 (2002) 72900 31700 33400 35700 39600 52900 91400 112000 144000 215000
2020-08-04 01:30 19.08 101000 215000 (2011) 31700 (2002) 72900 31700 33400 35700 39600 52900 91400 112000 144000 215000
2020-08-04 00:30 19.15 102000 215000 (2011) 31700 (2002) 72900 31700 33400 35700 39600 52900 91400 112000 144000 215000
2020-08-03 23:30 19.21 102000 218000 (2011) 32400 (2002) 76800 32400 33300 36600 39400 52200 121000 132000 152000 218000
2020-08-03 22:30 19.28 103000 218000 (2011) 32400 (2002) 76800 32400 33300 36600 39400 52200 121000 132000 152000 218000
2020-08-03 21:30 19.37 104000 218000 (2011) 32400 (2002) 76800 32400 33300 36600 39400 52200 121000 132000 152000 218000
2020-08-03 20:30 19.44 104000 218000 (2011) 32400 (2002) 76800 32400 33300 36600 39400 52200 121000 132000 152000 218000
2020-08-03 19:30 19.52 105000 218000 (2011) 32400 (2002) 76800 32400 33300 36600 39400 52200 121000 132000 152000 218000
2020-08-03 18:30 19.54 105000 218000 (2011) 32400 (2002) 76800 32400 33300 36600 39400 52200 121000 132000 152000 218000
2020-08-03 17:30 19.63 106000 218000 (2011) 32400 (2002) 76800 32400 33300 36600 39400 52200 121000 132000 152000 218000
2020-08-03 16:30 19.72 107000 218000 (2011) 32400 (2002) 76800 32400 33300 36600 39400 52200 121000 132000 152000 218000
2020-08-03 15:30 19.81 108000 218000 (2011) 32400 (2002) 76800 32400 33300 36600 39400 52200 121000 132000 152000 218000
2020-08-03 14:30 19.86 108000 218000 (2011) 32400 (2002) 76800 32400 33300 36600 39400 52200 121000 132000 152000 218000
2020-08-03 13:30 19.93 109000 218000 (2011) 32400 (2002) 76800 32400 33300 36600 39400 52200 121000 132000 152000 218000
2020-08-03 12:30 20.02 110000 218000 (2011) 32400 (2002) 76800 32400 33300 36600 39400 52200 121000 132000 152000 218000
2020-08-03 11:30 20.12 111000 218000 (2011) 32400 (2002) 76800 32400 33300 36600 39400 52200 121000 132000 152000 218000
2020-08-03 10:30 20.21 112000 218000 (2011) 32400 (2002) 76800 32400 33300 36600 39400 52200 121000 132000 152000 218000
2020-08-03 09:30 20.28 112000 218000 (2011) 32400 (2002) 76800 32400 33300 36600 39400 52200 121000 132000 152000 218000
2020-08-03 08:30 20.33 113000 218000 (2011) 32400 (2002) 76800 32400 33300 36600 39400 52200 121000 132000 152000 218000
2020-08-03 07:30 20.44 114000 218000 (2011) 32400 (2002) 76800 32400 33300 36600 39400 52200 121000 132000 152000 218000
2020-08-03 06:30 20.56 115000 218000 (2011) 32400 (2002) 76800 32400 33300 36600 39400 52200 121000 132000 152000 218000
2020-08-03 05:30 20.67 116000 218000 (2011) 32400 (2002) 76800 32400 33300 36600 39400 52200 121000 132000 152000 218000
2020-08-03 04:30 20.80 117000 218000 (2011) 32400 (2002) 76800 32400 33300 36600 39400 52200 121000 132000 152000 218000
2020-08-03 03:30 20.90 118000 218000 (2011) 32400 (2002) 76800 32400 33300 36600 39400 52200 121000 132000 152000 218000
2020-08-03 02:30 21.02 120000 218000 (2011) 32400 (2002) 76800 32400 33300 36600 39400 52200 121000 132000 152000 218000
2020-08-03 01:30 21.19 121000 218000 (2011) 32400 (2002) 76800 32400 33300 36600 39400 52200 121000 132000 152000 218000
2020-08-03 00:30 21.32 123000 218000 (2011) 32400 (2002) 76800 32400 33300 36600 39400 52200 121000 132000 152000 218000
2020-08-02 23:30 21.46 124000 221000 (2011) 33500 (2002) 80100 33500 33700 37600 38800 54300 143000 147000 154000 221000
2020-08-02 22:30 21.61 126000 221000 (2011) 33500 (2002) 80100 33500 33700 37600 38800 54300 143000 147000 154000 221000
2020-08-02 21:30 21.76 128000 221000 (2011) 33500 (2002) 80100 33500 33700 37600 38800 54300 143000 147000 154000 221000
2020-08-02 20:30 21.85 128000 221000 (2011) 33500 (2002) 80100 33500 33700 37600 38800 54300 143000 147000 154000 221000
2020-08-02 19:30 21.96 130000 221000 (2011) 33500 (2002) 80100 33500 33700 37600 38800 54300 143000 147000 154000 221000
2020-08-02 18:30 22.12 131000 221000 (2011) 33500 (2002) 80100 33500 33700 37600 38800 54300 143000 147000 154000 221000
2020-08-02 17:30 22.25 133000 221000 (2011) 33500 (2002) 80100 33500 33700 37600 38800 54300 143000 147000 154000 221000
2020-08-02 16:30 22.40 135000 221000 (2011) 33500 (2002) 80100 33500 33700 37600 38800 54300 143000 147000 154000 221000
2020-08-02 15:30 22.54 136000 221000 (2011) 33500 (2002) 80100 33500 33700 37600 38800 54300 143000 147000 154000 221000
2020-08-02 14:30 22.70 138000 221000 (2011) 33500 (2002) 80100 33500 33700 37600 38800 54300 143000 147000 154000 221000
2020-08-02 13:30 22.87 140000 221000 (2011) 33500 (2002) 80100 33500 33700 37600 38800 54300 143000 147000 154000 221000
2020-08-02 12:30 23.02 142000 221000 (2011) 33500 (2002) 80100 33500 33700 37600 38800 54300 143000 147000 154000 221000
2020-08-02 11:30 23.20 144000 221000 (2011) 33500 (2002) 80100 33500 33700 37600 38800 54300 143000 147000 154000 221000
2020-08-02 10:30 23.40 146000 221000 (2011) 33500 (2002) 80100 33500 33700 37600 38800 54300 143000 147000 154000 221000
2020-08-02 09:30 23.56 148000 221000 (2011) 33500 (2002) 80100 33500 33700 37600 38800 54300 143000 147000 154000 221000
2020-08-02 08:30 23.69 150000 221000 (2011) 33500 (2002) 80100 33500 33700 37600 38800 54300 143000 147000 154000 221000
2020-08-02 07:30 23.84 152000 221000 (2011) 33500 (2002) 80100 33500 33700 37600 38800 54300 143000 147000 154000 221000
2020-08-02 06:30 24.02 154000 221000 (2011) 33500 (2002) 80100 33500 33700 37600 38800 54300 143000 147000 154000 221000
2020-08-02 05:30 24.16 156000 221000 (2011) 33500 (2002) 80100 33500 33700 37600 38800 54300 143000 147000 154000 221000
2020-08-02 04:30 24.36 158000 221000 (2011) 33500 (2002) 80100 33500 33700 37600 38800 54300 143000 147000 154000 221000
2020-08-02 03:30 24.54 160000 221000 (2011) 33500 (2002) 80100 33500 33700 37600 38800 54300 143000 147000 154000 221000
2020-08-02 02:30 24.73 163000 221000 (2011) 33500 (2002) 80100 33500 33700 37600 38800 54300 143000 147000 154000 221000
2020-08-02 01:30 24.87 165000 221000 (2011) 33500 (2002) 80100 33500 33700 37600 38800 54300 143000 147000 154000 221000
2020-08-02 00:30 25.02 167000 221000 (2011) 33500 (2002) 80100 33500 33700 37600 38800 54300 143000 147000 154000 221000
2020-08-01 23:30 25.20 169000 222000 (2011) 33100 (2006) 83600 33100 35500 39200 40100 56100 153000 156000 198000 222000
2020-08-01 22:30 25.31 171000 222000 (2011) 33100 (2006) 83600 33100 35500 39200 40100 56100 153000 156000 198000 222000
2020-08-01 21:30 25.46 173000 222000 (2011) 33100 (2006) 83600 33100 35500 39200 40100 56100 153000 156000 198000 222000
2020-08-01 20:30 25.62 175000 222000 (2011) 33100 (2006) 83600 33100 35500 39200 40100 56100 153000 156000 198000 222000
2020-08-01 19:30 25.74 177000 222000 (2011) 33100 (2006) 83600 33100 35500 39200 40100 56100 153000 156000 198000 222000
2020-08-01 18:30 25.85 178000 222000 (2011) 33100 (2006) 83600 33100 35500 39200 40100 56100 153000 156000 198000 222000
2020-08-01 17:30 25.83 178000 222000 (2011) 33100 (2006) 83600 33100 35500 39200 40100 56100 153000 156000 198000 222000
2020-08-01 16:30 25.85 178000 222000 (2011) 33100 (2006) 83600 33100 35500 39200 40100 56100 153000 156000 198000 222000
2020-08-01 15:30 25.91 179000 222000 (2011) 33100 (2006) 83600 33100 35500 39200 40100 56100 153000 156000 198000 222000
2020-08-01 14:30 25.86 178000 222000 (2011) 33100 (2006) 83600 33100 35500 39200 40100 56100 153000 156000 198000 222000
2020-08-01 13:30 25.86 178000 222000 (2011) 33100 (2006) 83600 33100 35500 39200 40100 56100 153000 156000 198000 222000
2020-08-01 12:30 25.88 178000 222000 (2011) 33100 (2006) 83600 33100 35500 39200 40100 56100 153000 156000 198000 222000
2020-08-01 11:30 25.91 179000 222000 (2011) 33100 (2006) 83600 33100 35500 39200 40100 56100 153000 156000 198000 222000
2020-08-01 10:30 25.81 177000 222000 (2011) 33100 (2006) 83600 33100 35500 39200 40100 56100 153000 156000 198000 222000
2020-08-01 09:30 25.78 177000 222000 (2011) 33100 (2006) 83600 33100 35500 39200 40100 56100 153000 156000 198000 222000
2020-08-01 08:30 25.71 176000 222000 (2011) 33100 (2006) 83600 33100 35500 39200 40100 56100 153000 156000 198000 222000
2020-08-01 07:30 25.65 175000 222000 (2011) 33100 (2006) 83600 33100 35500 39200 40100 56100 153000 156000 198000 222000
2020-08-01 06:30 25.53 174000 222000 (2011) 33100 (2006) 83600 33100 35500 39200 40100 56100 153000 156000 198000 222000
2020-08-01 05:30 25.46 173000 222000 (2011) 33100 (2006) 83600 33100 35500 39200 40100 56100 153000 156000 198000 222000
2020-08-01 04:30 25.24 170000 222000 (2011) 33100 (2006) 83600 33100 35500 39200 40100 56100 153000 156000 198000 222000
2020-08-01 03:30 25.02 167000 222000 (2011) 33100 (2006) 83600 33100 35500 39200 40100 56100 153000 156000 198000 222000
2020-08-01 02:30 24.83 164000 222000 (2011) 33100 (2006) 83600 33100 35500 39200 40100 56100 153000 156000 198000 222000
2020-08-01 01:30 24.61 161000 222000 (2011) 33100 (2006) 83600 33100 35500 39200 40100 56100 153000 156000 198000 222000
2020-08-01 00:30 24.44 159000 222000 (2011) 33100 (2006) 83600 33100 35500 39200 40100 56100 153000 156000 198000 222000
2020-07-31 23:30 24.17 156000 222000 (2011) 32800 (2006) 85800 32800 36100 38200 41900 54000 144000 155000 220000 222000
2020-07-31 22:30 23.90 152000 222000 (2011) 32800 (2006) 85800 32800 36100 38200 41900 54000 144000 155000 220000 222000
2020-07-31 21:30 23.55 148000 222000 (2011) 32800 (2006) 85800 32800 36100 38200 41900 54000 144000 155000 220000 222000
2020-07-31 20:30 23.25 144000 222000 (2011) 32800 (2006) 85800 32800 36100 38200 41900 54000 144000 155000 220000 222000
2020-07-31 19:30 23.06 142000 222000 (2011) 32800 (2006) 85800 32800 36100 38200 41900 54000 144000 155000 220000 222000
2020-07-31 18:30 22.83 139000 222000 (2011) 32800 (2006) 85800 32800 36100 38200 41900 54000 144000 155000 220000 222000
2020-07-31 17:30 22.50 136000 222000 (2011) 32800 (2006) 85800 32800 36100 38200 41900 54000 144000 155000 220000 222000
2020-07-31 16:30 22.19 132000 222000 (2011) 32800 (2006) 85800 32800 36100 38200 41900 54000 144000 155000 220000 222000
2020-07-31 15:30 21.88 129000 222000 (2011) 32800 (2006) 85800 32800 36100 38200 41900 54000 144000 155000 220000 222000
2020-07-31 14:30 21.60 126000 222000 (2011) 32800 (2006) 85800 32800 36100 38200 41900 54000 144000 155000 220000 222000
2020-07-31 13:30 21.37 123000 222000 (2011) 32800 (2006) 85800 32800 36100 38200 41900 54000 144000 155000 220000 222000
2020-07-31 12:30 21.18 121000 222000 (2011) 32800 (2006) 85800 32800 36100 38200 41900 54000 144000 155000 220000 222000
2020-07-31 11:30 21.00 120000 222000 (2011) 32800 (2006) 85800 32800 36100 38200 41900 54000 144000 155000 220000 222000
2020-07-31 10:30 20.80 117000 222000 (2011) 32800 (2006) 85800 32800 36100 38200 41900 54000 144000 155000 220000 222000
2020-07-31 09:30 20.61 116000 222000 (2011) 32800 (2006) 85800 32800 36100 38200 41900 54000 144000 155000 220000 222000
2020-07-31 08:30 20.50 114000 222000 (2011) 32800 (2006) 85800 32800 36100 38200 41900 54000 144000 155000 220000 222000
2020-07-31 07:30 20.36 113000 222000 (2011) 32800 (2006) 85800 32800 36100 38200 41900 54000 144000 155000 220000 222000
2020-07-31 06:30 20.25 112000 222000 (2011) 32800 (2006) 85800 32800 36100 38200 41900 54000 144000 155000 220000 222000
2020-07-31 05:30 20.14 111000 222000 (2011) 32800 (2006) 85800 32800 36100 38200 41900 54000 144000 155000 220000 222000
2020-07-31 04:30 19.98 109000 222000 (2011) 32800 (2006) 85800 32800 36100 38200 41900 54000 144000 155000 220000 222000
2020-07-31 03:30 19.85 108000 222000 (2011) 32800 (2006) 85800 32800 36100 38200 41900 54000 144000 155000 220000 222000
2020-07-31 02:30 19.71 107000 222000 (2011) 32800 (2006) 85800 32800 36100 38200 41900 54000 144000 155000 220000 222000
2020-07-31 01:30 19.52 105000 222000 (2011) 32800 (2006) 85800 32800 36100 38200 41900 54000 144000 155000 220000 222000
2020-07-31 00:30 19.40 104000 222000 (2011) 32800 (2006) 85800 32800 36100 38200 41900 54000 144000 155000 220000 222000
2020-07-30 23:30 19.28 103000 221000 (2011) 33700 (2006) 84100 33700 35300 38000 41000 55200 130000 144000 195000 221000
2020-07-30 22:30 19.15 102000 221000 (2011) 33700 (2006) 84100 33700 35300 38000 41000 55200 130000 144000 195000 221000
2020-07-30 21:30 19.05 101000 221000 (2011) 33700 (2006) 84100 33700 35300 38000 41000 55200 130000 144000 195000 221000
2020-07-30 20:30 18.90 99400 221000 (2011) 33700 (2006) 84100 33700 35300 38000 41000 55200 130000 144000 195000 221000
2020-07-30 19:30 18.76 98200 221000 (2011) 33700 (2006) 84100 33700 35300 38000 41000 55200 130000 144000 195000 221000
2020-07-30 18:30 18.71 97700 221000 (2011) 33700 (2006) 84100 33700 35300 38000 41000 55200 130000 144000 195000 221000
2020-07-30 17:30 18.61 96900 221000 (2011) 33700 (2006) 84100 33700 35300 38000 41000 55200 130000 144000 195000 221000
2020-07-30 16:30 18.59 96700 221000 (2011) 33700 (2006) 84100 33700 35300 38000 41000 55200 130000 144000 195000 221000
2020-07-30 15:30 18.53 96200 221000 (2011) 33700 (2006) 84100 33700 35300 38000 41000 55200 130000 144000 195000 221000
2020-07-30 14:30 18.48 95700 221000 (2011) 33700 (2006) 84100 33700 35300 38000 41000 55200 130000 144000 195000 221000
2020-07-30 13:30 18.41 95100 221000 (2011) 33700 (2006) 84100 33700 35300 38000 41000 55200 130000 144000 195000 221000
2020-07-30 12:30 18.33 94400 221000 (2011) 33700 (2006) 84100 33700 35300 38000 41000 55200 130000 144000 195000 221000
2020-07-30 11:30 18.32 94400 221000 (2011) 33700 (2006) 84100 33700 35300 38000 41000 55200 130000 144000 195000 221000
2020-07-30 10:30 18.31 94300 221000 (2011) 33700 (2006) 84100 33700 35300 38000 41000 55200 130000 144000 195000 221000
2020-07-30 09:30 18.32 94400 221000 (2011) 33700 (2006) 84100 33700 35300 38000 41000 55200 130000 144000 195000 221000
2020-07-30 08:30 18.29 94100 221000 (2011) 33700 (2006) 84100 33700 35300 38000 41000 55200 130000 144000 195000 221000
2020-07-30 07:30 18.26 93900 221000 (2011) 33700 (2006) 84100 33700 35300 38000 41000 55200 130000 144000 195000 221000
2020-07-30 06:30 18.22 93500 221000 (2011) 33700 (2006) 84100 33700 35300 38000 41000 55200 130000 144000 195000 221000
2020-07-30 05:30 18.19 93300 221000 (2011) 33700 (2006) 84100 33700 35300 38000 41000 55200 130000 144000 195000 221000
2020-07-30 04:30 18.13 92800 221000 (2011) 33700 (2006) 84100 33700 35300 38000 41000 55200 130000 144000 195000 221000
2020-07-30 03:30 18.08 92300 221000 (2011) 33700 (2006) 84100 33700 35300 38000 41000 55200 130000 144000 195000 221000
2020-07-30 02:30 18.03 91900 221000 (2011) 33700 (2006) 84100 33700 35300 38000 41000 55200 130000 144000 195000 221000
2020-07-30 01:30 17.97 91400 221000 (2011) 33700 (2006) 84100 33700 35300 38000 41000 55200 130000 144000 195000 221000
2020-07-30 00:30 17.92 91000 221000 (2011) 33700 (2006) 84100 33700 35300 38000 41000 55200 130000 144000 195000 221000
2020-07-29 23:30 17.84 90300 219000 (2011) 33200 (2002) 83400 33200 34200 38500 39000 57200 125000 144000 181000 219000
2020-07-29 22:30 17.84 90300 219000 (2011) 33200 (2002) 83400 33200 34200 38500 39000 57200 125000 144000 181000 219000
2020-07-29 21:30 17.82 90100 219000 (2011) 33200 (2002) 83400 33200 34200 38500 39000 57200 125000 144000 181000 219000
2020-07-29 20:30 17.77 89700 219000 (2011) 33200 (2002) 83400 33200 34200 38500 39000 57200 125000 144000 181000 219000
2020-07-29 19:30 17.76 89600 219000 (2011) 33200 (2002) 83400 33200 34200 38500 39000 57200 125000 144000 181000 219000
2020-07-29 18:30 17.75 89500 219000 (2011) 33200 (2002) 83400 33200 34200 38500 39000 57200 125000 144000 181000 219000
2020-07-29 17:30 17.74 89400 219000 (2011) 33200 (2002) 83400 33200 34200 38500 39000 57200 125000 144000 181000 219000
2020-07-29 16:30 17.71 89200 219000 (2011) 33200 (2002) 83400 33200 34200 38500 39000 57200 125000 144000 181000 219000
2020-07-29 15:30 17.71 89200 219000 (2011) 33200 (2002) 83400 33200 34200 38500 39000 57200 125000 144000 181000 219000
2020-07-29 14:30 17.72 89300 219000 (2011) 33200 (2002) 83400 33200 34200 38500 39000 57200 125000 144000 181000 219000
2020-07-29 13:30 17.70 89100 219000 (2011) 33200 (2002) 83400 33200 34200 38500 39000 57200 125000 144000 181000 219000
2020-07-29 12:30 17.69 89000 219000 (2011) 33200 (2002) 83400 33200 34200 38500 39000 57200 125000 144000 181000 219000
2020-07-29 11:30 17.65 88600 219000 (2011) 33200 (2002) 83400 33200 34200 38500 39000 57200 125000 144000 181000 219000
2020-07-29 10:30 17.59 88100 219000 (2011) 33200 (2002) 83400 33200 34200 38500 39000 57200 125000 144000 181000 219000
2020-07-29 09:30 17.58 88000 219000 (2011) 33200 (2002) 83400 33200 34200 38500 39000 57200 125000 144000 181000 219000
2020-07-29 08:30 17.57 87900 219000 (2011) 33200 (2002) 83400 33200 34200 38500 39000 57200 125000 144000 181000 219000
2020-07-29 07:30 17.56 87800 219000 (2011) 33200 (2002) 83400 33200 34200 38500 39000 57200 125000 144000 181000 219000
2020-07-29 06:30 17.54 87700 219000 (2011) 33200 (2002) 83400 33200 34200 38500 39000 57200 125000 144000 181000 219000
2020-07-29 05:30 17.57 87900 219000 (2011) 33200 (2002) 83400 33200 34200 38500 39000 57200 125000 144000 181000 219000
2020-07-29 04:30 17.60 88200 219000 (2011) 33200 (2002) 83400 33200 34200 38500 39000 57200 125000 144000 181000 219000
2020-07-29 03:30 17.60 88200 219000 (2011) 33200 (2002) 83400 33200 34200 38500 39000 57200 125000 144000 181000 219000
2020-07-29 02:30 17.59 88100 219000 (2011) 33200 (2002) 83400 33200 34200 38500 39000 57200 125000 144000 181000 219000
2020-07-29 01:30 17.63 88500 219000 (2011) 33200 (2002) 83400 33200 34200 38500 39000 57200 125000 144000 181000 219000
2020-07-29 00:30 17.68 88900 219000 (2011) 33200 (2002) 83400 33200 34200 38500 39000 57200 125000 144000 181000 219000
2020-07-28 23:30 17.72 89300 218000 (2011) 31900 (2002) 83900 31900 34500 37900 40500 59300 127000 151000 171000 218000
2020-07-28 22:30 17.74 89400 218000 (2011) 31900 (2002) 83900 31900 34500 37900 40500 59300 127000 151000 171000 218000
2020-07-28 21:30 17.80 90000 218000 (2011) 31900 (2002) 83900 31900 34500 37900 40500 59300 127000 151000 171000 218000
2020-07-28 20:30 17.81 90100 218000 (2011) 31900 (2002) 83900 31900 34500 37900 40500 59300 127000 151000 171000 218000
2020-07-28 19:30 17.84 90300 218000 (2011) 31900 (2002) 83900 31900 34500 37900 40500 59300 127000 151000 171000 218000
2020-07-28 18:30 17.90 90800 218000 (2011) 31900 (2002) 83900 31900 34500 37900 40500 59300 127000 151000 171000 218000
2020-07-28 17:30 17.94 91200 218000 (2011) 31900 (2002) 83900 31900 34500 37900 40500 59300 127000 151000 171000 218000
2020-07-28 16:30 17.95 91200 218000 (2011) 31900 (2002) 83900 31900 34500 37900 40500 59300 127000 151000 171000 218000
2020-07-28 15:30 17.92 91000 218000 (2011) 31900 (2002) 83900 31900 34500 37900 40500 59300 127000 151000 171000 218000
2020-07-28 14:30 17.91 90900 218000 (2011) 31900 (2002) 83900 31900 34500 37900 40500 59300 127000 151000 171000 218000
2020-07-28 13:30 17.94 91200 218000 (2011) 31900 (2002) 83900 31900 34500 37900 40500 59300 127000 151000 171000 218000
2020-07-28 12:30 17.90 90800 218000 (2011) 31900 (2002) 83900 31900 34500 37900 40500 59300 127000 151000 171000 218000
2020-07-28 11:30 17.82 90100 218000 (2011) 31900 (2002) 83900 31900 34500 37900 40500 59300 127000 151000 171000 218000
2020-07-28 10:30 17.77 89700 218000 (2011) 31900 (2002) 83900 31900 34500 37900 40500 59300 127000 151000 171000 218000
2020-07-28 09:30 17.70 89100 218000 (2011) 31900 (2002) 83900 31900 34500 37900 40500 59300 127000 151000 171000 218000
2020-07-28 08:30 17.61 88300 218000 (2011) 31900 (2002) 83900 31900 34500 37900 40500 59300 127000 151000 171000 218000
2020-07-28 07:30 17.47 87100 218000 (2011) 31900 (2002) 83900 31900 34500 37900 40500 59300 127000 151000 171000 218000
2020-07-28 06:30 17.35 86000 218000 (2011) 31900 (2002) 83900 31900 34500 37900 40500 59300 127000 151000 171000 218000
2020-07-28 05:30 17.20 84700 218000 (2011) 31900 (2002) 83900 31900 34500 37900 40500 59300 127000 151000 171000 218000
2020-07-28 04:30 17.06 83500 218000 (2011) 31900 (2002) 83900 31900 34500 37900 40500 59300 127000 151000 171000 218000
2020-07-28 03:30 16.93 82500 218000 (2011) 31900 (2002) 83900 31900 34500 37900 40500 59300 127000 151000 171000 218000
2020-07-28 02:30 16.80 81400 218000 (2011) 31900 (2002) 83900 31900 34500 37900 40500 59300 127000 151000 171000 218000
2020-07-28 01:30 16.69 80500 218000 (2011) 31900 (2002) 83900 31900 34500 37900 40500 59300 127000 151000 171000 218000
2020-07-28 00:30 16.57 79500 218000 (2011) 31900 (2002) 83900 31900 34500 37900 40500 59300 127000 151000 171000 218000
2020-07-27 23:30 16.46 78600 217000 (2011) 32400 (2002) 81300 32400 34300 38600 40700 60400 117000 141000 171000 217000
2020-07-27 22:30 16.36 77800 217000 (2011) 32400 (2002) 81300 32400 34300 38600 40700 60400 117000 141000 171000 217000
2020-07-27 21:30 16.28 77200 217000 (2011) 32400 (2002) 81300 32400 34300 38600 40700 60400 117000 141000 171000 217000
2020-07-27 20:30 16.19 76500 217000 (2011) 32400 (2002) 81300 32400 34300 38600 40700 60400 117000 141000 171000 217000
2020-07-27 19:30 16.12 75900 217000 (2011) 32400 (2002) 81300 32400 34300 38600 40700 60400 117000 141000 171000 217000
2020-07-27 18:30 16.05 75400 217000 (2011) 32400 (2002) 81300 32400 34300 38600 40700 60400 117000 141000 171000 217000
2020-07-27 17:30 16.05 75400 217000 (2011) 32400 (2002) 81300 32400 34300 38600 40700 60400 117000 141000 171000 217000
2020-07-27 16:30 16.04 75300 217000 (2011) 32400 (2002) 81300 32400 34300 38600 40700 60400 117000 141000 171000 217000
2020-07-27 15:30 16.02 75100 217000 (2011) 32400 (2002) 81300 32400 34300 38600 40700 60400 117000 141000 171000 217000
2020-07-27 14:30 16.00 75000 217000 (2011) 32400 (2002) 81300 32400 34300 38600 40700 60400 117000 141000 171000 217000
2020-07-27 13:30 16.02 75100 217000 (2011) 32400 (2002) 81300 32400 34300 38600 40700 60400 117000 141000 171000 217000
2020-07-27 12:30 16.03 75200 217000 (2011) 32400 (2002) 81300 32400 34300 38600 40700 60400 117000 141000 171000 217000
2020-07-27 11:30 16.02 75100 217000 (2011) 32400 (2002) 81300 32400 34300 38600 40700 60400 117000 141000 171000 217000
2020-07-27 10:30 16.02 75100 217000 (2011) 32400 (2002) 81300 32400 34300 38600 40700 60400 117000 141000 171000 217000
2020-07-27 09:30 16.01 75100 217000 (2011) 32400 (2002) 81300 32400 34300 38600 40700 60400 117000 141000 171000 217000
2020-07-27 08:30 16.00 75000 217000 (2011) 32400 (2002) 81300 32400 34300 38600 40700 60400 117000 141000 171000 217000
2020-07-27 07:30 15.99 74900 217000 (2011) 32400 (2002) 81300 32400 34300 38600 40700 60400 117000 141000 171000 217000
2020-07-27 06:30 15.98 74800 217000 (2011) 32400 (2002) 81300 32400 34300 38600 40700 60400 117000 141000 171000 217000
2020-07-27 05:30 15.97 74800 217000 (2011) 32400 (2002) 81300 32400 34300 38600 40700 60400 117000 141000 171000 217000
2020-07-27 04:30 15.98 74800 217000 (2011) 32400 (2002) 81300 32400 34300 38600 40700 60400 117000 141000 171000 217000
2020-07-27 03:30 16.01 75100 217000 (2011) 32400 (2002) 81300 32400 34300 38600 40700 60400 117000 141000 171000 217000
2020-07-27 02:30 16.01 75100 217000 (2011) 32400 (2002) 81300 32400 34300 38600 40700 60400 117000 141000 171000 217000
2020-07-27 01:30 16.05 75400 217000 (2011) 32400 (2002) 81300 32400 34300 38600 40700 60400 117000 141000 171000 217000
2020-07-27 00:30 16.05 75400 217000 (2011) 32400 (2002) 81300 32400 34300 38600 40700 60400 117000 141000 171000 217000
2020-07-26 23:30 16.07 75500 217000 (2011) 32100 (2002) 81500 32100 34900 39200 40300 63100 109000 126000 174000 217000
2020-07-26 22:30 16.07 75500 217000 (2011) 32100 (2002) 81500 32100 34900 39200 40300 63100 109000 126000 174000 217000
2020-07-26 21:30 16.03 75200 217000 (2011) 32100 (2002) 81500 32100 34900 39200 40300 63100 109000 126000 174000 217000
2020-07-26 20:30 16.05 75400 217000 (2011) 32100 (2002) 81500 32100 34900 39200 40300 63100 109000 126000 174000 217000
2020-07-26 19:30 16.06 75500 217000 (2011) 32100 (2002) 81500 32100 34900 39200 40300 63100 109000 126000 174000 217000
2020-07-26 18:30 16.04 75300 217000 (2011) 32100 (2002) 81500 32100 34900 39200 40300 63100 109000 126000 174000 217000
2020-07-26 17:30 16.03 75200 217000 (2011) 32100 (2002) 81500 32100 34900 39200 40300 63100 109000 126000 174000 217000
2020-07-26 16:30 16.06 75500 217000 (2011) 32100 (2002) 81500 32100 34900 39200 40300 63100 109000 126000 174000 217000
2020-07-26 15:30 16.07 75500 217000 (2011) 32100 (2002) 81500 32100 34900 39200 40300 63100 109000 126000 174000 217000
2020-07-26 14:30 16.09 75700 217000 (2011) 32100 (2002) 81500 32100 34900 39200 40300 63100 109000 126000 174000 217000
2020-07-26 13:30 16.11 75800 217000 (2011) 32100 (2002) 81500 32100 34900 39200 40300 63100 109000 126000 174000 217000
2020-07-26 12:30 16.18 76400 217000 (2011) 32100 (2002) 81500 32100 34900 39200 40300 63100 109000 126000 174000 217000
2020-07-26 11:30 16.14 76100 217000 (2011) 32100 (2002) 81500 32100 34900 39200 40300 63100 109000 126000 174000 217000
2020-07-26 10:30 16.15 76200 217000 (2011) 32100 (2002) 81500 32100 34900 39200 40300 63100 109000 126000 174000 217000
2020-07-26 09:30 16.19 76500 217000 (2011) 32100 (2002) 81500 32100 34900 39200 40300 63100 109000 126000 174000 217000
2020-07-26 08:30 16.17 76300 217000 (2011) 32100 (2002) 81500 32100 34900 39200 40300 63100 109000 126000 174000 217000
2020-07-26 07:30 16.17 76300 217000 (2011) 32100 (2002) 81500 32100 34900 39200 40300 63100 109000 126000 174000 217000
2020-07-26 06:30 16.18 76400 217000 (2011) 32100 (2002) 81500 32100 34900 39200 40300 63100 109000 126000 174000 217000
2020-07-26 05:30 16.19 76500 217000 (2011) 32100 (2002) 81500 32100 34900 39200 40300 63100 109000 126000 174000 217000
2020-07-26 04:30 16.22 76700 217000 (2011) 32100 (2002) 81500 32100 34900 39200 40300 63100 109000 126000 174000 217000
2020-07-26 03:30 16.25 76900 217000 (2011) 32100 (2002) 81500 32100 34900 39200 40300 63100 109000 126000 174000 217000
2020-07-26 02:30 16.25 76900 217000 (2011) 32100 (2002) 81500 32100 34900 39200 40300 63100 109000 126000 174000 217000
2020-07-26 01:30 16.24 76900 217000 (2011) 32100 (2002) 81500 32100 34900 39200 40300 63100 109000 126000 174000 217000
2020-07-26 00:30 16.26 77000 217000 (2011) 32100 (2002) 81500 32100 34900 39200 40300 63100 109000 126000 174000 217000
2020-07-25 23:30 16.28 77200 215000 (2011) 32600 (2002) 79400 32600 35700 39400 39800 56800 101000 109000 179000 215000
2020-07-25 22:30 16.32 77500 215000 (2011) 32600 (2002) 79400 32600 35700 39400 39800 56800 101000 109000 179000 215000
2020-07-25 21:30 16.33 77600 215000 (2011) 32600 (2002) 79400 32600 35700 39400 39800 56800 101000 109000 179000 215000
2020-07-25 20:30 16.33 77600 215000 (2011) 32600 (2002) 79400 32600 35700 39400 39800 56800 101000 109000 179000 215000
2020-07-25 19:30 16.38 78000 215000 (2011) 32600 (2002) 79400 32600 35700 39400 39800 56800 101000 109000 179000 215000
2020-07-25 18:30 16.42 78300 215000 (2011) 32600 (2002) 79400 32600 35700 39400 39800 56800 101000 109000 179000 215000
2020-07-25 17:30 16.41 78200 215000 (2011) 32600 (2002) 79400 32600 35700 39400 39800 56800 101000 109000 179000 215000
2020-07-25 16:30 16.43 78400 215000 (2011) 32600 (2002) 79400 32600 35700 39400 39800 56800 101000 109000 179000 215000
2020-07-25 15:30 16.45 78500 215000 (2011) 32600 (2002) 79400 32600 35700 39400 39800 56800 101000 109000 179000 215000
2020-07-25 14:30 16.46 78600 215000 (2011) 32600 (2002) 79400 32600 35700 39400 39800 56800 101000 109000 179000 215000
2020-07-25 13:30 16.53 79200 215000 (2011) 32600 (2002) 79400 32600 35700 39400 39800 56800 101000 109000 179000 215000
2020-07-25 12:30 16.58 79600 215000 (2011) 32600 (2002) 79400 32600 35700 39400 39800 56800 101000 109000 179000 215000
2020-07-25 11:30 16.60 79700 215000 (2011) 32600 (2002) 79400 32600 35700 39400 39800 56800 101000 109000 179000 215000
2020-07-25 10:30 16.67 80300 215000 (2011) 32600 (2002) 79400 32600 35700 39400 39800 56800 101000 109000 179000 215000
2020-07-25 09:30 16.69 80500 215000 (2011) 32600 (2002) 79400 32600 35700 39400 39800 56800 101000 109000 179000 215000
2020-07-25 08:30 16.70 80600 215000 (2011) 32600 (2002) 79400 32600 35700 39400 39800 56800 101000 109000 179000 215000
2020-07-25 07:30 16.77 81100 215000 (2011) 32600 (2002) 79400 32600 35700 39400 39800 56800 101000 109000 179000 215000
2020-07-25 06:30 16.82 81500 215000 (2011) 32600 (2002) 79400 32600 35700 39400 39800 56800 101000 109000 179000 215000
2020-07-25 05:30 16.88 82000 215000 (2011) 32600 (2002) 79400 32600 35700 39400 39800 56800 101000 109000 179000 215000
2020-07-25 04:30 16.93 82500 215000 (2011) 32600 (2002) 79400 32600 35700 39400 39800 56800 101000 109000 179000 215000
2020-07-25 03:30 16.98 82900 215000 (2011) 32600 (2002) 79400 32600 35700 39400 39800 56800 101000 109000 179000 215000
2020-07-25 02:30 17.02 83200 215000 (2011) 32600 (2002) 79400 32600 35700 39400 39800 56800 101000 109000 179000 215000
2020-07-25 01:30 17.09 83800 215000 (2011) 32600 (2002) 79400 32600 35700 39400 39800 56800 101000 109000 179000 215000
2020-07-25 00:30 17.16 84400 215000 (2011) 32600 (2002) 79400 32600 35700 39400 39800 56800 101000 109000 179000 215000
2020-07-24 23:30 17.19 84600 215000 (2011) 33400 (2002) 79500 33400 35800 38900 40200 58800 101000 119000 182000 215000
2020-07-24 22:30 17.27 85300 215000 (2011) 33400 (2002) 79500 33400 35800 38900 40200 58800 101000 119000 182000 215000
2020-07-24 21:30 17.31 85700 215000 (2011) 33400 (2002) 79500 33400 35800 38900 40200 58800 101000 119000 182000 215000
2020-07-24 20:30 17.43 86700 215000 (2011) 33400 (2002) 79500 33400 35800 38900 40200 58800 101000 119000 182000 215000
2020-07-24 19:30 17.47 87100 215000 (2011) 33400 (2002) 79500 33400 35800 38900 40200 58800 101000 119000 182000 215000
2020-07-24 18:30 17.49 87200 215000 (2011) 33400 (2002) 79500 33400 35800 38900 40200 58800 101000 119000 182000 215000
2020-07-24 17:30 17.56 87800 215000 (2011) 33400 (2002) 79500 33400 35800 38900 40200 58800 101000 119000 182000 215000
2020-07-24 16:30 17.64 88500 215000 (2011) 33400 (2002) 79500 33400 35800 38900 40200 58800 101000 119000 182000 215000
2020-07-24 15:30 17.68 88900 215000 (2011) 33400 (2002) 79500 33400 35800 38900 40200 58800 101000 119000 182000 215000
2020-07-24 14:30 17.75 89500 215000 (2011) 33400 (2002) 79500 33400 35800 38900 40200 58800 101000 119000 182000 215000
2020-07-24 13:30 17.82 90100 215000 (2011) 33400 (2002) 79500 33400 35800 38900 40200 58800 101000 119000 182000 215000
2020-07-24 12:30 17.87 86300 215000 (2011) 33400 (2002) 79500 33400 35800 38900 40200 58800 101000 119000 182000 215000
2020-07-24 11:30 17.90 86500 215000 (2011) 33400 (2002) 79500 33400 35800 38900 40200 58800 101000 119000 182000 215000
2020-07-24 10:30 17.96 87100 215000 (2011) 33400 (2002) 79500 33400 35800 38900 40200 58800 101000 119000 182000 215000
2020-07-24 09:30 18.04 87800 215000 (2011) 33400 (2002) 79500 33400 35800 38900 40200 58800 101000 119000 182000 215000
2020-07-24 08:30 18.07 88000 215000 (2011) 33400 (2002) 79500 33400 35800 38900 40200 58800 101000 119000 182000 215000
2020-07-24 07:30 18.13 88500 215000 (2011) 33400 (2002) 79500 33400 35800 38900 40200 58800 101000 119000 182000 215000
2020-07-24 06:30 18.23 89400 215000 (2011) 33400 (2002) 79500 33400 35800 38900 40200 58800 101000 119000 182000 215000
2020-07-24 05:30 18.30 90100 215000 (2011) 33400 (2002) 79500 33400 35800 38900 40200 58800 101000 119000 182000 215000
2020-07-24 04:30 18.36 90600 215000 (2011) 33400 (2002) 79500 33400 35800 38900 40200 58800 101000 119000 182000 215000
2020-07-24 03:30 18.45 91300 215000 (2011) 33400 (2002) 79500 33400 35800 38900 40200 58800 101000 119000 182000 215000
2020-07-24 02:30 18.51 91800 215000 (2011) 33400 (2002) 79500 33400 35800 38900 40200 58800 101000 119000 182000 215000
2020-07-24 01:30 18.59 92500 215000 (2011) 33400 (2002) 79500 33400 35800 38900 40200 58800 101000 119000 182000 215000
2020-07-24 00:30 18.66 93100 215000 (2011) 33400 (2002) 79500 33400 35800 38900 40200 58800 101000 119000 182000 215000
2020-07-23 23:30 18.71 93500 216000 (2011) 34100 (2002) 82900 34100 35300 39000 39500 60000 102000 152000 189000 216000
2020-07-23 22:30 18.81 94400 216000 (2011) 34100 (2002) 82900 34100 35300 39000 39500 60000 102000 152000 189000 216000
2020-07-23 21:30 18.89 95000 216000 (2011) 34100 (2002) 82900 34100 35300 39000 39500 60000 102000 152000 189000 216000
2020-07-23 20:30 19.02 96200 216000 (2011) 34100 (2002) 82900 34100 35300 39000 39500 60000 102000 152000 189000 216000
2020-07-23 19:30 19.12 97000 216000 (2011) 34100 (2002) 82900 34100 35300 39000 39500 60000 102000 152000 189000 216000
2020-07-23 18:30 19.20 97700 216000 (2011) 34100 (2002) 82900 34100 35300 39000 39500 60000 102000 152000 189000 216000
2020-07-23 17:30 19.28 98400 216000 (2011) 34100 (2002) 82900 34100 35300 39000 39500 60000 102000 152000 189000 216000
2020-07-23 16:30 19.35 99100 216000 (2011) 34100 (2002) 82900 34100 35300 39000 39500 60000 102000 152000 189000 216000
2020-07-23 15:30 19.42 99700 216000 (2011) 34100 (2002) 82900 34100 35300 39000 39500 60000 102000 152000 189000 216000
2020-07-23 14:30 19.50 100000 216000 (2011) 34100 (2002) 82900 34100 35300 39000 39500 60000 102000 152000 189000 216000
2020-07-23 13:30 19.60 101000 216000 (2011) 34100 (2002) 82900 34100 35300 39000 39500 60000 102000 152000 189000 216000
2020-07-23 12:30 19.67 102000 216000 (2011) 34100 (2002) 82900 34100 35300 39000 39500 60000 102000 152000 189000 216000
2020-07-23 11:30 19.71 102000 216000 (2011) 34100 (2002) 82900 34100 35300 39000 39500 60000 102000 152000 189000 216000
2020-07-23 10:30 19.80 103000 216000 (2011) 34100 (2002) 82900 34100 35300 39000 39500 60000 102000 152000 189000 216000
2020-07-23 09:30 19.89 104000 216000 (2011) 34100 (2002) 82900 34100 35300 39000 39500 60000 102000 152000 189000 216000
2020-07-23 08:30 19.96 105000 216000 (2011) 34100 (2002) 82900 34100 35300 39000 39500 60000 102000 152000 189000 216000
2020-07-23 07:30 20.08 106000 216000 (2011) 34100 (2002) 82900 34100 35300 39000 39500 60000 102000 152000 189000 216000
2020-07-23 06:30 20.12 106000 216000 (2011) 34100 (2002) 82900 34100 35300 39000 39500 60000 102000 152000 189000 216000
2020-07-23 05:30 20.18 107000 216000 (2011) 34100 (2002) 82900 34100 35300 39000 39500 60000 102000 152000 189000 216000
2020-07-23 04:30 20.20 107000 216000 (2011) 34100 (2002) 82900 34100 35300 39000 39500 60000 102000 152000 189000 216000
2020-07-23 03:30 20.23 107000 216000 (2011) 34100 (2002) 82900 34100 35300 39000 39500 60000 102000 152000 189000 216000
2020-07-23 02:30 20.27 107000 216000 (2011) 34100 (2002) 82900 34100 35300 39000 39500 60000 102000 152000 189000 216000
2020-07-23 01:30 20.34 108000 216000 (2011) 34100 (2002) 82900 34100 35300 39000 39500 60000 102000 152000 189000 216000
2020-07-23 00:30 20.41 109000 216000 (2011) 34100 (2002) 82900 34100 35300 39000 39500 60000 102000 152000 189000 216000
2020-07-22 23:30 20.48 109000 215000 (2011) 35000 (2002) 87000 35000 35000 39500 40000 63800 103000 177000 197000 215000
2020-07-22 22:30 20.56 110000 215000 (2011) 35000 (2002) 87000 35000 35000 39500 40000 63800 103000 177000 197000 215000
2020-07-22 21:30 20.60 111000 215000 (2011) 35000 (2002) 87000 35000 35000 39500 40000 63800 103000 177000 197000 215000
2020-07-22 20:30 20.61 111000 215000 (2011) 35000 (2002) 87000 35000 35000 39500 40000 63800 103000 177000 197000 215000
2020-07-22 19:30 20.61 111000 215000 (2011) 35000 (2002) 87000 35000 35000 39500 40000 63800 103000 177000 197000 215000
2020-07-22 18:30 20.60 111000 215000 (2011) 35000 (2002) 87000 35000 35000 39500 40000 63800 103000 177000 197000 215000
2020-07-22 17:30 20.52 110000 215000 (2011) 35000 (2002) 87000 35000 35000 39500 40000 63800 103000 177000 197000 215000
2020-07-22 16:30 20.45 109000 215000 (2011) 35000 (2002) 87000 35000 35000 39500 40000 63800 103000 177000 197000 215000
2020-07-22 15:30 20.39 109000 215000 (2011) 35000 (2002) 87000 35000 35000 39500 40000 63800 103000 177000 197000 215000
2020-07-22 14:30 20.30 108000 215000 (2011) 35000 (2002) 87000 35000 35000 39500 40000 63800 103000 177000 197000 215000
2020-07-22 13:30 20.16 106000 215000 (2011) 35000 (2002) 87000 35000 35000 39500 40000 63800 103000 177000 197000 215000
2020-07-22 12:30 20.15 106000 215000 (2011) 35000 (2002) 87000 35000 35000 39500 40000 63800 103000 177000 197000 215000
2020-07-22 11:30 20.11 106000 215000 (2011) 35000 (2002) 87000 35000 35000 39500 40000 63800 103000 177000 197000 215000
2020-07-22 10:30 20.01 105000 215000 (2011) 35000 (2002) 87000 35000 35000 39500 40000 63800 103000 177000 197000 215000
2020-07-22 09:30 19.85 104000 215000 (2011) 35000 (2002) 87000 35000 35000 39500 40000 63800 103000 177000 197000 215000
2020-07-22 08:30 19.75 103000 215000 (2011) 35000 (2002) 87000 35000 35000 39500 40000 63800 103000 177000 197000 215000
2020-07-22 07:30 19.62 101000 215000 (2011) 35000 (2002) 87000 35000 35000 39500 40000 63800 103000 177000 197000 215000
2020-07-22 06:30 19.41 99600 215000 (2011) 35000 (2002) 87000 35000 35000 39500 40000 63800 103000 177000 197000 215000
2020-07-22 05:30 19.20 97700 215000 (2011) 35000 (2002) 87000 35000 35000 39500 40000 63800 103000 177000 197000 215000
2020-07-22 04:30 19.00 96000 215000 (2011) 35000 (2002) 87000 35000 35000 39500 40000 63800 103000 177000 197000 215000
2020-07-22 03:30 18.78 94100 215000 (2011) 35000 (2002) 87000 35000 35000 39500 40000 63800 103000 177000 197000 215000
2020-07-22 02:30 18.55 92200 215000 (2011) 35000 (2002) 87000 35000 35000 39500 40000 63800 103000 177000 197000 215000
2020-07-22 01:30 18.32 90200 215000 (2011) 35000 (2002) 87000 35000 35000 39500 40000 63800 103000 177000 197000 215000
2020-07-22 00:30 18.06 87900 215000 (2011) 35000 (2002) 87000 35000 35000 39500 40000 63800 103000 177000 197000 215000
2020-07-21 23:30 17.79 85600 214000 (2011) 35400 (2002) 84700 35400 35500 39800 41200 66500 103000 169000 177000 214000
2020-07-21 22:30 17.59 83900 214000 (2011) 35400 (2002) 84700 35400 35500 39800 41200 66500 103000 169000 177000 214000
2020-07-21 21:30 17.44 82600 214000 (2011) 35400 (2002) 84700 35400 35500 39800 41200 66500 103000 169000 177000 214000
2020-07-21 20:30 17.25 81000 214000 (2011) 35400 (2002) 84700 35400 35500 39800 41200 66500 103000 169000 177000 214000
2020-07-21 19:30 17.09 79700 214000 (2011) 35400 (2002) 84700 35400 35500 39800 41200 66500 103000 169000 177000 214000
2020-07-21 18:30 16.95 78600 214000 (2011) 35400 (2002) 84700 35400 35500 39800 41200 66500 103000 169000 177000 214000
2020-07-21 17:30 16.79 77300 214000 (2011) 35400 (2002) 84700 35400 35500 39800 41200 66500 103000 169000 177000 214000
2020-07-21 16:30 16.69 76500 214000 (2011) 35400 (2002) 84700 35400 35500 39800 41200 66500 103000 169000 177000 214000
2020-07-21 15:30 16.57 75600 214000 (2011) 35400 (2002) 84700 35400 35500 39800 41200 66500 103000 169000 177000 214000
2020-07-21 14:30 16.44 74600 214000 (2011) 35400 (2002) 84700 35400 35500 39800 41200 66500 103000 169000 177000 214000
2020-07-21 13:30 16.36 74000 214000 (2011) 35400 (2002) 84700 35400 35500 39800 41200 66500 103000 169000 177000 214000
2020-07-21 12:30 16.26 73200 214000 (2011) 35400 (2002) 84700 35400 35500 39800 41200 66500 103000 169000 177000 214000
2020-07-21 11:30 16.18 72600 214000 (2011) 35400 (2002) 84700 35400 35500 39800 41200 66500 103000 169000 177000 214000
2020-07-21 10:30 16.13 72200 214000 (2011) 35400 (2002) 84700 35400 35500 39800 41200 66500 103000 169000 177000 214000
2020-07-21 09:30 16.09 71900 214000 (2011) 35400 (2002) 84700 35400 35500 39800 41200 66500 103000 169000 177000 214000
2020-07-21 08:30 16.06 71700 214000 (2011) 35400 (2002) 84700 35400 35500 39800 41200 66500 103000 169000 177000 214000
2020-07-21 07:30 16.00 71300 214000 (2011) 35400 (2002) 84700 35400 35500 39800 41200 66500 103000 169000 177000 214000
2020-07-21 06:30 15.99 71200 214000 (2011) 35400 (2002) 84700 35400 35500 39800 41200 66500 103000 169000 177000 214000
2020-07-21 05:30 15.95 70900 214000 (2011) 35400 (2002) 84700 35400 35500 39800 41200 66500 103000 169000 177000 214000
2020-07-21 04:30 15.92 70700 214000 (2011) 35400 (2002) 84700 35400 35500 39800 41200 66500 103000 169000 177000 214000
2020-07-21 03:30 15.88 70400 214000 (2011) 35400 (2002) 84700 35400 35500 39800 41200 66500 103000 169000 177000 214000
2020-07-21 02:30 15.89 70500 214000 (2011) 35400 (2002) 84700 35400 35500 39800 41200 66500 103000 169000 177000 214000
2020-07-21 01:30 15.86 70200 214000 (2011) 35400 (2002) 84700 35400 35500 39800 41200 66500 103000 169000 177000 214000
2020-07-21 00:30 15.86 70200 214000 (2011) 35400 (2002) 84700 35400 35500 39800 41200 66500 103000 169000 177000 214000
2020-07-20 23:30 15.87 70300 215000 (2011) 35600 (2006) 80500 35600 35900 40200 41500 60900 104000 148000 166000 215000
2020-07-20 22:30 15.86 70200 215000 (2011) 35600 (2006) 80500 35600 35900 40200 41500 60900 104000 148000 166000 215000
2020-07-20 21:30 15.88 70400 215000 (2011) 35600 (2006) 80500 35600 35900 40200 41500 60900 104000 148000 166000 215000
2020-07-20 20:30 15.89 70500 215000 (2011) 35600 (2006) 80500 35600 35900 40200 41500 60900 104000 148000 166000 215000
2020-07-20 19:30 15.89 70500 215000 (2011) 35600 (2006) 80500 35600 35900 40200 41500 60900 104000 148000 166000 215000
2020-07-20 18:30 15.91 70600 215000 (2011) 35600 (2006) 80500 35600 35900 40200 41500 60900 104000 148000 166000 215000
2020-07-20 17:30 15.91 70600 215000 (2011) 35600 (2006) 80500 35600 35900 40200 41500 60900 104000 148000 166000 215000
2020-07-20 16:30 15.92 70700 215000 (2011) 35600 (2006) 80500 35600 35900 40200 41500 60900 104000 148000 166000 215000
2020-07-20 15:30 15.92 70700 215000 (2011) 35600 (2006) 80500 35600 35900 40200 41500 60900 104000 148000 166000 215000
2020-07-20 14:30 15.96 71000 215000 (2011) 35600 (2006) 80500 35600 35900 40200 41500 60900 104000 148000 166000 215000
2020-07-20 13:30 15.95 70900 215000 (2011) 35600 (2006) 80500 35600 35900 40200 41500 60900 104000 148000 166000 215000
2020-07-20 12:30 16.00 71300 215000 (2011) 35600 (2006) 80500 35600 35900 40200 41500 60900 104000 148000 166000 215000
2020-07-20 11:30 15.95 70900 215000 (2011) 35600 (2006) 80500 35600 35900 40200 41500 60900 104000 148000 166000 215000
2020-07-20 10:30 15.96 71000 215000 (2011) 35600 (2006) 80500 35600 35900 40200 41500 60900 104000 148000 166000 215000
2020-07-20 09:30 15.98 71100 215000 (2011) 35600 (2006) 80500 35600 35900 40200 41500 60900 104000 148000 166000 215000
2020-07-20 08:30 16.00 71300 215000 (2011) 35600 (2006) 80500 35600 35900 40200 41500 60900 104000 148000 166000 215000
2020-07-20 07:30 16.02 71400 215000 (2011) 35600 (2006) 80500 35600 35900 40200 41500 60900 104000 148000 166000 215000
2020-07-20 06:30 16.06 71700 215000 (2011) 35600 (2006) 80500 35600 35900 40200 41500 60900 104000 148000 166000 215000
2020-07-20 05:30 16.10 72000 215000 (2011) 35600 (2006) 80500 35600 35900 40200 41500 60900 104000 148000 166000 215000
2020-07-20 04:30 16.12 72200 215000 (2011) 35600 (2006) 80500 35600 35900 40200 41500 60900 104000 148000 166000 215000
2020-07-20 03:30 16.16 72500 215000 (2011) 35600 (2006) 80500 35600 35900 40200 41500 60900 104000 148000 166000 215000
2020-07-20 02:30 16.20 72800 215000 (2011) 35600 (2006) 80500 35600 35900 40200 41500 60900 104000 148000 166000 215000
2020-07-20 01:30 16.26 73200 215000 (2011) 35600 (2006) 80500 35600 35900 40200 41500 60900 104000 148000 166000 215000
2020-07-20 00:30 16.32 73700 215000 (2011) 35600 (2006) 80500 35600 35900 40200 41500 60900 104000 148000 166000 215000
2020-07-19 23:30 16.37 74100 217000 (2011) 36200 (2006) 80900 36200 36300 40900 42000 62500 103000 144000 165000 217000
2020-07-19 22:30 16.40 74300 217000 (2011) 36200 (2006) 80900 36200 36300 40900 42000 62500 103000 144000 165000 217000
2020-07-19 21:30 16.46 74800 217000 (2011) 36200 (2006) 80900 36200 36300 40900 42000 62500 103000 144000 165000 217000
2020-07-19 20:30 16.46 74800 217000 (2011) 36200 (2006) 80900 36200 36300 40900 42000 62500 103000 144000 165000 217000
2020-07-19 19:30 16.52 75200 217000 (2011) 36200 (2006) 80900 36200 36300 40900 42000 62500 103000 144000 165000 217000
2020-07-19 18:30 16.60 75800 217000 (2011) 36200 (2006) 80900 36200 36300 40900 42000 62500 103000 144000 165000 217000
2020-07-19 17:30 16.64 76200 217000 (2011) 36200 (2006) 80900 36200 36300 40900 42000 62500 103000 144000 165000 217000
2020-07-19 16:30 16.70 76600 217000 (2011) 36200 (2006) 80900 36200 36300 40900 42000 62500 103000 144000 165000 217000
2020-07-19 15:30 16.72 76800 217000 (2011) 36200 (2006) 80900 36200 36300 40900 42000 62500 103000 144000 165000 217000
2020-07-19 14:30 16.77 77200 217000 (2011) 36200 (2006) 80900 36200 36300 40900 42000 62500 103000 144000 165000 217000
2020-07-19 13:30 16.84 77700 217000 (2011) 36200 (2006) 80900 36200 36300 40900 42000 62500 103000 144000 165000 217000
2020-07-19 12:30 16.98 78900 217000 (2011) 36200 (2006) 80900 36200 36300 40900 42000 62500 103000 144000 165000 217000
2020-07-19 11:30 17.06 79500 217000 (2011) 36200 (2006) 80900 36200 36300 40900 42000 62500 103000 144000 165000 217000
2020-07-19 10:30 17.12 80000 217000 (2011) 36200 (2006) 80900 36200 36300 40900 42000 62500 103000 144000 165000 217000
2020-07-19 09:30 17.24 81000 217000 (2011) 36200 (2006) 80900 36200 36300 40900 42000 62500 103000 144000 165000 217000
2020-07-19 08:30 17.27 81200 217000 (2011) 36200 (2006) 80900 36200 36300 40900 42000 62500 103000 144000 165000 217000
2020-07-19 07:30 17.31 81500 217000 (2011) 36200 (2006) 80900 36200 36300 40900 42000 62500 103000 144000 165000 217000
2020-07-19 06:30 17.39 82200 217000 (2011) 36200 (2006) 80900 36200 36300 40900 42000 62500 103000 144000 165000 217000
2020-07-19 05:30 17.49 83000 217000 (2011) 36200 (2006) 80900 36200 36300 40900 42000 62500 103000 144000 165000 217000
2020-07-19 04:30 17.57 83700 217000 (2011) 36200 (2006) 80900 36200 36300 40900 42000 62500 103000 144000 165000 217000
2020-07-19 03:30 17.67 84600 217000 (2011) 36200 (2006) 80900 36200 36300 40900 42000 62500 103000 144000 165000 217000
2020-07-19 02:30 17.76 85300 217000 (2011) 36200 (2006) 80900 36200 36300 40900 42000 62500 103000 144000 165000 217000
2020-07-19 01:30 17.86 86200 217000 (2011) 36200 (2006) 80900 36200 36300 40900 42000 62500 103000 144000 165000 217000
2020-07-19 00:30 18.02 87600 217000 (2011) 36200 (2006) 80900 36200 36300 40900 42000 62500 103000 144000 165000 217000
2020-07-18 23:30 18.07 88000 220000 (2011) 36700 (2006) 81600 36700 37600 41700 42800 68100 98900 135000 165000 220000
2020-07-18 22:30 18.18 89000 220000 (2011) 36700 (2006) 81600 36700 37600 41700 42800 68100 98900 135000 165000 220000
2020-07-18 21:30 18.31 90100 220000 (2011) 36700 (2006) 81600 36700 37600 41700 42800 68100 98900 135000 165000 220000
2020-07-18 20:30 18.43 91200 220000 (2011) 36700 (2006) 81600 36700 37600 41700 42800 68100 98900 135000 165000 220000
2020-07-18 19:30 18.49 91700 220000 (2011) 36700 (2006) 81600 36700 37600 41700 42800 68100 98900 135000 165000 220000
2020-07-18 18:30 18.56 92200 220000 (2011) 36700 (2006) 81600 36700 37600 41700 42800 68100 98900 135000 165000 220000
2020-07-18 17:30 18.69 93300 220000 (2011) 36700 (2006) 81600 36700 37600 41700 42800 68100 98900 135000 165000 220000
2020-07-18 16:30 18.77 94000 220000 (2011) 36700 (2006) 81600 36700 37600 41700 42800 68100 98900 135000 165000 220000
2020-07-18 15:30 18.88 95000 220000 (2011) 36700 (2006) 81600 36700 37600 41700 42800 68100 98900 135000 165000 220000
2020-07-18 14:30 19.00 96000 220000 (2011) 36700 (2006) 81600 36700 37600 41700 42800 68100 98900 135000 165000 220000
2020-07-18 13:30 19.15 97300 220000 (2011) 36700 (2006) 81600 36700 37600 41700 42800 68100 98900 135000 165000 220000
2020-07-18 12:30 19.22 97900 220000 (2011) 36700 (2006) 81600 36700 37600 41700 42800 68100 98900 135000 165000 220000
2020-07-18 11:30 19.32 98800 220000 (2011) 36700 (2006) 81600 36700 37600 41700 42800 68100 98900 135000 165000 220000
2020-07-18 10:30 19.37 99200 220000 (2011) 36700 (2006) 81600 36700 37600 41700 42800 68100 98900 135000 165000 220000
2020-07-18 09:30 19.49 100000 220000 (2011) 36700 (2006) 81600 36700 37600 41700 42800 68100 98900 135000 165000 220000
2020-07-18 08:30 19.61 101000 220000 (2011) 36700 (2006) 81600 36700 37600 41700 42800 68100 98900 135000 165000 220000
2020-07-18 07:30 19.72 102000 220000 (2011) 36700 (2006) 81600 36700 37600 41700 42800 68100 98900 135000 165000 220000
2020-07-18 06:30 19.79 103000 220000 (2011) 36700 (2006) 81600 36700 37600 41700 42800 68100 98900 135000 165000 220000
2020-07-18 05:30 19.88 104000 220000 (2011) 36700 (2006) 81600 36700 37600 41700 42800 68100 98900 135000 165000 220000
2020-07-18 04:30 19.94 104000 220000 (2011) 36700 (2006) 81600 36700 37600 41700 42800 68100 98900 135000 165000 220000
2020-07-18 03:30 19.99 105000 220000 (2011) 36700 (2006) 81600 36700 37600 41700 42800 68100 98900 135000 165000 220000
2020-07-18 02:30 20.01 105000 220000 (2011) 36700 (2006) 81600 36700 37600 41700 42800 68100 98900 135000 165000 220000
2020-07-18 01:30 20.04 105000 220000 (2011) 36700 (2006) 81600 36700 37600 41700 42800 68100 98900 135000 165000 220000
2020-07-18 00:30 20.10 106000 220000 (2011) 36700 (2006) 81600 36700 37600 41700 42800 68100 98900 135000 165000 220000
2020-07-17 23:30 20.16 106000 225000 (2011) 37000 (2006) 81100 37000 38700 42500 43200 73000 99200 101000 165000 225000
2020-07-17 22:30 20.18 107000 225000 (2011) 37000 (2006) 81100 37000 38700 42500 43200 73000 99200 101000 165000 225000
2020-07-17 21:30 20.21 107000 225000 (2011) 37000 (2006) 81100 37000 38700 42500 43200 73000 99200 101000 165000 225000
2020-07-17 20:30 20.22 107000 225000 (2011) 37000 (2006) 81100 37000 38700 42500 43200 73000 99200 101000 165000 225000
2020-07-17 19:30 20.26 107000 225000 (2011) 37000 (2006) 81100 37000 38700 42500 43200 73000 99200 101000 165000 225000
2020-07-17 18:30 20.26 107000 225000 (2011) 37000 (2006) 81100 37000 38700 42500 43200 73000 99200 101000 165000 225000
2020-07-17 17:30 20.28 108000 225000 (2011) 37000 (2006) 81100 37000 38700 42500 43200 73000 99200 101000 165000 225000
2020-07-17 16:30 20.28 108000 225000 (2011) 37000 (2006) 81100 37000 38700 42500 43200 73000 99200 101000 165000 225000
2020-07-17 15:30 20.30 108000 225000 (2011) 37000 (2006) 81100 37000 38700 42500 43200 73000 99200 101000 165000 225000
2020-07-17 14:30 20.30 108000 225000 (2011) 37000 (2006) 81100 37000 38700 42500 43200 73000 99200 101000 165000 225000
2020-07-17 13:30 20.34 108000 225000 (2011) 37000 (2006) 81100 37000 38700 42500 43200 73000 99200 101000 165000 225000
2020-07-17 12:30 20.38 109000 225000 (2011) 37000 (2006) 81100 37000 38700 42500 43200 73000 99200 101000 165000 225000
2020-07-17 11:30 20.43 109000 225000 (2011) 37000 (2006) 81100 37000 38700 42500 43200 73000 99200 101000 165000 225000
2020-07-17 10:30 20.40 109000 225000 (2011) 37000 (2006) 81100 37000 38700 42500 43200 73000 99200 101000 165000 225000
2020-07-17 09:30 20.42 109000 225000 (2011) 37000 (2006) 81100 37000 38700 42500 43200 73000 99200 101000 165000 225000
2020-07-17 08:30 20.35 108000 225000 (2011) 37000 (2006) 81100 37000 38700 42500 43200 73000 99200 101000 165000 225000
2020-07-17 07:30 20.29 108000 225000 (2011) 37000 (2006) 81100 37000 38700 42500 43200 73000 99200 101000 165000 225000
2020-07-17 06:30 20.25 107000 225000 (2011) 37000 (2006) 81100 37000 38700 42500 43200 73000 99200 101000 165000 225000
2020-07-17 05:30 20.19 107000 225000 (2011) 37000 (2006) 81100 37000 38700 42500 43200 73000 99200 101000 165000 225000
2020-07-17 04:30 20.08 106000 225000 (2011) 37000 (2006) 81100 37000 38700 42500 43200 73000 99200 101000 165000 225000
2020-07-17 03:30 19.94 104000 225000 (2011) 37000 (2006) 81100 37000 38700 42500 43200 73000 99200 101000 165000 225000
2020-07-17 02:30 19.84 103000 225000 (2011) 37000 (2006) 81100 37000 38700 42500 43200 73000 99200 101000 165000 225000
2020-07-17 01:30 19.79 103000 225000 (2011) 37000 (2006) 81100 37000 38700 42500 43200 73000 99200 101000 165000 225000
2020-07-17 00:30 19.72 102000 225000 (2011) 37000 (2006) 81100 37000 38700 42500 43200 73000 99200 101000 165000 225000
2020-07-16 23:30 19.59 101000 227000 (2011) 37900 (2006) 83200 37900 39000 43400 43400 74700 98900 101000 167000 227000
2020-07-16 22:30 19.54 101000 227000 (2011) 37900 (2006) 83200 37900 39000 43400 43400 74700 98900 101000 167000 227000
2020-07-16 21:30 19.46 100000 227000 (2011) 37900 (2006) 83200 37900 39000 43400 43400 74700 98900 101000 167000 227000
2020-07-16 20:30 19.32 98800 227000 (2011) 37900 (2006) 83200 37900 39000 43400 43400 74700 98900 101000 167000 227000
2020-07-16 19:30 19.23 98000 227000 (2011) 37900 (2006) 83200 37900 39000 43400 43400 74700 98900 101000 167000 227000
2020-07-16 18:30 19.18 97600 227000 (2011) 37900 (2006) 83200 37900 39000 43400 43400 74700 98900 101000 167000 227000
2020-07-16 17:30 19.08 96700 227000 (2011) 37900 (2006) 83200 37900 39000 43400 43400 74700 98900 101000 167000 227000
2020-07-16 16:30 19.00 96000 227000 (2011) 37900 (2006) 83200 37900 39000 43400 43400 74700 98900 101000 167000 227000
2020-07-16 15:30 18.91 95200 227000 (2011) 37900 (2006) 83200 37900 39000 43400 43400 74700 98900 101000 167000 227000
2020-07-16 14:30 18.79 94200 227000 (2011) 37900 (2006) 83200 37900 39000 43400 43400 74700 98900 101000 167000 227000
2020-07-16 13:30 18.64 92900 227000 (2011) 37900 (2006) 83200 37900 39000 43400 43400 74700 98900 101000 167000 227000
2020-07-16 12:30 18.52 91900 227000 (2011) 37900 (2006) 83200 37900 39000 43400 43400 74700 98900 101000 167000 227000
2020-07-16 11:30 18.37 90700 227000 (2011) 37900 (2006) 83200 37900 39000 43400 43400 74700 98900 101000 167000 227000
2020-07-16 10:30 18.22 89300 227000 (2011) 37900 (2006) 83200 37900 39000 43400 43400 74700 98900 101000 167000 227000
2020-07-16 09:30 18.04 87800 227000 (2011) 37900 (2006) 83200 37900 39000 43400 43400 74700 98900 101000 167000 227000
2020-07-16 08:30 17.92 86700 227000 (2011) 37900 (2006) 83200 37900 39000 43400 43400 74700 98900 101000 167000 227000
2020-07-16 07:30 17.74 85200 227000 (2011) 37900 (2006) 83200 37900 39000 43400 43400 74700 98900 101000 167000 227000
2020-07-16 06:30 17.57 83700 227000 (2011) 37900 (2006) 83200 37900 39000 43400 43400 74700 98900 101000 167000 227000
2020-07-16 05:30 17.39 82200 227000 (2011) 37900 (2006) 83200 37900 39000 43400 43400 74700 98900 101000 167000 227000
2020-07-16 04:30 17.21 80700 227000 (2011) 37900 (2006) 83200 37900 39000 43400 43400 74700 98900 101000 167000 227000
2020-07-16 03:30 17.02 79200 227000 (2011) 37900 (2006) 83200 37900 39000 43400 43400 74700 98900 101000 167000 227000
2020-07-16 02:30 16.85 77800 227000 (2011) 37900 (2006) 83200 37900 39000 43400 43400 74700 98900 101000 167000 227000
2020-07-16 01:30 16.73 76900 227000 (2011) 37900 (2006) 83200 37900 39000 43400 43400 74700 98900 101000 167000 227000
2020-07-16 00:30 16.61 75900 227000 (2011) 37900 (2006) 83200 37900 39000 43400 43400 74700 98900 101000 167000 227000
2020-07-15 23:30 16.49 75000 229000 (2011) 38300 (2006) 86500 38300 39400 43500 43700 79100 103000 107000 169000 229000
2020-07-15 22:30 16.43 74500 229000 (2011) 38300 (2006) 86500 38300 39400 43500 43700 79100 103000 107000 169000 229000
2020-07-15 21:30 16.40 74300 229000 (2011) 38300 (2006) 86500 38300 39400 43500 43700 79100 103000 107000 169000 229000
2020-07-15 20:30 16.36 74000 229000 (2011) 38300 (2006) 86500 38300 39400 43500 43700 79100 103000 107000 169000 229000
2020-07-15 19:30 16.30 73500 229000 (2011) 38300 (2006) 86500 38300 39400 43500 43700 79100 103000 107000 169000 229000
2020-07-15 18:30 16.22 72900 229000 (2011) 38300 (2006) 86500 38300 39400 43500 43700 79100 103000 107000 169000 229000
2020-07-15 17:30 16.19 72700 229000 (2011) 38300 (2006) 86500 38300 39400 43500 43700 79100 103000 107000 169000 229000
2020-07-15 16:30 16.19 72700 229000 (2011) 38300 (2006) 86500 38300 39400 43500 43700 79100 103000 107000 169000 229000
2020-07-15 15:30 16.16 72500 229000 (2011) 38300 (2006) 86500 38300 39400 43500 43700 79100 103000 107000 169000 229000
2020-07-15 14:30 16.17 72500 229000 (2011) 38300 (2006) 86500 38300 39400 43500 43700 79100 103000 107000 169000 229000
2020-07-15 13:30 16.18 72600 229000 (2011) 38300 (2006) 86500 38300 39400 43500 43700 79100 103000 107000 169000 229000
2020-07-15 12:30 16.17 72500 229000 (2011) 38300 (2006) 86500 38300 39400 43500 43700 79100 103000 107000 169000 229000
2020-07-15 11:30 16.14 72300 229000 (2011) 38300 (2006) 86500 38300 39400 43500 43700 79100 103000 107000 169000 229000
2020-07-15 10:30 16.14 72300 229000 (2011) 38300 (2006) 86500 38300 39400 43500 43700 79100 103000 107000 169000 229000
2020-07-15 09:30 16.15 72400 229000 (2011) 38300 (2006) 86500 38300 39400 43500 43700 79100 103000 107000 169000 229000
2020-07-15 08:30 16.14 72300 229000 (2011) 38300 (2006) 86500 38300 39400 43500 43700 79100 103000 107000 169000 229000
2020-07-15 07:30 16.03 71500 229000 (2011) 38300 (2006) 86500 38300 39400 43500 43700 79100 103000 107000 169000 229000
2020-07-15 06:30 15.93 70800 229000 (2011) 38300 (2006) 86500 38300 39400 43500 43700 79100 103000 107000 169000 229000
2020-07-15 05:30 15.96 71000 229000 (2011) 38300 (2006) 86500 38300 39400 43500 43700 79100 103000 107000 169000 229000
2020-07-15 04:30 15.84 70100 229000 (2011) 38300 (2006) 86500 38300 39400 43500 43700 79100 103000 107000 169000 229000
2020-07-15 03:30 15.81 69900 229000 (2011) 38300 (2006) 86500 38300 39400 43500 43700 79100 103000 107000 169000 229000
2020-07-15 02:30 15.82 70000 229000 (2011) 38300 (2006) 86500 38300 39400 43500 43700 79100 103000 107000 169000 229000
2020-07-15 01:30 15.78 69700 229000 (2011) 38300 (2006) 86500 38300 39400 43500 43700 79100 103000 107000 169000 229000
2020-07-15 00:30 15.82 70000 229000 (2011) 38300 (2006) 86500 38300 39400 43500 43700 79100 103000 107000 169000 229000
2020-07-14 23:30 15.79 69700 231000 (2011) 38700 (2006) 88400 38700 40800 43200 44000 84500 104000 113000 172000 231000
2020-07-14 22:30 15.78 69700 231000 (2011) 38700 (2006) 88400 38700 40800 43200 44000 84500 104000 113000 172000 231000
2020-07-14 21:30 15.77 69600 231000 (2011) 38700 (2006) 88400 38700 40800 43200 44000 84500 104000 113000 172000 231000
2020-07-14 20:30 15.76 69500 231000 (2011) 38700 (2006) 88400 38700 40800 43200 44000 84500 104000 113000 172000 231000
2020-07-14 19:30 15.77 69600 231000 (2011) 38700 (2006) 88400 38700 40800 43200 44000 84500 104000 113000 172000 231000
2020-07-14 18:30 15.75 69400 231000 (2011) 38700 (2006) 88400 38700 40800 43200 44000 84500 104000 113000 172000 231000
2020-07-14 17:30 15.77 69600 231000 (2011) 38700 (2006) 88400 38700 40800 43200 44000 84500 104000 113000 172000 231000
2020-07-14 16:30 15.83 70000 231000 (2011) 38700 (2006) 88400 38700 40800 43200 44000 84500 104000 113000 172000 231000
2020-07-14 15:30 15.81 69900 231000 (2011) 38700 (2006) 88400 38700 40800 43200 44000 84500 104000 113000 172000 231000
2020-07-14 14:30 15.78 69700 231000 (2011) 38700 (2006) 88400 38700 40800 43200 44000 84500 104000 113000 172000 231000
2020-07-14 13:30 15.78 69700 231000 (2011) 38700 (2006) 88400 38700 40800 43200 44000 84500 104000 113000 172000 231000
2020-07-14 12:30 15.73 69300 231000 (2011) 38700 (2006) 88400 38700 40800 43200 44000 84500 104000 113000 172000 231000
2020-07-14 11:30 15.77 69600 231000 (2011) 38700 (2006) 88400 38700 40800 43200 44000 84500 104000 113000 172000 231000
2020-07-14 10:30 15.75 69400 231000 (2011) 38700 (2006) 88400 38700 40800 43200 44000 84500 104000 113000 172000 231000
2020-07-14 09:30 15.74 69400 231000 (2011) 38700 (2006) 88400 38700 40800 43200 44000 84500 104000 113000 172000 231000
2020-07-14 08:30 15.72 69200 231000 (2011) 38700 (2006) 88400 38700 40800 43200 44000 84500 104000 113000 172000 231000
2020-07-14 07:30 15.76 69500 231000 (2011) 38700 (2006) 88400 38700 40800 43200 44000 84500 104000 113000 172000 231000
2020-07-14 06:30 15.77 69600 231000 (2011) 38700 (2006) 88400 38700 40800 43200 44000 84500 104000 113000 172000 231000
2020-07-14 05:30 15.75 69400 231000 (2011) 38700 (2006) 88400 38700 40800 43200 44000 84500 104000 113000 172000 231000
2020-07-14 04:30 15.76 69500 231000 (2011) 38700 (2006) 88400 38700 40800 43200 44000 84500 104000 113000 172000 231000
2020-07-14 03:30 15.70 69100 231000 (2011) 38700 (2006) 88400 38700 40800 43200 44000 84500 104000 113000 172000 231000
2020-07-14 02:30 15.70 69100 231000 (2011) 38700 (2006) 88400 38700 40800 43200 44000 84500 104000 113000 172000 231000
2020-07-14 01:30 15.68 68900 231000 (2011) 38700 (2006) 88400 38700 40800 43200 44000 84500 104000 113000 172000 231000
2020-07-14 00:30 15.69 69000 231000 (2011) 38700 (2006) 88400 38700 40800 43200 44000 84500 104000 113000 172000 231000
2020-07-13 23:30 15.71 69200 232000 (2011) 36000 (2006) 87700 36000 41600 43300 44500 75000 105000 126000 175000 232000
2020-07-13 22:30 15.69 69000 232000 (2011) 36000 (2006) 87700 36000 41600 43300 44500 75000 105000 126000 175000 232000
2020-07-13 21:30 15.70 69100 232000 (2011) 36000 (2006) 87700 36000 41600 43300 44500 75000 105000 126000 175000 232000
2020-07-13 20:30 15.69 69000 232000 (2011) 36000 (2006) 87700 36000 41600 43300 44500 75000 105000 126000 175000 232000
2020-07-13 19:30 15.69 69000 232000 (2011) 36000 (2006) 87700 36000 41600 43300 44500 75000 105000 126000 175000 232000
2020-07-13 18:30 15.64 68600 232000 (2011) 36000 (2006) 87700 36000 41600 43300 44500 75000 105000 126000 175000 232000
2020-07-13 17:30 15.66 68800 232000 (2011) 36000 (2006) 87700 36000 41600 43300 44500 75000 105000 126000 175000 232000
2020-07-13 16:30 15.68 68900 232000 (2011) 36000 (2006) 87700 36000 41600 43300 44500 75000 105000 126000 175000 232000
2020-07-13 15:30 15.69 69000 232000 (2011) 36000 (2006) 87700 36000 41600 43300 44500 75000 105000 126000 175000 232000
2020-07-13 14:30 15.70 69100 232000 (2011) 36000 (2006) 87700 36000 41600 43300 44500 75000 105000 126000 175000 232000
2020-07-13 13:30 15.74 69400 232000 (2011) 36000 (2006) 87700 36000 41600 43300 44500 75000 105000 126000 175000 232000
2020-07-13 12:30 15.75 69400 232000 (2011) 36000 (2006) 87700 36000 41600 43300 44500 75000 105000 126000 175000 232000
2020-07-13 11:30 15.73 69300 232000 (2011) 36000 (2006) 87700 36000 41600 43300 44500 75000 105000 126000 175000 232000
2020-07-13 10:30 15.76 69500 232000 (2011) 36000 (2006) 87700 36000 41600 43300 44500 75000 105000 126000 175000 232000
2020-07-13 09:30 15.77 69600 232000 (2011) 36000 (2006) 87700 36000 41600 43300 44500 75000 105000 126000 175000 232000
2020-07-13 08:30 15.81 69900 232000 (2011) 36000 (2006) 87700 36000 41600 43300 44500 75000 105000 126000 175000 232000
2020-07-13 07:30 15.87 70300 232000 (2011) 36000 (2006) 87700 36000 41600 43300 44500 75000 105000 126000 175000 232000
2020-07-13 06:30 15.90 70500 232000 (2011) 36000 (2006) 87700 36000 41600 43300 44500 75000 105000 126000 175000 232000
2020-07-13 05:30 15.89 70500 232000 (2011) 36000 (2006) 87700 36000 41600 43300 44500 75000 105000 126000 175000 232000
2020-07-13 04:30 15.86 70200 232000 (2011) 36000 (2006) 87700 36000 41600 43300 44500 75000 105000 126000 175000 232000
2020-07-13 03:30 15.93 70800 232000 (2011) 36000 (2006) 87700 36000 41600 43300 44500 75000 105000 126000 175000 232000
2020-07-13 02:30 15.94 70800 232000 (2011) 36000 (2006) 87700 36000 41600 43300 44500 75000 105000 126000 175000 232000
2020-07-13 01:30 15.98 71100 232000 (2011) 36000 (2006) 87700 36000 41600 43300 44500 75000 105000 126000 175000 232000
2020-07-13 00:30 16.00 71300 232000 (2011) 36000 (2006) 87700 36000 41600 43300 44500 75000 105000 126000 175000 232000
2020-07-12 23:30 16.02 71400 232000 (2011) 35500 (2006) 85800 35500 38400 44400 45500 73700 107000 122000 179000 232000
2020-07-12 22:30 16.04 71600 232000 (2011) 35500 (2006) 85800 35500 38400 44400 45500 73700 107000 122000 179000 232000
2020-07-12 21:30 16.06 71700 232000 (2011) 35500 (2006) 85800 35500 38400 44400 45500 73700 107000 122000 179000 232000
2020-07-12 20:30 16.04 71600 232000 (2011) 35500 (2006) 85800 35500 38400 44400 45500 73700 107000 122000 179000 232000
2020-07-12 19:30 16.06 71700 232000 (2011) 35500 (2006) 85800 35500 38400 44400 45500 73700 107000 122000 179000 232000
2020-07-12 18:30 16.07 71800 232000 (2011) 35500 (2006) 85800 35500 38400 44400 45500 73700 107000 122000 179000 232000
2020-07-12 17:30 16.08 71900 232000 (2011) 35500 (2006) 85800 35500 38400 44400 45500 73700 107000 122000 179000 232000
2020-07-12 16:30 16.15 72400 232000 (2011) 35500 (2006) 85800 35500 38400 44400 45500 73700 107000 122000 179000 232000
2020-07-12 15:30 16.14 72300 232000 (2011) 35500 (2006) 85800 35500 38400 44400 45500 73700 107000 122000 179000 232000
2020-07-12 14:30 16.21 72800 232000 (2011) 35500 (2006) 85800 35500 38400 44400 45500 73700 107000 122000 179000 232000
2020-07-12 13:30 16.18 72600 232000 (2011) 35500 (2006) 85800 35500 38400 44400 45500 73700 107000 122000 179000 232000
2020-07-12 12:30 16.17 72500 232000 (2011) 35500 (2006) 85800 35500 38400 44400 45500 73700 107000 122000 179000 232000
2020-07-12 11:30 16.21 72800 232000 (2011) 35500 (2006) 85800 35500 38400 44400 45500 73700 107000 122000 179000 232000
2020-07-12 10:30 16.20 72800 232000 (2011) 35500 (2006) 85800 35500 38400 44400 45500 73700 107000 122000 179000 232000
2020-07-12 09:30 16.23 73000 232000 (2011) 35500 (2006) 85800 35500 38400 44400 45500 73700 107000 122000 179000 232000
2020-07-12 08:30 16.26 73200 232000 (2011) 35500 (2006) 85800 35500 38400 44400 45500 73700 107000 122000 179000 232000
2020-07-12 07:30 16.30 73500 232000 (2011) 35500 (2006) 85800 35500 38400 44400 45500 73700 107000 122000 179000 232000
2020-07-12 06:30 16.32 73700 232000 (2011) 35500 (2006) 85800 35500 38400 44400 45500 73700 107000 122000 179000 232000
2020-07-12 05:30 16.32 73700 232000 (2011) 35500 (2006) 85800 35500 38400 44400 45500 73700 107000 122000 179000 232000
2020-07-12 04:30 16.32 73700 232000 (2011) 35500 (2006) 85800 35500 38400 44400 45500 73700 107000 122000 179000 232000
2020-07-12 03:30 16.34 73800 232000 (2011) 35500 (2006) 85800 35500 38400 44400 45500 73700 107000 122000 179000 232000
2020-07-12 02:30 16.32 73700 232000 (2011) 35500 (2006) 85800 35500 38400 44400 45500 73700 107000 122000 179000 232000
2020-07-12 01:30 16.35 73900 232000 (2011) 35500 (2006) 85800 35500 38400 44400 45500 73700 107000 122000 179000 232000
2020-07-12 00:30 16.35 73900 232000 (2011) 35500 (2006) 85800 35500 38400 44400 45500 73700 107000 122000 179000 232000
2020-07-11 23:30 16.36 74000 238000 (2011) 34500 (2006) 87300 34500 37700 44800 46600 71100 108000 118000 184000 238000
2020-07-11 22:30 16.37 74100 238000 (2011) 34500 (2006) 87300 34500 37700 44800 46600 71100 108000 118000 184000 238000
2020-07-11 21:30 16.32 73700 238000 (2011) 34500 (2006) 87300 34500 37700 44800 46600 71100 108000 118000 184000 238000
2020-07-11 20:30 16.34 73800 238000 (2011) 34500 (2006) 87300 34500 37700 44800 46600 71100 108000 118000 184000 238000
2020-07-11 19:30 16.29 73500 238000 (2011) 34500 (2006) 87300 34500 37700 44800 46600 71100 108000 118000 184000 238000
2020-07-11 18:30 16.34 73800 238000 (2011) 34500 (2006) 87300 34500 37700 44800 46600 71100 108000 118000 184000 238000
2020-07-11 17:30 16.34 73800 238000 (2011) 34500 (2006) 87300 34500 37700 44800 46600 71100 108000 118000 184000 238000
2020-07-11 16:30 16.32 73700 238000 (2011) 34500 (2006) 87300 34500 37700 44800 46600 71100 108000 118000 184000 238000
2020-07-11 15:30 16.36 74000 238000 (2011) 34500 (2006) 87300 34500 37700 44800 46600 71100 108000 118000 184000 238000
2020-07-11 14:30 16.37 74100 238000 (2011) 34500 (2006) 87300 34500 37700 44800 46600 71100 108000 118000 184000 238000
2020-07-11 13:30 16.40 74300 238000 (2011) 34500 (2006) 87300 34500 37700 44800 46600 71100 108000 118000 184000 238000
2020-07-11 12:30 16.37 74100 238000 (2011) 34500 (2006) 87300 34500 37700 44800 46600 71100 108000 118000 184000 238000
2020-07-11 11:30 16.38 74100 238000 (2011) 34500 (2006) 87300 34500 37700 44800 46600 71100 108000 118000 184000 238000
2020-07-11 10:30 16.39 74200 238000 (2011) 34500 (2006) 87300 34500 37700 44800 46600 71100 108000 118000 184000 238000
2020-07-11 09:30 16.40 74300 238000 (2011) 34500 (2006) 87300 34500 37700 44800 46600 71100 108000 118000 184000 238000
2020-07-11 08:30 16.40 74300 238000 (2011) 34500 (2006) 87300 34500 37700 44800 46600 71100 108000 118000 184000 238000
2020-07-11 07:30 16.42 74400 238000 (2011) 34500 (2006) 87300 34500 37700 44800 46600 71100 108000 118000 184000 238000
2020-07-11 06:30 16.48 74900 238000 (2011) 34500 (2006) 87300 34500 37700 44800 46600 71100 108000 118000 184000 238000
2020-07-11 05:30 16.50 75100 238000 (2011) 34500 (2006) 87300 34500 37700 44800 46600 71100 108000 118000 184000 238000
2020-07-11 04:30 16.54 75400 238000 (2011) 34500 (2006) 87300 34500 37700 44800 46600 71100 108000 118000 184000 238000
2020-07-11 03:30 16.56 75500 238000 (2011) 34500 (2006) 87300 34500 37700 44800 46600 71100 108000 118000 184000 238000
2020-07-11 02:30 16.57 75600 238000 (2011) 34500 (2006) 87300 34500 37700 44800 46600 71100 108000 118000 184000 238000
2020-07-11 01:30 16.58 75700 238000 (2011) 34500 (2006) 87300 34500 37700 44800 46600 71100 108000 118000 184000 238000
2020-07-11 00:30 16.58 75700 238000 (2011) 34500 (2006) 87300 34500 37700 44800 46600 71100 108000 118000 184000 238000
2020-07-10 23:30 16.62 76000 240000 (2011) 34300 (2006) 91400 34300 37800 47200 47500 73400 119000 144000 186000 240000
2020-07-10 22:30 16.63 76100 240000 (2011) 34300 (2006) 91400 34300 37800 47200 47500 73400 119000 144000 186000 240000
2020-07-10 21:30 16.69 76500 240000 (2011) 34300 (2006) 91400 34300 37800 47200 47500 73400 119000 144000 186000 240000
2020-07-10 20:30 16.70 76600 240000 (2011) 34300 (2006) 91400 34300 37800 47200 47500 73400 119000 144000 186000 240000
2020-07-10 19:30 16.70 76600 240000 (2011) 34300 (2006) 91400 34300 37800 47200 47500 73400 119000 144000 186000 240000
2020-07-10 18:30 16.71 76700 240000 (2011) 34300 (2006) 91400 34300 37800 47200 47500 73400 119000 144000 186000 240000
2020-07-10 17:30 16.71 76700 240000 (2011) 34300 (2006) 91400 34300 37800 47200 47500 73400 119000 144000 186000 240000
2020-07-10 16:30 16.70 76600 240000 (2011) 34300 (2006) 91400 34300 37800 47200 47500 73400 119000 144000 186000 240000
2020-07-10 15:30 16.75 77000 240000 (2011) 34300 (2006) 91400 34300 37800 47200 47500 73400 119000 144000 186000 240000
2020-07-10 14:30 16.73 76900 240000 (2011) 34300 (2006) 91400 34300 37800 47200 47500 73400 119000 144000 186000 240000
2020-07-10 13:30 16.76 77100 240000 (2011) 34300 (2006) 91400 34300 37800 47200 47500 73400 119000 144000 186000 240000
2020-07-10 12:30 16.76 77100 240000 (2011) 34300 (2006) 91400 34300 37800 47200 47500 73400 119000 144000 186000 240000
2020-07-10 11:30 16.75 77000 240000 (2011) 34300 (2006) 91400 34300 37800 47200 47500 73400 119000 144000 186000 240000
2020-07-10 10:30 16.78 77300 240000 (2011) 34300 (2006) 91400 34300 37800 47200 47500 73400 119000 144000 186000 240000
2020-07-10 09:30 16.79 77300 240000 (2011) 34300 (2006) 91400 34300 37800 47200 47500 73400 119000 144000 186000 240000
2020-07-10 08:30 16.79 77300 240000 (2011) 34300 (2006) 91400 34300 37800 47200 47500 73400 119000 144000 186000 240000
2020-07-10 07:30 16.80 77400 240000 (2011) 34300 (2006) 91400 34300 37800 47200 47500 73400 119000 144000 186000 240000
2020-07-10 06:30 16.81 77500 240000 (2011) 34300 (2006) 91400 34300 37800 47200 47500 73400 119000 144000 186000 240000
2020-07-10 05:30 16.84 77700 240000 (2011) 34300 (2006) 91400 34300 37800 47200 47500 73400 119000 144000 186000 240000
2020-07-10 04:30 16.87 78000 240000 (2011) 34300 (2006) 91400 34300 37800 47200 47500 73400 119000 144000 186000 240000
2020-07-10 03:30 16.87 78000 240000 (2011) 34300 (2006) 91400 34300 37800 47200 47500 73400 119000 144000 186000 240000
2020-07-10 02:30 16.88 78000 240000 (2011) 34300 (2006) 91400 34300 37800 47200 47500 73400 119000 144000 186000 240000
2020-07-10 01:30 16.91 78300 240000 (2011) 34300 (2006) 91400 34300 37800 47200 47500 73400 119000 144000 186000 240000
2020-07-10 00:30 16.92 78400 240000 (2011) 34300 (2006) 91400 34300 37800 47200 47500 73400 119000 144000 186000 240000
2020-07-09 23:30 16.92 78400 244000 (2011) 34800 (2006) 97200 34800 37900 44800 49300 78100 138000 178000 204000 244000
2020-07-09 22:30 16.92 78400 244000 (2011) 34800 (2006) 97200 34800 37900 44800 49300 78100 138000 178000 204000 244000
2020-07-09 21:30 16.95 78600 244000 (2011) 34800 (2006) 97200 34800 37900 44800 49300 78100 138000 178000 204000 244000
2020-07-09 20:30 16.98 78900 244000 (2011) 34800 (2006) 97200 34800 37900 44800 49300 78100 138000 178000 204000 244000
2020-07-09 19:30 16.97 78800 244000 (2011) 34800 (2006) 97200 34800 37900 44800 49300 78100 138000 178000 204000 244000
2020-07-09 18:30 16.96 78700 244000 (2011) 34800 (2006) 97200 34800 37900 44800 49300 78100 138000 178000 204000 244000
2020-07-09 17:30 16.96 78700 244000 (2011) 34800 (2006) 97200 34800 37900 44800 49300 78100 138000 178000 204000 244000
2020-07-09 16:30 16.99 78900 244000 (2011) 34800 (2006) 97200 34800 37900 44800 49300 78100 138000 178000 204000 244000
2020-07-09 15:30 16.98 78900 244000 (2011) 34800 (2006) 97200 34800 37900 44800 49300 78100 138000 178000 204000 244000
2020-07-09 14:30 16.98 78900 244000 (2011) 34800 (2006) 97200 34800 37900 44800 49300 78100 138000 178000 204000 244000
2020-07-09 13:30 16.99 78900 244000 (2011) 34800 (2006) 97200 34800 37900 44800 49300 78100 138000 178000 204000 244000
2020-07-09 12:30 16.98 78900 244000 (2011) 34800 (2006) 97200 34800 37900 44800 49300 78100 138000 178000 204000 244000
2020-07-09 11:30 16.99 78900 244000 (2011) 34800 (2006) 97200 34800 37900 44800 49300 78100 138000 178000 204000 244000
2020-07-09 10:30 16.99 78900 244000 (2011) 34800 (2006) 97200 34800 37900 44800 49300 78100 138000 178000 204000 244000
2020-07-09 09:30 17.04 79300 244000 (2011) 34800 (2006) 97200 34800 37900 44800 49300 78100 138000 178000 204000 244000
2020-07-09 08:30 17.08 79700 244000 (2011) 34800 (2006) 97200 34800 37900 44800 49300 78100 138000 178000 204000 244000
2020-07-09 07:30 17.06 79500 244000 (2011) 34800 (2006) 97200 34800 37900 44800 49300 78100 138000 178000 204000 244000
2020-07-09 06:30 17.04 79300 244000 (2011) 34800 (2006) 97200 34800 37900 44800 49300 78100 138000 178000 204000 244000
2020-07-09 05:30 17.08 79700 244000 (2011) 34800 (2006) 97200 34800 37900 44800 49300 78100 138000 178000 204000 244000
2020-07-09 04:30 17.06 79500 244000 (2011) 34800 (2006) 97200 34800 37900 44800 49300 78100 138000 178000 204000 244000
2020-07-09 03:30 17.08 79700 244000 (2011) 34800 (2006) 97200 34800 37900 44800 49300 78100 138000 178000 204000 244000
2020-07-09 02:30 17.07 79600 244000 (2011) 34800 (2006) 97200 34800 37900 44800 49300 78100 138000 178000 204000 244000
2020-07-09 01:30 17.05 79400 244000 (2011) 34800 (2006) 97200 34800 37900 44800 49300 78100 138000 178000 204000 244000
2020-07-09 00:30 17.07 79600 244000 (2011) 34800 (2006) 97200 34800 37900 44800 49300 78100 138000 178000 204000 244000
2020-07-08 23:30 17.09 79700 240000 (2011) 35300 (2006) 98800 35300 38200 46100 51600 84100 126000 161000 214000 240000
2020-07-08 22:30 17.09 79700 240000 (2011) 35300 (2006) 98800 35300 38200 46100 51600 84100 126000 161000 214000 240000
2020-07-08 21:30 17.11 79900 240000 (2011) 35300 (2006) 98800 35300 38200 46100 51600 84100 126000 161000 214000 240000
2020-07-08 20:30 17.13 80100 240000 (2011) 35300 (2006) 98800 35300 38200 46100 51600 84100 126000 161000 214000 240000
2020-07-08 19:30 17.13 80100 240000 (2011) 35300 (2006) 98800 35300 38200 46100 51600 84100 126000 161000 214000 240000
2020-07-08 18:30 17.13 80100 240000 (2011) 35300 (2006) 98800 35300 38200 46100 51600 84100 126000 161000 214000 240000
2020-07-08 17:30 17.18 80500 240000 (2011) 35300 (2006) 98800 35300 38200 46100 51600 84100 126000 161000 214000 240000
2020-07-08 16:30 17.16 80300 240000 (2011) 35300 (2006) 98800 35300 38200 46100 51600 84100 126000 161000 214000 240000
2020-07-08 15:30 17.18 80500 240000 (2011) 35300 (2006) 98800 35300 38200 46100 51600 84100 126000 161000 214000 240000
2020-07-08 14:30 17.18 80500 240000 (2011) 35300 (2006) 98800 35300 38200 46100 51600 84100 126000 161000 214000 240000
2020-07-08 13:30 17.19 80600 240000 (2011) 35300 (2006) 98800 35300 38200 46100 51600 84100 126000 161000 214000 240000
2020-07-08 12:30 17.18 80500 240000 (2011) 35300 (2006) 98800 35300 38200 46100 51600 84100 126000 161000 214000 240000
2020-07-08 11:30 17.20 80600 240000 (2011) 35300 (2006) 98800 35300 38200 46100 51600 84100 126000 161000 214000 240000
2020-07-08 10:30 17.18 80500 240000 (2011) 35300 (2006) 98800 35300 38200 46100 51600 84100 126000 161000 214000 240000
2020-07-08 09:30 17.20 80600 240000 (2011) 35300 (2006) 98800 35300 38200 46100 51600 84100 126000 161000 214000 240000
2020-07-08 08:30 17.19 80600 240000 (2011) 35300 (2006) 98800 35300 38200 46100 51600 84100 126000 161000 214000 240000
2020-07-08 07:30 17.26 81100 240000 (2011) 35300 (2006) 98800 35300 38200 46100 51600 84100 126000 161000 214000 240000
2020-07-08 06:30 17.30 81500 240000 (2011) 35300 (2006) 98800 35300 38200 46100 51600 84100 126000 161000 214000 240000
2020-07-08 05:30 17.32 81600 240000 (2011) 35300 (2006) 98800 35300 38200 46100 51600 84100 126000 161000 214000 240000
2020-07-08 04:30 17.33 81700 240000 (2011) 35300 (2006) 98800 35300 38200 46100 51600 84100 126000 161000 214000 240000
2020-07-08 03:30 17.38 82100 240000 (2011) 35300 (2006) 98800 35300 38200 46100 51600 84100 126000 161000 214000 240000
2020-07-08 02:30 17.40 82300 240000 (2011) 35300 (2006) 98800 35300 38200 46100 51600 84100 126000 161000 214000 240000
2020-07-08 01:30 17.41 82400 240000 (2011) 35300 (2006) 98800 35300 38200 46100 51600 84100 126000 161000 214000 240000
2020-07-08 00:30 17.42 82500 240000 (2011) 35300 (2006) 98800 35300 38200 46100 51600 84100 126000 161000 214000 240000
2020-07-07 23:30 17.45 82700 238000 (2011) 36200 (2006) 96900 36200 38800 47700 53000 85500 108000 131000 207000 238000
2020-07-07 22:30 17.46 82800 238000 (2011) 36200 (2006) 96900 36200 38800 47700 53000 85500 108000 131000 207000 238000
2020-07-07 21:30 17.48 83000 238000 (2011) 36200 (2006) 96900 36200 38800 47700 53000 85500 108000 131000 207000 238000
2020-07-07 20:30 17.50 83100 238000 (2011) 36200 (2006) 96900 36200 38800 47700 53000 85500 108000 131000 207000 238000
2020-07-07 19:30 17.55 83500 238000 (2011) 36200 (2006) 96900 36200 38800 47700 53000 85500 108000 131000 207000 238000
2020-07-07 18:30 17.52 83300 238000 (2011) 36200 (2006) 96900 36200 38800 47700 53000 85500 108000 131000 207000 238000
2020-07-07 17:30 17.55 83500 238000 (2011) 36200 (2006) 96900 36200 38800 47700 53000 85500 108000 131000 207000 238000
2020-07-07 16:30 17.62 84100 238000 (2011) 36200 (2006) 96900 36200 38800 47700 53000 85500 108000 131000 207000 238000
2020-07-07 15:30 17.60 84000 238000 (2011) 36200 (2006) 96900 36200 38800 47700 53000 85500 108000 131000 207000 238000
2020-07-07 14:30 17.66 84500 238000 (2011) 36200 (2006) 96900 36200 38800 47700 53000 85500 108000 131000 207000 238000
2020-07-07 13:30 17.69 84700 238000 (2011) 36200 (2006) 96900 36200 38800 47700 53000 85500 108000 131000 207000 238000
2020-07-07 12:30 17.72 85000 238000 (2011) 36200 (2006) 96900 36200 38800 47700 53000 85500 108000 131000 207000 238000
2020-07-07 11:30 17.72 85000 238000 (2011) 36200 (2006) 96900 36200 38800 47700 53000 85500 108000 131000 207000 238000
2020-07-07 10:30 17.72 85000 238000 (2011) 36200 (2006) 96900 36200 38800 47700 53000 85500 108000 131000 207000 238000
2020-07-07 09:30 17.77 85400 238000 (2011) 36200 (2006) 96900 36200 38800 47700 53000 85500 108000 131000 207000 238000
2020-07-07 08:30 17.77 85400 238000 (2011) 36200 (2006) 96900 36200 38800 47700 53000 85500 108000 131000 207000 238000
2020-07-07 07:30 17.80 85700 238000 (2011) 36200 (2006) 96900 36200 38800 47700 53000 85500 108000 131000 207000 238000
2020-07-07 06:30 17.87 86300 238000 (2011) 36200 (2006) 96900 36200 38800 47700 53000 85500 108000 131000 207000 238000
2020-07-07 05:30 17.89 86400 238000 (2011) 36200 (2006) 96900 36200 38800 47700 53000 85500 108000 131000 207000 238000
2020-07-07 04:30 17.93 86800 238000 (2011) 36200 (2006) 96900 36200 38800 47700 53000 85500 108000 131000 207000 238000
2020-07-07 03:30 17.96 87100 238000 (2011) 36200 (2006) 96900 36200 38800 47700 53000 85500 108000 131000 207000 238000
2020-07-07 02:30 17.98 87200 238000 (2011) 36200 (2006) 96900 36200 38800 47700 53000 85500 108000 131000 207000 238000
2020-07-07 01:30 18.02 87600 238000 (2011) 36200 (2006) 96900 36200 38800 47700 53000 85500 108000 131000 207000 238000
2020-07-07 00:30 18.08 88100 238000 (2011) 36200 (2006) 96900 36200 38800 47700 53000 85500 108000 131000 207000 238000
2020-07-06 23:30 18.11 88400 238000 (2011) 37700 (2006) 97200 37700 40100 48900 55300 85600 113000 136000 201000 238000
2020-07-06 22:30 18.15 88700 238000 (2011) 37700 (2006) 97200 37700 40100 48900 55300 85600 113000 136000 201000 238000
2020-07-06 21:30 18.18 89000 238000 (2011) 37700 (2006) 97200 37700 40100 48900 55300 85600 113000 136000 201000 238000
2020-07-06 20:30 18.24 89500 238000 (2011) 37700 (2006) 97200 37700 40100 48900 55300 85600 113000 136000 201000 238000
2020-07-06 19:30 18.24 89500 238000 (2011) 37700 (2006) 97200 37700 40100 48900 55300 85600 113000 136000 201000 238000
2020-07-06 18:30 18.26 89700 238000 (2011) 37700 (2006) 97200 37700 40100 48900 55300 85600 113000 136000 201000 238000
2020-07-06 17:30 18.31 90100 238000 (2011) 37700 (2006) 97200 37700 40100 48900 55300 85600 113000 136000 201000 238000
2020-07-06 16:30 18.31 90100 238000 (2011) 37700 (2006) 97200 37700 40100 48900 55300 85600 113000 136000 201000 238000
2020-07-06 15:30 18.32 90200 238000 (2011) 37700 (2006) 97200 37700 40100 48900 55300 85600 113000 136000 201000 238000
2020-07-06 14:30 18.36 90600 238000 (2011) 37700 (2006) 97200 37700 40100 48900 55300 85600 113000 136000 201000 238000
2020-07-06 13:30 18.42 91100 238000 (2011) 37700 (2006) 97200 37700 40100 48900 55300 85600 113000 136000 201000 238000
2020-07-06 12:30 18.45 91300 238000 (2011) 37700 (2006) 97200 37700 40100 48900 55300 85600 113000 136000 201000 238000
2020-07-06 11:30 18.49 91700 238000 (2011) 37700 (2006) 97200 37700 40100 48900 55300 85600 113000 136000 201000 238000
2020-07-06 10:30 18.50 91700 238000 (2011) 37700 (2006) 97200 37700 40100 48900 55300 85600 113000 136000 201000 238000
2020-07-06 09:30 18.55 92200 238000 (2011) 37700 (2006) 97200 37700 40100 48900 55300 85600 113000 136000 201000 238000
2020-07-06 08:30 18.60 92600 238000 (2011) 37700 (2006) 97200 37700 40100 48900 55300 85600 113000 136000 201000 238000
2020-07-06 07:30 18.63 92800 238000 (2011) 37700 (2006) 97200 37700 40100 48900 55300 85600 113000 136000 201000 238000
2020-07-06 06:30 18.67 93200 238000 (2011) 37700 (2006) 97200 37700 40100 48900 55300 85600 113000 136000 201000 238000
2020-07-06 05:30 18.73 93700 238000 (2011) 37700 (2006) 97200 37700 40100 48900 55300 85600 113000 136000 201000 238000
2020-07-06 04:30 18.77 94000 238000 (2011) 37700 (2006) 97200 37700 40100 48900 55300 85600 113000 136000 201000 238000
2020-07-06 03:30 18.81 94400 238000 (2011) 37700 (2006) 97200 37700 40100 48900 55300 85600 113000 136000 201000 238000
2020-07-06 02:30 18.81 94400 238000 (2011) 37700 (2006) 97200 37700 40100 48900 55300 85600 113000 136000 201000 238000
2020-07-06 01:30 18.85 94700 238000 (2011) 37700 (2006) 97200 37700 40100 48900 55300 85600 113000 136000 201000 238000
2020-07-06 00:30 18.89 95000 238000 (2011) 37700 (2006) 97200 37700 40100 48900 55300 85600 113000 136000 201000 238000
2020-07-05 23:30 18.92 95300 239000 (2011) 36900 (2006) 101000 36900 40300 50200 56700 91100 138000 143000 207000 239000
2020-07-05 22:30 18.94 95500 239000 (2011) 36900 (2006) 101000 36900 40300 50200 56700 91100 138000 143000 207000 239000
2020-07-05 21:30 18.98 95800 239000 (2011) 36900 (2006) 101000 36900 40300 50200 56700 91100 138000 143000 207000 239000
2020-07-05 20:30 19.03 96300 239000 (2011) 36900 (2006) 101000 36900 40300 50200 56700 91100 138000 143000 207000 239000
2020-07-05 19:30 19.03 96300 239000 (2011) 36900 (2006) 101000 36900 40300 50200 56700 91100 138000 143000 207000 239000
2020-07-05 18:30 19.11 97000 239000 (2011) 36900 (2006) 101000 36900 40300 50200 56700 91100 138000 143000 207000 239000
2020-07-05 17:30 19.12 97000 239000 (2011) 36900 (2006) 101000 36900 40300 50200 56700 91100 138000 143000 207000 239000
2020-07-05 16:30 19.12 97000 239000 (2011) 36900 (2006) 101000 36900 40300 50200 56700 91100 138000 143000 207000 239000
2020-07-05 15:30 19.14 97200 239000 (2011) 36900 (2006) 101000 36900 40300 50200 56700 91100 138000 143000 207000 239000
2020-07-05 14:30 19.16 97400 239000 (2011) 36900 (2006) 101000 36900 40300 50200 56700 91100 138000 143000 207000 239000
2020-07-05 13:30 19.19 97700 239000 (2011) 36900 (2006) 101000 36900 40300 50200 56700 91100 138000 143000 207000 239000
2020-07-05 12:30 19.19 97700 239000 (2011) 36900 (2006) 101000 36900 40300 50200 56700 91100 138000 143000 207000 239000
2020-07-05 11:30 19.24 98100 239000 (2011) 36900 (2006) 101000 36900 40300 50200 56700 91100 138000 143000 207000 239000
2020-07-05 10:30 19.23 98000 239000 (2011) 36900 (2006) 101000 36900 40300 50200 56700 91100 138000 143000 207000 239000
2020-07-05 09:30 19.24 98100 239000 (2011) 36900 (2006) 101000 36900 40300 50200 56700 91100 138000 143000 207000 239000
2020-07-05 08:30 19.28 98400 239000 (2011) 36900 (2006) 101000 36900 40300 50200 56700 91100 138000 143000 207000 239000
2020-07-05 07:30 19.32 98800 239000 (2011) 36900 (2006) 101000 36900 40300 50200 56700 91100 138000 143000 207000 239000
2020-07-05 06:30 19.33 98900 239000 (2011) 36900 (2006) 101000 36900 40300 50200 56700 91100 138000 143000 207000 239000
2020-07-05 05:30 19.32 98800 239000 (2011) 36900 (2006) 101000 36900 40300 50200 56700 91100 138000 143000 207000 239000
2020-07-05 04:30 19.34 99000 239000 (2011) 36900 (2006) 101000 36900 40300 50200 56700 91100 138000 143000 207000 239000
2020-07-05 03:30 19.36 99100 239000 (2011) 36900 (2006) 101000 36900 40300 50200 56700 91100 138000 143000 207000 239000
2020-07-05 02:30 19.37 99200 239000 (2011) 36900 (2006) 101000 36900 40300 50200 56700 91100 138000 143000 207000 239000
2020-07-05 01:30 19.40 99500 239000 (2011) 36900 (2006) 101000 36900 40300 50200 56700 91100 138000 143000 207000 239000
2020-07-05 00:30 19.41 99600 239000 (2011) 36900 (2006) 101000 36900 40300 50200 56700 91100 138000 143000 207000 239000
2020-07-04 23:30 19.41 99600 240000 (2011) 39100 (2006) 105000 39100 39500 52300 56700 83700 147000 152000 214000 240000
2020-07-04 22:30 19.45 100000 240000 (2011) 39100 (2006) 105000 39100 39500 52300 56700 83700 147000 152000 214000 240000
2020-07-04 21:30 19.45 100000 240000 (2011) 39100 (2006) 105000 39100 39500 52300 56700 83700 147000 152000 214000 240000
2020-07-04 20:30 19.49 100000 240000 (2011) 39100 (2006) 105000 39100 39500 52300 56700 83700 147000 152000 214000 240000
2020-07-04 19:30 19.51 100000 240000 (2011) 39100 (2006) 105000 39100 39500 52300 56700 83700 147000 152000 214000 240000
2020-07-04 18:30 19.54 101000 240000 (2011) 39100 (2006) 105000 39100 39500 52300 56700 83700 147000 152000 214000 240000
2020-07-04 17:30 19.58 101000 240000 (2011) 39100 (2006) 105000 39100 39500 52300 56700 83700 147000 152000 214000 240000
2020-07-04 16:30 19.61 101000 240000 (2011) 39100 (2006) 105000 39100 39500 52300 56700 83700 147000 152000 214000 240000
2020-07-04 15:30 19.60 101000 240000 (2011) 39100 (2006) 105000 39100 39500 52300 56700 83700 147000 152000 214000 240000
2020-07-04 14:30 19.64 102000 240000 (2011) 39100 (2006) 105000 39100 39500 52300 56700 83700 147000 152000 214000 240000
2020-07-04 13:30 19.63 102000 240000 (2011) 39100 (2006) 105000 39100 39500 52300 56700 83700 147000 152000 214000 240000
2020-07-04 12:30 19.69 102000 240000 (2011) 39100 (2006) 105000 39100 39500 52300 56700 83700 147000 152000 214000 240000
2020-07-04 11:30 19.70 102000 240000 (2011) 39100 (2006) 105000 39100 39500 52300 56700 83700 147000 152000 214000 240000
2020-07-04 10:30 19.67 102000 240000 (2011) 39100 (2006) 105000 39100 39500 52300 56700 83700 147000 152000 214000 240000
2020-07-04 09:30 19.66 102000 240000 (2011) 39100 (2006) 105000 39100 39500 52300 56700 83700 147000 152000 214000 240000
2020-07-04 08:30 19.63 102000 240000 (2011) 39100 (2006) 105000 39100 39500 52300 56700 83700 147000 152000 214000 240000
2020-07-04 07:30 19.49 100000 240000 (2011) 39100 (2006) 105000 39100 39500 52300 56700 83700 147000 152000 214000 240000
2020-07-04 06:30 19.50 100000 240000 (2011) 39100 (2006) 105000 39100 39500 52300 56700 83700 147000 152000 214000 240000
2020-07-04 05:30 19.49 100000 240000 (2011) 39100 (2006) 105000 39100 39500 52300 56700 83700 147000 152000 214000 240000
2020-07-04 04:30 19.48 100000 240000 (2011) 39100 (2006) 105000 39100 39500 52300 56700 83700 147000 152000 214000 240000
2020-07-04 03:30 19.48 100000 240000 (2011) 39100 (2006) 105000 39100 39500 52300 56700 83700 147000 152000 214000 240000
2020-07-04 02:30 19.48 100000 240000 (2011) 39100 (2006) 105000 39100 39500 52300 56700 83700 147000 152000 214000 240000
2020-07-04 01:30 19.47 100000 240000 (2011) 39100 (2006) 105000 39100 39500 52300 56700 83700 147000 152000 214000 240000
2020-07-04 00:30 19.45 100000 240000 (2011) 39100 (2006) 105000 39100 39500 52300 56700 83700 147000 152000 214000 240000
2020-07-03 23:30 19.42 99700 241000 (2011) 36700 (2006) 105000 36700 40100 55000 61200 82000 152000 169000 225000 241000
2020-07-03 22:30 19.39 99400 241000 (2011) 36700 (2006) 105000 36700 40100 55000 61200 82000 152000 169000 225000 241000
2020-07-03 21:30 19.39 99400 241000 (2011) 36700 (2006) 105000 36700 40100 55000 61200 82000 152000 169000 225000 241000
2020-07-03 20:30 19.36 99100 241000 (2011) 36700 (2006) 105000 36700 40100 55000 61200 82000 152000 169000 225000 241000
2020-07-03 19:30 19.28 98400 241000 (2011) 36700 (2006) 105000 36700 40100 55000 61200 82000 152000 169000 225000 241000
2020-07-03 18:30 19.26 98300 241000 (2011) 36700 (2006) 105000 36700 40100 55000 61200 82000 152000 169000 225000 241000
2020-07-03 17:30 19.22 97900 241000 (2011) 36700 (2006) 105000 36700 40100 55000 61200 82000 152000 169000 225000 241000
2020-07-03 16:30 19.21 97800 241000 (2011) 36700 (2006) 105000 36700 40100 55000 61200 82000 152000 169000 225000 241000
2020-07-03 15:30 19.22 97900 241000 (2011) 36700 (2006) 105000 36700 40100 55000 61200 82000 152000 169000 225000 241000
2020-07-03 14:30 19.18 97600 241000 (2011) 36700 (2006) 105000 36700 40100 55000 61200 82000 152000 169000 225000 241000
2020-07-03 13:30 19.21 97800 241000 (2011) 36700 (2006) 105000 36700 40100 55000 61200 82000 152000 169000 225000 241000
2020-07-03 12:30 19.18 97600 241000 (2011) 36700 (2006) 105000 36700 40100 55000 61200 82000 152000 169000 225000 241000
2020-07-03 11:30 19.18 97600 241000 (2011) 36700 (2006) 105000 36700 40100 55000 61200 82000 152000 169000 225000 241000
2020-07-03 10:30 19.17 97500 241000 (2011) 36700 (2006) 105000 36700 40100 55000 61200 82000 152000 169000 225000 241000
2020-07-03 09:30 19.18 97600 241000 (2011) 36700 (2006) 105000 36700 40100 55000 61200 82000 152000 169000 225000 241000
2020-07-03 08:30 19.19 97700 241000 (2011) 36700 (2006) 105000 36700 40100 55000 61200 82000 152000 169000 225000 241000
2020-07-03 07:30 19.17 97500 241000 (2011) 36700 (2006) 105000 36700 40100 55000 61200 82000 152000 169000 225000 241000
2020-07-03 06:30 19.18 97600 241000 (2011) 36700 (2006) 105000 36700 40100 55000 61200 82000 152000 169000 225000 241000
2020-07-03 05:30 19.20 97700 241000 (2011) 36700 (2006) 105000 36700 40100 55000 61200 82000 152000 169000 225000 241000
2020-07-03 04:30 19.18 97600 241000 (2011) 36700 (2006) 105000 36700 40100 55000 61200 82000 152000 169000 225000 241000
2020-07-03 03:30 19.21 97800 241000 (2011) 36700 (2006) 105000 36700 40100 55000 61200 82000 152000 169000 225000 241000
2020-07-03 02:30 19.20 97700 241000 (2011) 36700 (2006) 105000 36700 40100 55000 61200 82000 152000 169000 225000 241000
2020-07-03 01:30 19.25 98200 241000 (2011) 36700 (2006) 105000 36700 40100 55000 61200 82000 152000 169000 225000 241000
2020-07-03 00:30 19.30 98600 241000 (2011) 36700 (2006) 105000 36700 40100 55000 61200 82000 152000 169000 225000 241000
2020-07-02 23:30 19.30 98600 247000 (2011) 37400 (2006) 110000 37400 40700 58100 58700 75700 159000 184000 243000 247000
2020-07-02 22:30 19.29 98500 247000 (2011) 37400 (2006) 110000 37400 40700 58100 58700 75700 159000 184000 243000 247000
2020-07-02 21:30 19.24 98100 247000 (2011) 37400 (2006) 110000 37400 40700 58100 58700 75700 159000 184000 243000 247000
2020-07-02 20:30 19.27 98400 247000 (2011) 37400 (2006) 110000 37400 40700 58100 58700 75700 159000 184000 243000 247000
2020-07-02 19:30 19.27 98400 247000 (2011) 37400 (2006) 110000 37400 40700 58100 58700 75700 159000 184000 243000 247000
2020-07-02 18:30 19.26 98300 247000 (2011) 37400 (2006) 110000 37400 40700 58100 58700 75700 159000 184000 243000 247000
2020-07-02 17:30 19.26 98300 247000 (2011) 37400 (2006) 110000 37400 40700 58100 58700 75700 159000 184000 243000 247000
2020-07-02 16:30 19.22 97900 247000 (2011) 37400 (2006) 110000 37400 40700 58100 58700 75700 159000 184000 243000 247000
2020-07-02 15:30 19.26 98300 247000 (2011) 37400 (2006) 110000 37400 40700 58100 58700 75700 159000 184000 243000 247000
2020-07-02 14:30 19.19 97700 247000 (2011) 37400 (2006) 110000 37400 40700 58100 58700 75700 159000 184000 243000 247000
2020-07-02 13:30 19.19 97700 247000 (2011) 37400 (2006) 110000 37400 40700 58100 58700 75700 159000 184000 243000 247000
2020-07-02 12:30 19.15 97300 247000 (2011) 37400 (2006) 110000 37400 40700 58100 58700 75700 159000 184000 243000 247000
2020-07-02 11:30 19.12 97000 247000 (2011) 37400 (2006) 110000 37400 40700 58100 58700 75700 159000 184000 243000 247000
2020-07-02 10:30 19.10 96900 247000 (2011) 37400 (2006) 110000 37400 40700 58100 58700 75700 159000 184000 243000 247000
2020-07-02 09:30 19.08 96700 247000 (2011) 37400 (2006) 110000 37400 40700 58100 58700 75700 159000 184000 243000 247000
2020-07-02 08:30 19.03 96300 247000 (2011) 37400 (2006) 110000 37400 40700 58100 58700 75700 159000 184000 243000 247000
2020-07-02 07:30 18.98 95800 247000 (2011) 37400 (2006) 110000 37400 40700 58100 58700 75700 159000 184000 243000 247000
2020-07-02 06:30 18.93 95400 247000 (2011) 37400 (2006) 110000 37400 40700 58100 58700 75700 159000 184000 243000 247000
2020-07-02 05:30 18.88 95000 247000 (2011) 37400 (2006) 110000 37400 40700 58100 58700 75700 159000 184000 243000 247000
2020-07-02 04:30 18.82 94400 247000 (2011) 37400 (2006) 110000 37400 40700 58100 58700 75700 159000 184000 243000 247000
2020-07-02 03:30 18.73 93700 247000 (2011) 37400 (2006) 110000 37400 40700 58100 58700 75700 159000 184000 243000 247000
2020-07-02 02:30 18.73 93700 247000 (2011) 37400 (2006) 110000 37400 40700 58100 58700 75700 159000 184000 243000 247000
2020-07-02 01:30 18.68 93300 247000 (2011) 37400 (2006) 110000 37400 40700 58100 58700 75700 159000 184000 243000 247000
2020-07-02 00:30 18.67 93200 247000 (2011) 37400 (2006) 110000 37400 40700 58100 58700 75700 159000 184000 243000 247000
2020-07-01 23:30 18.64 92900 261000 (2019) 37800 (2006) 114000 37800 41800 60000 61600 80400 173000 182000 253000 261000
2020-07-01 22:30 18.61 92700 261000 (2019) 37800 (2006) 114000 37800 41800 60000 61600 80400 173000 182000 253000 261000
2020-07-01 21:30 18.60 92600 261000 (2019) 37800 (2006) 114000 37800 41800 60000 61600 80400 173000 182000 253000 261000
2020-07-01 20:30 18.57 92300 261000 (2019) 37800 (2006) 114000 37800 41800 60000 61600 80400 173000 182000 253000 261000
2020-07-01 19:30 18.59 92500 261000 (2019) 37800 (2006) 114000 37800 41800 60000 61600 80400 173000 182000 253000 261000
2020-07-01 18:30 18.56 92200 261000 (2019) 37800 (2006) 114000 37800 41800 60000 61600 80400 173000 182000 253000 261000
2020-07-01 17:30 18.58 92400 261000 (2019) 37800 (2006) 114000 37800 41800 60000 61600 80400 173000 182000 253000 261000
2020-07-01 16:30 18.58 92400 261000 (2019) 37800 (2006) 114000 37800 41800 60000 61600 80400 173000 182000 253000 261000
2020-07-01 15:30 18.60 92600 261000 (2019) 37800 (2006) 114000 37800 41800 60000 61600 80400 173000 182000 253000 261000
2020-07-01 14:30 18.57 92300 261000 (2019) 37800 (2006) 114000 37800 41800 60000 61600 80400 173000 182000 253000 261000
2020-07-01 13:30 18.64 92900 261000 (2019) 37800 (2006) 114000 37800 41800 60000 61600 80400 173000 182000 253000 261000
2020-07-01 12:30 18.64 92900 261000 (2019) 37800 (2006) 114000 37800 41800 60000 61600 80400 173000 182000 253000 261000
2020-07-01 11:30 18.70 93400 261000 (2019) 37800 (2006) 114000 37800 41800 60000 61600 80400 173000 182000 253000 261000
2020-07-01 10:30 18.65 93000 261000 (2019) 37800 (2006) 114000 37800 41800 60000 61600 80400 173000 182000 253000 261000
2020-07-01 09:30 18.74 93800 261000 (2019) 37800 (2006) 114000 37800 41800 60000 61600 80400 173000 182000 253000 261000
2020-07-01 08:30 18.75 93900 261000 (2019) 37800 (2006) 114000 37800 41800 60000 61600 80400 173000 182000 253000 261000
2020-07-01 07:30 18.78 94100 261000 (2019) 37800 (2006) 114000 37800 41800 60000 61600 80400 173000 182000 253000 261000
2020-07-01 06:30 18.80 94300 261000 (2019) 37800 (2006) 114000 37800 41800 60000 61600 80400 173000 182000 253000 261000
2020-07-01 05:30 18.86 94800 261000 (2019) 37800 (2006) 114000 37800 41800 60000 61600 80400 173000 182000 253000 261000
2020-07-01 04:30 18.87 94900 261000 (2019) 37800 (2006) 114000 37800 41800 60000 61600 80400 173000 182000 253000 261000
2020-07-01 03:30 18.92 95300 261000 (2019) 37800 (2006) 114000 37800 41800 60000 61600 80400 173000 182000 253000 261000
2020-07-01 02:30 18.96 95700 261000 (2019) 37800 (2006) 114000 37800 41800 60000 61600 80400 173000 182000 253000 261000
2020-07-01 01:30 18.99 95900 261000 (2019) 37800 (2006) 114000 37800 41800 60000 61600 80400 173000 182000 253000 261000
2020-07-01 00:30 19.06 96500 261000 (2019) 37800 (2006) 114000 37800 41800 60000 61600 80400 173000 182000 253000 261000
2020-06-30 23:30 19.09 96800 277000 (2019) 38300 (2006) 117000 38300 44800 57900 61200 83600 154000 186000 254000 277000
2020-06-30 22:30 19.14 97200 277000 (2019) 38300 (2006) 117000 38300 44800 57900 61200 83600 154000 186000 254000 277000
2020-06-30 21:30 19.19 97700 277000 (2019) 38300 (2006) 117000 38300 44800 57900 61200 83600 154000 186000 254000 277000
2020-06-30 20:30 19.25 98200 277000 (2019) 38300 (2006) 117000 38300 44800 57900 61200 83600 154000 186000 254000 277000
2020-06-30 19:30 19.29 98500 277000 (2019) 38300 (2006) 117000 38300 44800 57900 61200 83600 154000 186000 254000 277000
2020-06-30 18:30 19.30 98600 277000 (2019) 38300 (2006) 117000 38300 44800 57900 61200 83600 154000 186000 254000 277000
2020-06-30 17:30 19.36 99100 277000 (2019) 38300 (2006) 117000 38300 44800 57900 61200 83600 154000 186000 254000 277000
2020-06-30 16:30 19.36 99100 277000 (2019) 38300 (2006) 117000 38300 44800 57900 61200 83600 154000 186000 254000 277000
2020-06-30 15:30 19.44 99900 277000 (2019) 38300 (2006) 117000 38300 44800 57900 61200 83600 154000 186000 254000 277000
2020-06-30 14:30 19.46 100000 277000 (2019) 38300 (2006) 117000 38300 44800 57900 61200 83600 154000 186000 254000 277000
2020-06-30 13:30 19.48 100000 277000 (2019) 38300 (2006) 117000 38300 44800 57900 61200 83600 154000 186000 254000 277000
2020-06-30 12:30 19.46 100000 277000 (2019) 38300 (2006) 117000 38300 44800 57900 61200 83600 154000 186000 254000 277000
2020-06-30 11:30 19.57 101000 277000 (2019) 38300 (2006) 117000 38300 44800 57900 61200 83600 154000 186000 254000 277000
2020-06-30 10:30 19.60 101000 277000 (2019) 38300 (2006) 117000 38300 44800 57900 61200 83600 154000 186000 254000 277000
2020-06-30 09:30 19.64 102000 277000 (2019) 38300 (2006) 117000 38300 44800 57900 61200 83600 154000 186000 254000 277000
2020-06-30 08:30 19.65 102000 277000 (2019) 38300 (2006) 117000 38300 44800 57900 61200 83600 154000 186000 254000 277000
2020-06-30 07:30 19.64 102000 277000 (2019) 38300 (2006) 117000 38300 44800 57900 61200 83600 154000 186000 254000 277000
2020-06-30 06:30 19.66 102000 277000 (2019) 38300 (2006) 117000 38300 44800 57900 61200 83600 154000 186000 254000 277000
2020-06-30 05:30 19.77 103000 277000 (2019) 38300 (2006) 117000 38300 44800 57900 61200 83600 154000 186000 254000 277000
2020-06-30 04:30 19.78 103000 277000 (2019) 38300 (2006) 117000 38300 44800 57900 61200 83600 154000 186000 254000 277000
2020-06-30 03:30 19.80 103000 277000 (2019) 38300 (2006) 117000 38300 44800 57900 61200 83600 154000 186000 254000 277000
2020-06-30 02:30 19.81 103000 277000 (2019) 38300 (2006) 117000 38300 44800 57900 61200 83600 154000 186000 254000 277000
2020-06-30 01:30 19.81 103000 277000 (2019) 38300 (2006) 117000 38300 44800 57900 61200 83600 154000 186000 254000 277000
2020-06-30 00:30 19.84 103000 277000 (2019) 38300 (2006) 117000 38300 44800 57900 61200 83600 154000 186000 254000 277000
2020-06-29 23:30 19.88 104000 289000 (2019) 39200 (2006) 116000 39200 45300 50900 60600 82600 194000 198000 251000 289000
2020-06-29 22:30 19.90 104000 289000 (2019) 39200 (2006) 116000 39200 45300 50900 60600 82600 194000 198000 251000 289000
2020-06-29 21:30 19.96 105000 289000 (2019) 39200 (2006) 116000 39200 45300 50900 60600 82600 194000 198000 251000 289000
2020-06-29 20:30 19.95 104000 289000 (2019) 39200 (2006) 116000 39200 45300 50900 60600 82600 194000 198000 251000 289000
2020-06-29 19:30 19.97 105000 289000 (2019) 39200 (2006) 116000 39200 45300 50900 60600 82600 194000 198000 251000 289000
2020-06-29 18:30 20.01 105000 289000 (2019) 39200 (2006) 116000 39200 45300 50900 60600 82600 194000 198000 251000 289000
2020-06-29 17:30 19.97 105000 289000 (2019) 39200 (2006) 116000 39200 45300 50900 60600 82600 194000 198000 251000 289000
2020-06-29 16:30 2 105000 289000 (2019) 39200 (2006) 116000 39200 45300 50900 60600 82600 194000 198000 251000 289000
2020-06-29 15:30 19.99 105000 289000 (2019) 39200 (2006) 116000 39200 45300 50900 60600 82600 194000 198000 251000 289000
2020-06-29 14:30 19.94 104000 289000 (2019) 39200 (2006) 116000 39200 45300 50900 60600 82600 194000 198000 251000 289000
2020-06-29 13:30 19.95 104000 289000 (2019) 39200 (2006) 116000 39200 45300 50900 60600 82600 194000 198000 251000 289000
2020-06-29 12:30 19.89 104000 289000 (2019) 39200 (2006) 116000 39200 45300 50900 60600 82600 194000 198000 251000 289000
2020-06-29 11:30 19.85 104000 289000 (2019) 39200 (2006) 116000 39200 45300 50900 60600 82600 194000 198000 251000 289000
2020-06-29 10:30 19.81 103000 289000 (2019) 39200 (2006) 116000 39200 45300 50900 60600 82600 194000 198000 251000 289000
2020-06-29 09:30 19.78 103000 289000 (2019) 39200 (2006) 116000 39200 45300 50900 60600 82600 194000 198000 251000 289000
2020-06-29 08:30 19.79 103000 289000 (2019) 39200 (2006) 116000 39200 45300 50900 60600 82600 194000 198000 251000 289000
2020-06-29 07:30 19.73 102000 289000 (2019) 39200 (2006) 116000 39200 45300 50900 60600 82600 194000 198000 251000 289000
2020-06-29 06:30 19.71 102000 289000 (2019) 39200 (2006) 116000 39200 45300 50900 60600 82600 194000 198000 251000 289000
2020-06-29 05:30 19.66 102000 289000 (2019) 39200 (2006) 116000 39200 45300 50900 60600 82600 194000 198000 251000 289000
2020-06-29 04:30 19.65 102000 289000 (2019) 39200 (2006) 116000 39200 45300 50900 60600 82600 194000 198000 251000 289000
2020-06-29 03:30 19.56 101000 289000 (2019) 39200 (2006) 116000 39200 45300 50900 60600 82600 194000 198000 251000 289000
2020-06-29 02:30 19.48 100000 289000 (2019) 39200 (2006) 116000 39200 45300 50900 60600 82600 194000 198000 251000 289000
2020-06-29 01:30 19.43 99800 289000 (2019) 39200 (2006) 116000 39200 45300 50900 60600 82600 194000 198000 251000 289000
2020-06-29 00:30 19.39 99400 289000 (2019) 39200 (2006) 116000 39200 45300 50900 60600 82600 194000 198000 251000 289000
2020-06-28 23:30 19.36 99100 296000 (2019) 39800 (2006) 117000 39800 45700 52000 64200 73900 207000 225000 242000 296000
2020-06-28 22:30 19.28 98400 296000 (2019) 39800 (2006) 117000 39800 45700 52000 64200 73900 207000 225000 242000 296000
2020-06-28 21:30 19.24 98100 296000 (2019) 39800 (2006) 117000 39800 45700 52000 64200 73900 207000 225000 242000 296000
2020-06-28 20:30 19.17 97500 296000 (2019) 39800 (2006) 117000 39800 45700 52000 64200 73900 207000 225000 242000 296000
2020-06-28 19:30 19.07 96600 296000 (2019) 39800 (2006) 117000 39800 45700 52000 64200 73900 207000 225000 242000 296000
2020-06-28 18:30 19.00 96000 296000 (2019) 39800 (2006) 117000 39800 45700 52000 64200 73900 207000 225000 242000 296000
2020-06-28 17:30 18.91 95200 296000 (2019) 39800 (2006) 117000 39800 45700 52000 64200 73900 207000 225000 242000 296000
2020-06-28 16:30 18.86 94800 296000 (2019) 39800 (2006) 117000 39800 45700 52000 64200 73900 207000 225000 242000 296000
2020-06-28 15:30 18.82 94400 296000 (2019) 39800 (2006) 117000 39800 45700 52000 64200 73900 207000 225000 242000 296000
2020-06-28 14:30 18.73 93700 296000 (2019) 39800 (2006) 117000 39800 45700 52000 64200 73900 207000 225000 242000 296000
2020-06-28 13:30 18.69 93300 296000 (2019) 39800 (2006) 117000 39800 45700 52000 64200 73900 207000 225000 242000 296000
2020-06-28 12:30 18.63 92800 296000 (2019) 39800 (2006) 117000 39800 45700 52000 64200 73900 207000 225000 242000 296000
2020-06-28 11:30 18.58 92400 296000 (2019) 39800 (2006) 117000 39800 45700 52000 64200 73900 207000 225000 242000 296000
2020-06-28 10:30 18.56 92200 296000 (2019) 39800 (2006) 117000 39800 45700 52000 64200 73900 207000 225000 242000 296000
2020-06-28 09:30 18.52 91900 296000 (2019) 39800 (2006) 117000 39800 45700 52000 64200 73900 207000 225000 242000 296000
2020-06-28 08:30 18.43 91200 296000 (2019) 39800 (2006) 117000 39800 45700 52000 64200 73900 207000 225000 242000 296000
2020-06-28 07:30 18.39 90800 296000 (2019) 39800 (2006) 117000 39800 45700 52000 64200 73900 207000 225000 242000 296000
2020-06-28 06:30 18.37 90700 296000 (2019) 39800 (2006) 117000 39800 45700 52000 64200 73900 207000 225000 242000 296000
2020-06-28 05:30 18.39 90800 296000 (2019) 39800 (2006) 117000 39800 45700 52000 64200 73900 207000 225000 242000 296000
2020-06-28 04:30 18.35 90500 296000 (2019) 39800 (2006) 117000 39800 45700 52000 64200 73900 207000 225000 242000 296000
2020-06-28 03:30 18.33 90300 296000 (2019) 39800 (2006) 117000 39800 45700 52000 64200 73900 207000 225000 242000 296000
2020-06-28 02:30 18.30 90100 296000 (2019) 39800 (2006) 117000 39800 45700 52000 64200 73900 207000 225000 242000 296000
2020-06-28 01:30 18.35 90500 296000 (2019) 39800 (2006) 117000 39800 45700 52000 64200 73900 207000 225000 242000 296000
2020-06-28 00:30 18.34 90400 296000 (2019) 39800 (2006) 117000 39800 45700 52000 64200 73900 207000 225000 242000 296000
2020-06-27 23:30 18.32 90200 297000 (2019) 41500 (2006) 115000 41500 46500 54700 62000 76400 201000 213000 221000 297000
2020-06-27 22:30 18.33 90300 297000 (2019) 41500 (2006) 115000 41500 46500 54700 62000 76400 201000 213000 221000 297000
2020-06-27 21:30 18.34 90400 297000 (2019) 41500 (2006) 115000 41500 46500 54700 62000 76400 201000 213000 221000 297000
2020-06-27 20:30 18.29 90000 297000 (2019) 41500 (2006) 115000 41500 46500 54700 62000 76400 201000 213000 221000 297000
2020-06-27 19:30 18.29 90000 297000 (2019) 41500 (2006) 115000 41500 46500 54700 62000 76400 201000 213000 221000 297000
2020-06-27 18:30 18.29 90000 297000 (2019) 41500 (2006) 115000 41500 46500 54700 62000 76400 201000 213000 221000 297000
2020-06-27 17:30 18.29 90000 297000 (2019) 41500 (2006) 115000 41500 46500 54700 62000 76400 201000 213000 221000 297000
2020-06-27 16:30 18.34 90400 297000 (2019) 41500 (2006) 115000 41500 46500 54700 62000 76400 201000 213000 221000 297000
2020-06-27 15:30 18.33 90300 297000 (2019) 41500 (2006) 115000 41500 46500 54700 62000 76400 201000 213000 221000 297000
2020-06-27 14:30 18.35 90500 297000 (2019) 41500 (2006) 115000 41500 46500 54700 62000 76400 201000 213000 221000 297000
2020-06-27 13:30 18.34 90400 297000 (2019) 41500 (2006) 115000 41500 46500 54700 62000 76400 201000 213000 221000 297000
2020-06-27 12:30 18.32 90200 297000 (2019) 41500 (2006) 115000 41500 46500 54700 62000 76400 201000 213000 221000 297000
2020-06-27 11:30 18.35 90500 297000 (2019) 41500 (2006) 115000 41500 46500 54700 62000 76400 201000 213000 221000 297000
2020-06-27 10:30 18.28 89900 297000 (2019) 41500 (2006) 115000 41500 46500 54700 62000 76400 201000 213000 221000 297000
2020-06-27 09:30 18.34 90400 297000 (2019) 41500 (2006) 115000 41500 46500 54700 62000 76400 201000 213000 221000 297000
2020-06-27 08:30 18.34 90400 297000 (2019) 41500 (2006) 115000 41500 46500 54700 62000 76400 201000 213000 221000 297000
2020-06-27 07:30 18.31 90100 297000 (2019) 41500 (2006) 115000 41500 46500 54700 62000 76400 201000 213000 221000 297000
2020-06-27 06:30 18.27 89800 297000 (2019) 41500 (2006) 115000 41500 46500 54700 62000 76400 201000 213000 221000 297000
2020-06-27 05:30 18.28 89900 297000 (2019) 41500 (2006) 115000 41500 46500 54700 62000 76400 201000 213000 221000 297000
2020-06-27 04:30 18.29 90000 297000 (2019) 41500 (2006) 115000 41500 46500 54700 62000 76400 201000 213000 221000 297000
2020-06-27 03:30 18.26 89700 297000 (2019) 41500 (2006) 115000 41500 46500 54700 62000 76400 201000 213000 221000 297000
2020-06-27 02:30 18.26 89700 297000 (2019) 41500 (2006) 115000 41500 46500 54700 62000 76400 201000 213000 221000 297000
2020-06-27 01:30 18.29 90000 297000 (2019) 41500 (2006) 115000 41500 46500 54700 62000 76400 201000 213000 221000 297000
2020-06-27 00:30 18.30 90100 297000 (2019) 41500 (2006) 115000 41500 46500 54700 62000 76400 201000 213000 221000 297000
2020-06-26 23:30 18.35 90500 292000 (2019) 42700 (2006) 112000 42700 46900 55300 62600 81500 175000 195000 204000 292000
2020-06-26 22:30 18.33 90300 292000 (2019) 42700 (2006) 112000 42700 46900 55300 62600 81500 175000 195000 204000 292000
2020-06-26 21:30 18.33 90300 292000 (2019) 42700 (2006) 112000 42700 46900 55300 62600 81500 175000 195000 204000 292000
2020-06-26 20:30 18.27 89800 292000 (2019) 42700 (2006) 112000 42700 46900 55300 62600 81500 175000 195000 204000 292000
2020-06-26 19:30 18.34 90400 292000 (2019) 42700 (2006) 112000 42700 46900 55300 62600 81500 175000 195000 204000 292000
2020-06-26 18:30 18.35 90500 292000 (2019) 42700 (2006) 112000 42700 46900 55300 62600 81500 175000 195000 204000 292000
2020-06-26 17:30 18.37 90700 292000 (2019) 42700 (2006) 112000 42700 46900 55300 62600 81500 175000 195000 204000 292000
2020-06-26 16:30 18.38 90700 292000 (2019) 42700 (2006) 112000 42700 46900 55300 62600 81500 175000 195000 204000 292000
2020-06-26 15:30 18.39 90800 292000 (2019) 42700 (2006) 112000 42700 46900 55300 62600 81500 175000 195000 204000 292000
2020-06-26 14:30 18.43 91200 292000 (2019) 42700 (2006) 112000 42700 46900 55300 62600 81500 175000 195000 204000 292000
2020-06-26 13:30 18.41 91000 292000 (2019) 42700 (2006) 112000 42700 46900 55300 62600 81500 175000 195000 204000 292000
2020-06-26 12:30 18.46 91400 292000 (2019) 42700 (2006) 112000 42700 46900 55300 62600 81500 175000 195000 204000 292000
2020-06-26 11:30 18.47 91500 292000 (2019) 42700 (2006) 112000 42700 46900 55300 62600 81500 175000 195000 204000 292000
2020-06-26 10:30 18.47 91500 292000 (2019) 42700 (2006) 112000 42700 46900 55300 62600 81500 175000 195000 204000 292000
2020-06-26 09:30 18.48 91600 292000 (2019) 42700 (2006) 112000 42700 46900 55300 62600 81500 175000 195000 204000 292000
2020-06-26 08:30 18.51 91800 292000 (2019) 42700 (2006) 112000 42700 46900 55300 62600 81500 175000 195000 204000 292000
2020-06-26 07:30 18.54 92100 292000 (2019) 42700 (2006) 112000 42700 46900 55300 62600 81500 175000 195000 204000 292000
2020-06-26 06:30 18.54 92100 292000 (2019) 42700 (2006) 112000 42700 46900 55300 62600 81500 175000 195000 204000 292000
2020-06-26 05:30 18.58 92400 292000 (2019) 42700 (2006) 112000 42700 46900 55300 62600 81500 175000 195000 204000 292000
2020-06-26 04:30 18.63 92800 292000 (2019) 42700 (2006) 112000 42700 46900 55300 62600 81500 175000 195000 204000 292000
2020-06-26 03:30 18.62 92800 292000 (2019) 42700 (2006) 112000 42700 46900 55300 62600 81500 175000 195000 204000 292000
2020-06-26 02:30 18.63 92800 292000 (2019) 42700 (2006) 112000 42700 46900 55300 62600 81500 175000 195000 204000 292000
2020-06-26 01:30 18.64 92900 292000 (2019) 42700 (2006) 112000 42700 46900 55300 62600 81500 175000 195000 204000 292000
2020-06-26 00:30 18.66 93100 292000 (2019) 42700 (2006) 112000 42700 46900 55300 62600 81500 175000 195000 204000 292000
2020-06-25 23:30 18.67 93200 280000 (2019) 40500 (2006) 111000 40500 46100 55900 64200 89700 154000 155000 209000 280000
2020-06-25 22:30 18.70 93400 280000 (2019) 40500 (2006) 111000 40500 46100 55900 64200 89700 154000 155000 209000 280000
2020-06-25 21:30 18.71 93500 280000 (2019) 40500 (2006) 111000 40500 46100 55900 64200 89700 154000 155000 209000 280000
2020-06-25 20:30 18.71 93500 280000 (2019) 40500 (2006) 111000 40500 46100 55900 64200 89700 154000 155000 209000 280000
2020-06-25 19:30 18.72 93600 280000 (2019) 40500 (2006) 111000 40500 46100 55900 64200 89700 154000 155000 209000 280000
2020-06-25 18:30 18.73 93700 280000 (2019) 40500 (2006) 111000 40500 46100 55900 64200 89700 154000 155000 209000 280000
2020-06-25 17:30 18.75 93900 280000 (2019) 40500 (2006) 111000 40500 46100 55900 64200 89700 154000 155000 209000 280000
2020-06-25 16:30 18.79 94200 280000 (2019) 40500 (2006) 111000 40500 46100 55900 64200 89700 154000 155000 209000 280000
2020-06-25 15:30 18.78 94100 280000 (2019) 40500 (2006) 111000 40500 46100 55900 64200 89700 154000 155000 209000 280000
2020-06-25 14:30 18.82 94400 280000 (2019) 40500 (2006) 111000 40500 46100 55900 64200 89700 154000 155000 209000 280000
2020-06-25 13:30 18.84 99300 280000 (2019) 40500 (2006) 111000 40500 46100 55900 64200 89700 154000 155000 209000 280000
2020-06-25 12:30 18.88 99700 280000 (2019) 40500 (2006) 111000 40500 46100 55900 64200 89700 154000 155000 209000 280000
2020-06-25 11:30 18.89 99800 280000 (2019) 40500 (2006) 111000 40500 46100 55900 64200 89700 154000 155000 209000 280000
2020-06-25 10:30 18.91 100000 280000 (2019) 40500 (2006) 111000 40500 46100 55900 64200 89700 154000 155000 209000 280000
2020-06-25 09:30 18.96 100000 280000 (2019) 40500 (2006) 111000 40500 46100 55900 64200 89700 154000 155000 209000 280000
2020-06-25 08:30 18.99 101000 280000 (2019) 40500 (2006) 111000 40500 46100 55900 64200 89700 154000 155000 209000 280000
2020-06-25 07:30 19.02 101000 280000 (2019) 40500 (2006) 111000 40500 46100 55900 64200 89700 154000 155000 209000 280000
2020-06-25 06:30 19.05 101000 280000 (2019) 40500 (2006) 111000 40500 46100 55900 64200 89700 154000 155000 209000 280000
2020-06-25 05:30 19.07 101000 280000 (2019) 40500 (2006) 111000 40500 46100 55900 64200 89700 154000 155000 209000 280000
2020-06-25 04:30 19.05 101000 280000 (2019) 40500 (2006) 111000 40500 46100 55900 64200 89700 154000 155000 209000 280000
2020-06-25 03:30 19.10 102000 280000 (2019) 40500 (2006) 111000 40500 46100 55900 64200 89700 154000 155000 209000 280000
2020-06-25 02:30 19.10 102000 280000 (2019) 40500 (2006) 111000 40500 46100 55900 64200 89700 154000 155000 209000 280000
2020-06-25 01:30 19.14 102000 280000 (2019) 40500 (2006) 111000 40500 46100 55900 64200 89700 154000 155000 209000 280000
2020-06-25 00:30 19.22 103000 280000 (2019) 40500 (2006) 111000 40500 46100 55900 64200 89700 154000 155000 209000 280000
2020-06-24 23:30 19.25 103000 264000 (2019) 39100 (2006) 113000 39100 44600 53600 69100 101000 170000 177000 213000 264000
2020-06-24 22:30 19.30 103000 264000 (2019) 39100 (2006) 113000 39100 44600 53600 69100 101000 170000 177000 213000 264000
2020-06-24 21:30 19.33 104000 264000 (2019) 39100 (2006) 113000 39100 44600 53600 69100 101000 170000 177000 213000 264000
2020-06-24 20:30 19.37 104000 264000 (2019) 39100 (2006) 113000 39100 44600 53600 69100 101000 170000 177000 213000 264000
2020-06-24 19:30 19.37 104000 264000 (2019) 39100 (2006) 113000 39100 44600 53600 69100 101000 170000 177000 213000 264000
2020-06-24 18:30 19.46 105000 264000 (2019) 39100 (2006) 113000 39100 44600 53600 69100 101000 170000 177000 213000 264000
2020-06-24 17:30 19.46 105000 264000 (2019) 39100 (2006) 113000 39100 44600 53600 69100 101000 170000 177000 213000 264000
2020-06-24 16:30 19.46 105000 264000 (2019) 39100 (2006) 113000 39100 44600 53600 69100 101000 170000 177000 213000 264000
2020-06-24 15:30 19.48 105000 264000 (2019) 39100 (2006) 113000 39100 44600 53600 69100 101000 170000 177000 213000 264000
2020-06-24 14:30 19.55 106000 264000 (2019) 39100 (2006) 113000 39100 44600 53600 69100 101000 170000 177000 213000 264000
2020-06-24 13:30 19.54 106000 264000 (2019) 39100 (2006) 113000 39100 44600 53600 69100 101000 170000 177000 213000 264000
2020-06-24 12:30 19.56 106000 264000 (2019) 39100 (2006) 113000 39100 44600 53600 69100 101000 170000 177000 213000 264000
2020-06-24 11:30 19.57 106000 264000 (2019) 39100 (2006) 113000 39100 44600 53600 69100 101000 170000 177000 213000 264000
2020-06-24 10:30 19.53 106000 264000 (2019) 39100 (2006) 113000 39100 44600 53600 69100 101000 170000 177000 213000 264000
2020-06-24 09:30 19.56 106000 264000 (2019) 39100 (2006) 113000 39100 44600 53600 69100 101000 170000 177000 213000 264000
2020-06-24 08:30 19.60 106000 264000 (2019) 39100 (2006) 113000 39100 44600 53600 69100 101000 170000 177000 213000 264000
2020-06-24 07:30 19.57 106000 264000 (2019) 39100 (2006) 113000 39100 44600 53600 69100 101000 170000 177000 213000 264000
2020-06-24 06:30 19.53 106000 264000 (2019) 39100 (2006) 113000 39100 44600 53600 69100 101000 170000 177000 213000 264000
2020-06-24 05:30 19.56 106000 264000 (2019) 39100 (2006) 113000 39100 44600 53600 69100 101000 170000 177000 213000 264000
2020-06-24 04:30 19.58 106000 264000 (2019) 39100 (2006) 113000 39100 44600 53600 69100 101000 170000 177000 213000 264000
2020-06-24 03:30 19.64 107000 264000 (2019) 39100 (2006) 113000 39100 44600 53600 69100 101000 170000 177000 213000 264000
2020-06-24 02:30 19.62 106000 264000 (2019) 39100 (2006) 113000 39100 44600 53600 69100 101000 170000 177000 213000 264000
2020-06-24 01:30 19.61 106000 264000 (2019) 39100 (2006) 113000 39100 44600 53600 69100 101000 170000 177000 213000 264000
2020-06-24 00:30 19.59 106000 264000 (2019) 39100 (2006) 113000 39100 44600 53600 69100 101000 170000 177000 213000 264000
2020-06-23 23:30 19.58 106000 245000 (2019) 37700 (2006) 118000 37700 43800 53400 70400 99700 182000 183000 216000 245000
2020-06-23 22:30 19.59 106000 245000 (2019) 37700 (2006) 118000 37700 43800 53400 70400 99700 182000 183000 216000 245000
2020-06-23 21:30 19.55 106000 245000 (2019) 37700 (2006) 118000 37700 43800 53400 70400 99700 182000 183000 216000 245000
2020-06-23 20:30 19.57 106000 245000 (2019) 37700 (2006) 118000 37700 43800 53400 70400 99700 182000 183000 216000 245000
2020-06-23 19:30 19.54 106000 245000 (2019) 37700 (2006) 118000 37700 43800 53400 70400 99700 182000 183000 216000 245000
2020-06-23 18:30 19.53 106000 245000 (2019) 37700 (2006) 118000 37700 43800 53400 70400 99700 182000 183000 216000 245000
2020-06-23 17:30 19.57 106000 245000 (2019) 37700 (2006) 118000 37700 43800 53400 70400 99700 182000 183000 216000 245000
2020-06-23 16:30 19.53 106000 245000 (2019) 37700 (2006) 118000 37700 43800 53400 70400 99700 182000 183000 216000 245000
2020-06-23 15:30 19.53 106000 245000 (2019) 37700 (2006) 118000 37700 43800 53400 70400 99700 182000 183000 216000 245000
2020-06-23 14:30 19.48 105000 245000 (2019) 37700 (2006) 118000 37700 43800 53400 70400 99700 182000 183000 216000 245000
2020-06-23 13:30 19.43 105000 245000 (2019) 37700 (2006) 118000 37700 43800 53400 70400 99700 182000 183000 216000 245000
2020-06-23 12:30 19.41 104000 245000 (2019) 37700 (2006) 118000 37700 43800 53400 70400 99700 182000 183000 216000 245000
2020-06-23 11:30 19.43 105000 245000 (2019) 37700 (2006) 118000 37700 43800 53400 70400 99700 182000 183000 216000 245000
2020-06-23 10:30 19.39 104000 245000 (2019) 37700 (2006) 118000 37700 43800 53400 70400 99700 182000 183000 216000 245000
2020-06-23 09:30 19.38 104000 245000 (2019) 37700 (2006) 118000 37700 43800 53400 70400 99700 182000 183000 216000 245000
2020-06-23 08:30 19.38 104000 245000 (2019) 37700 (2006) 118000 37700 43800 53400 70400 99700 182000 183000 216000 245000
2020-06-23 07:30 19.40 104000 245000 (2019) 37700 (2006) 118000 37700 43800 53400 70400 99700 182000 183000 216000 245000
2020-06-23 06:30 19.43 105000 245000 (2019) 37700 (2006) 118000 37700 43800 53400 70400 99700 182000 183000 216000 245000
2020-06-23 05:30 19.45 105000 245000 (2019) 37700 (2006) 118000 37700 43800 53400 70400 99700 182000 183000 216000 245000
2020-06-23 04:30 19.47 105000 245000 (2019) 37700 (2006) 118000 37700 43800 53400 70400 99700 182000 183000 216000 245000
2020-06-23 03:30 19.49 105000 245000 (2019) 37700 (2006) 118000 37700 43800 53400 70400 99700 182000 183000 216000 245000
2020-06-23 02:30 19.50 105000 245000 (2019) 37700 (2006) 118000 37700 43800 53400 70400 99700 182000 183000 216000 245000
2020-06-23 01:30 19.51 105000 245000 (2019) 37700 (2006) 118000 37700 43800 53400 70400 99700 182000 183000 216000 245000
2020-06-23 00:30 19.51 105000 245000 (2019) 37700 (2006) 118000 37700 43800 53400 70400 99700 182000 183000 216000 245000
2020-06-22 23:30 19.55 106000 224000 (2010) 36400 (2006) 117000 36400 43300 53600 74400 90900 179000 183000 223000 224000
2020-06-22 22:30 19.55 106000 224000 (2010) 36400 (2006) 117000 36400 43300 53600 74400 90900 179000 183000 223000 224000
2020-06-22 21:30 19.53 106000 224000 (2010) 36400 (2006) 117000 36400 43300 53600 74400 90900 179000 183000 223000 224000
2020-06-22 20:30 19.52 106000 224000 (2010) 36400 (2006) 117000 36400 43300 53600 74400 90900 179000 183000 223000 224000
2020-06-22 19:30 19.52 106000 224000 (2010) 36400 (2006) 117000 36400 43300 53600 74400 90900 179000 183000 223000 224000
2020-06-22 18:30 19.51 105000 224000 (2010) 36400 (2006) 117000 36400 43300 53600 74400 90900 179000 183000 223000 224000
2020-06-22 17:30 19.47 105000 224000 (2010) 36400 (2006) 117000 36400 43300 53600 74400 90900 179000 183000 223000 224000
2020-06-22 16:30 19.49 105000 224000 (2010) 36400 (2006) 117000 36400 43300 53600 74400 90900 179000 183000 223000 224000
2020-06-22 15:30 19.47 105000 224000 (2010) 36400 (2006) 117000 36400 43300 53600 74400 90900 179000 183000 223000 224000
2020-06-22 14:30 19.49 105000 224000 (2010) 36400 (2006) 117000 36400 43300 53600 74400 90900 179000 183000 223000 224000
2020-06-22 13:30 19.46 105000 224000 (2010) 36400 (2006) 117000 36400 43300 53600 74400 90900 179000 183000 223000 224000
2020-06-22 12:30 19.45 105000 224000 (2010) 36400 (2006) 117000 36400 43300 53600 74400 90900 179000 183000 223000 224000
2020-06-22 11:30 19.46 105000 224000 (2010) 36400 (2006) 117000 36400 43300 53600 74400 90900 179000 183000 223000 224000
2020-06-22 10:30 19.48 105000 224000 (2010) 36400 (2006) 117000 36400 43300 53600 74400 90900 179000 183000 223000 224000
2020-06-22 09:30 19.51 105000 224000 (2010) 36400 (2006) 117000 36400 43300 53600 74400 90900 179000 183000 223000 224000
2020-06-22 08:30 19.45 105000 224000 (2010) 36400 (2006) 117000 36400 43300 53600 74400 90900 179000 183000 223000 224000
2020-06-22 07:30 19.45 105000 224000 (2010) 36400 (2006) 117000 36400 43300 53600 74400 90900 179000 183000 223000 224000
2020-06-22 06:30 19.45 105000 224000 (2010) 36400 (2006) 117000 36400 43300 53600 74400 90900 179000 183000 223000 224000
2020-06-22 05:30 19.41 104000 224000 (2010) 36400 (2006) 117000 36400 43300 53600 74400 90900 179000 183000 223000 224000
2020-06-22 04:30 19.36 104000 224000 (2010) 36400 (2006) 117000 36400 43300 53600 74400 90900 179000 183000 223000 224000
2020-06-22 03:30 19.27 103000 224000 (2010) 36400 (2006) 117000 36400 43300 53600 74400 90900 179000 183000 223000 224000
2020-06-22 02:30 19.26 103000 224000 (2010) 36400 (2006) 117000 36400 43300 53600 74400 90900 179000 183000 223000 224000
2020-06-22 01:30 19.24 103000 224000 (2010) 36400 (2006) 117000 36400 43300 53600 74400 90900 179000 183000 223000 224000
2020-06-22 00:30 19.22 103000 224000 (2010) 36400 (2006) 117000 36400 43300 53600 74400 90900 179000 183000 223000 224000
2020-06-21 23:30 19.19 102000 244000 (2010) 36400 (2006) 115000 36400 43500 55600 76800 97900 180000 180000 212000 244000
2020-06-21 22:30 19.16 102000 244000 (2010) 36400 (2006) 115000 36400 43500 55600 76800 97900 180000 180000 212000 244000
2020-06-21 21:30 19.11 102000 244000 (2010) 36400 (2006) 115000 36400 43500 55600 76800 97900 180000 180000 212000 244000
2020-06-21 20:30 19.04 101000 244000 (2010) 36400 (2006) 115000 36400 43500 55600 76800 97900 180000 180000 212000 244000
2020-06-21 19:30 19.03 101000 244000 (2010) 36400 (2006) 115000 36400 43500 55600 76800 97900 180000 180000 212000 244000
2020-06-21 18:30 18.97 100000 244000 (2010) 36400 (2006) 115000 36400 43500 55600 76800 97900 180000 180000 212000 244000
2020-06-21 17:30 18.91 100000 244000 (2010) 36400 (2006) 115000 36400 43500 55600 76800 97900 180000 180000 212000 244000
2020-06-21 16:30 18.90 99900 244000 (2010) 36400 (2006) 115000 36400 43500 55600 76800 97900 180000 180000 212000 244000
2020-06-21 15:30 18.87 99600 244000 (2010) 36400 (2006) 115000 36400 43500 55600 76800 97900 180000 180000 212000 244000
2020-06-21 14:30 18.86 99500 244000 (2010) 36400 (2006) 115000 36400 43500 55600 76800 97900 180000 180000 212000 244000
2020-06-21 13:30 18.83 99200 244000 (2010) 36400 (2006) 115000 36400 43500 55600 76800 97900 180000 180000 212000 244000
2020-06-21 12:30 18.79 98900 244000 (2010) 36400 (2006) 115000 36400 43500 55600 76800 97900 180000 180000 212000 244000
2020-06-21 11:30 18.71 98200 244000 (2010) 36400 (2006) 115000 36400 43500 55600 76800 97900 180000 180000 212000 244000
2020-06-21 10:30 18.73 98400 244000 (2010) 36400 (2006) 115000 36400 43500 55600 76800 97900 180000 180000 212000 244000
2020-06-21 09:30 18.76 98600 244000 (2010) 36400 (2006) 115000 36400 43500 55600 76800 97900 180000 180000 212000 244000
2020-06-21 08:30 18.75 98500 244000 (2010) 36400 (2006) 115000 36400 43500 55600 76800 97900 180000 180000 212000 244000
2020-06-21 07:30 18.76 98600 244000 (2010) 36400 (2006) 115000 36400 43500 55600 76800 97900 180000 180000 212000 244000
2020-06-21 06:30 18.77 98700 244000 (2010) 36400 (2006) 115000 36400 43500 55600 76800 97900 180000 180000 212000 244000
2020-06-21 05:30 18.79 98900 244000 (2010) 36400 (2006) 115000 36400 43500 55600 76800 97900 180000 180000 212000 244000
2020-06-21 04:30 18.79 98900 244000 (2010) 36400 (2006) 115000 36400 43500 55600 76800 97900 180000 180000 212000 244000
2020-06-21 03:30 18.80 99000 244000 (2010) 36400 (2006) 115000 36400 43500 55600 76800 97900 180000 180000 212000 244000
2020-06-21 02:30 18.82 99100 244000 (2010) 36400 (2006) 115000 36400 43500 55600 76800 97900 180000 180000 212000 244000
2020-06-21 01:30 18.82 99100 244000 (2010) 36400 (2006) 115000 36400 43500 55600 76800 97900 180000 180000 212000 244000
2020-06-21 00:30 18.81 99100 244000 (2010) 36400 (2006) 115000 36400 43500 55600 76800 97900 180000 180000 212000 244000
2020-06-20 23:30 18.81 99100 269000 (2010) 36800 (2006) 116000 36800 45400 59200 76100 105000 156000 181000 212000 269000
2020-06-20 22:30 18.80 99000 269000 (2010) 36800 (2006) 116000 36800 45400 59200 76100 105000 156000 181000 212000 269000
2020-06-20 21:30 18.80 99000 269000 (2010) 36800 (2006) 116000 36800 45400 59200 76100 105000 156000 181000 212000 269000
2020-06-20 20:30 18.76 98600 269000 (2010) 36800 (2006) 116000 36800 45400 59200 76100 105000 156000 181000 212000 269000
2020-06-20 19:30 18.73 98400 269000 (2010) 36800 (2006) 116000 36800 45400 59200 76100 105000 156000 181000 212000 269000
2020-06-20 18:30 18.70 98100 269000 (2010) 36800 (2006) 116000 36800 45400 59200 76100 105000 156000 181000 212000 269000
2020-06-20 17:30 18.70 98100 269000 (2010) 36800 (2006) 116000 36800 45400 59200 76100 105000 156000 181000 212000 269000
2020-06-20 16:30 18.70 98100 269000 (2010) 36800 (2006) 116000 36800 45400 59200 76100 105000 156000 181000 212000 269000
2020-06-20 15:30 18.68 97900 269000 (2010) 36800 (2006) 116000 36800 45400 59200 76100 105000 156000 181000 212000 269000
2020-06-20 14:30 18.68 97900 269000 (2010) 36800 (2006) 116000 36800 45400 59200 76100 105000 156000 181000 212000 269000
2020-06-20 13:30 18.71 98200 269000 (2010) 36800 (2006) 116000 36800 45400 59200 76100 105000 156000 181000 212000 269000
2020-06-20 12:30 18.66 97700 269000 (2010) 36800 (2006) 116000 36800 45400 59200 76100 105000 156000 181000 212000 269000
2020-06-20 11:30 18.67 97800 269000 (2010) 36800 (2006) 116000 36800 45400 59200 76100 105000 156000 181000 212000 269000
2020-06-20 10:30 18.63 97500 269000 (2010) 36800 (2006) 116000 36800 45400 59200 76100 105000 156000 181000 212000 269000
2020-06-20 09:30 18.61 97300 269000 (2010) 36800 (2006) 116000 36800 45400 59200 76100 105000 156000 181000 212000 269000
2020-06-20 08:30 18.62 97400 269000 (2010) 36800 (2006) 116000 36800 45400 59200 76100 105000 156000 181000 212000 269000
2020-06-20 07:30 18.61 97300 269000 (2010) 36800 (2006) 116000 36800 45400 59200 76100 105000 156000 181000 212000 269000
2020-06-20 06:30 18.61 97300 269000 (2010) 36800 (2006) 116000 36800 45400 59200 76100 105000 156000 181000 212000 269000
2020-06-20 05:30 18.59 97100 269000 (2010) 36800 (2006) 116000 36800 45400 59200 76100 105000 156000 181000 212000 269000
2020-06-20 04:30 18.57 97000 269000 (2010) 36800 (2006) 116000 36800 45400 59200 76100 105000 156000 181000 212000 269000
2020-06-20 03:30 18.62 97400 269000 (2010) 36800 (2006) 116000 36800 45400 59200 76100 105000 156000 181000 212000 269000
2020-06-20 02:30 18.57 97000 269000 (2010) 36800 (2006) 116000 36800 45400 59200 76100 105000 156000 181000 212000 269000
2020-06-20 01:30 18.57 97000 269000 (2010) 36800 (2006) 116000 36800 45400 59200 76100 105000 156000 181000 212000 269000
2020-06-20 00:30 18.51 96400 269000 (2010) 36800 (2006) 116000 36800 45400 59200 76100 105000 156000 181000 212000 269000
2020-06-19 23:30 18.46 96000 279000 (2010) 36700 (2006) 123000 36700 48300 58800 76000 113000 177000 184000 226000 279000
2020-06-19 22:30 18.45 95900 279000 (2010) 36700 (2006) 123000 36700 48300 58800 76000 113000 177000 184000 226000 279000
2020-06-19 21:30 18.44 95800 279000 (2010) 36700 (2006) 123000 36700 48300 58800 76000 113000 177000 184000 226000 279000
2020-06-19 20:30 18.42 95700 279000 (2010) 36700 (2006) 123000 36700 48300 58800 76000 113000 177000 184000 226000 279000
2020-06-19 19:30 18.38 95300 279000 (2010) 36700 (2006) 123000 36700 48300 58800 76000 113000 177000 184000 226000 279000
2020-06-19 18:30 18.41 95600 279000 (2010) 36700 (2006) 123000 36700 48300 58800 76000 113000 177000 184000 226000 279000
2020-06-19 17:30 18.42 95700 279000 (2010) 36700 (2006) 123000 36700 48300 58800 76000 113000 177000 184000 226000 279000
2020-06-19 16:30 18.48 96200 279000 (2010) 36700 (2006) 123000 36700 48300 58800 76000 113000 177000 184000 226000 279000
2020-06-19 15:30 18.39 95400 279000 (2010) 36700 (2006) 123000 36700 48300 58800 76000 113000 177000 184000 226000 279000
2020-06-19 14:30 18.34 95000 279000 (2010) 36700 (2006) 123000 36700 48300 58800 76000 113000 177000 184000 226000 279000
2020-06-19 13:30 18.35 95000 279000 (2010) 36700 (2006) 123000 36700 48300 58800 76000 113000 177000 184000 226000 279000
2020-06-19 12:30 18.42 95700 279000 (2010) 36700 (2006) 123000 36700 48300 58800 76000 113000 177000 184000 226000 279000
2020-06-19 11:30 18.44 95800 279000 (2010) 36700 (2006) 123000 36700 48300 58800 76000 113000 177000 184000 226000 279000
2020-06-19 10:30 18.42 95700 279000 (2010) 36700 (2006) 123000 36700 48300 58800 76000 113000 177000 184000 226000 279000
2020-06-19 09:30 18.42 95700 279000 (2010) 36700 (2006) 123000 36700 48300 58800 76000 113000 177000 184000 226000 279000
2020-06-19 08:30 18.44 95800 279000 (2010) 36700 (2006) 123000 36700 48300 58800 76000 113000 177000 184000 226000 279000
2020-06-19 07:30 18.44 95800 279000 (2010) 36700 (2006) 123000 36700 48300 58800 76000 113000 177000 184000 226000 279000
2020-06-19 06:30 18.44 95800 279000 (2010) 36700 (2006) 123000 36700 48300 58800 76000 113000 177000 184000 226000 279000
2020-06-19 05:30 18.45 95900 279000 (2010) 36700 (2006) 123000 36700 48300 58800 76000 113000 177000 184000 226000 279000
2020-06-19 04:30 18.42 95700 279000 (2010) 36700 (2006) 123000 36700 48300 58800 76000 113000 177000 184000 226000 279000
2020-06-19 03:30 18.45 95900 279000 (2010) 36700 (2006) 123000 36700 48300 58800 76000 113000 177000 184000 226000 279000
2020-06-19 02:30 18.41 95600 279000 (2010) 36700 (2006) 123000 36700 48300 58800 76000 113000 177000 184000 226000 279000
2020-06-19 01:30 18.42 95700 279000 (2010) 36700 (2006) 123000 36700 48300 58800 76000 113000 177000 184000 226000 279000
2020-06-19 00:30 18.46 96000 279000 (2010) 36700 (2006) 123000 36700 48300 58800 76000 113000 177000 184000 226000 279000
2020-06-18 23:30 18.48 96200 266000 (2010) 37400 (2006) 127000 37400 51700 59700 77100 97300 183000 205000 251000 266000
2020-06-18 22:30 18.46 96000 266000 (2010) 37400 (2006) 127000 37400 51700 59700 77100 97300 183000 205000 251000 266000
2020-06-18 21:30 18.49 96300 266000 (2010) 37400 (2006) 127000 37400 51700 59700 77100 97300 183000 205000 251000 266000
2020-06-18 20:30 18.49 96300 266000 (2010) 37400 (2006) 127000 37400 51700 59700 77100 97300 183000 205000 251000 266000
2020-06-18 19:30 18.46 96000 266000 (2010) 37400 (2006) 127000 37400 51700 59700 77100 97300 183000 205000 251000 266000
2020-06-18 18:30 18.44 95800 266000 (2010) 37400 (2006) 127000 37400 51700 59700 77100 97300 183000 205000 251000 266000
2020-06-18 17:30 18.44 95800 266000 (2010) 37400 (2006) 127000 37400 51700 59700 77100 97300 183000 205000 251000 266000
2020-06-18 16:30 18.45 95900 266000 (2010) 37400 (2006) 127000 37400 51700 59700 77100 97300 183000 205000 251000 266000
2020-06-18 15:30 18.48 96200 266000 (2010) 37400 (2006) 127000 37400 51700 59700 77100 97300 183000 205000 251000 266000
2020-06-18 14:30 18.47 96100 266000 (2010) 37400 (2006) 127000 37400 51700 59700 77100 97300 183000 205000 251000 266000
2020-06-18 13:30 18.49 96300 266000 (2010) 37400 (2006) 127000 37400 51700 59700 77100 97300 183000 205000 251000 266000
2020-06-18 12:30 18.47 96100 266000 (2010) 37400 (2006) 127000 37400 51700 59700 77100 97300 183000 205000 251000 266000
2020-06-18 11:30 18.49 96300 266000 (2010) 37400 (2006) 127000 37400 51700 59700 77100 97300 183000 205000 251000 266000
2020-06-18 10:30 18.51 96400 266000 (2010) 37400 (2006) 127000 37400 51700 59700 77100 97300 183000 205000 251000 266000
2020-06-18 09:30 18.49 96300 266000 (2010) 37400 (2006) 127000 37400 51700 59700 77100 97300 183000 205000 251000 266000
2020-06-18 08:30 18.48 96200 266000 (2010) 37400 (2006) 127000 37400 51700 59700 77100 97300 183000 205000 251000 266000
2020-06-18 07:30 18.50 96300 266000 (2010) 37400 (2006) 127000 37400 51700 59700 77100 97300 183000 205000 251000 266000
2020-06-18 06:30 18.53 96600 266000 (2010) 37400 (2006) 127000 37400 51700 59700 77100 97300 183000 205000 251000 266000
2020-06-18 05:30 18.53 96600 266000 (2010) 37400 (2006) 127000 37400 51700 59700 77100 97300 183000 205000 251000 266000
2020-06-18 04:30 18.53 96600 266000 (2010) 37400 (2006) 127000 37400 51700 59700 77100 97300 183000 205000 251000 266000
2020-06-18 03:30 18.53 96600 266000 (2010) 37400 (2006) 127000 37400 51700 59700 77100 97300 183000 205000 251000 266000
2020-06-18 02:30 18.55 96800 266000 (2010) 37400 (2006) 127000 37400 51700 59700 77100 97300 183000 205000 251000 266000
2020-06-18 01:30 18.55 96800 266000 (2010) 37400 (2006) 127000 37400 51700 59700 77100 97300 183000 205000 251000 266000
2020-06-18 00:30 18.51 96400 266000 (2010) 37400 (2006) 127000 37400 51700 59700 77100 97300 183000 205000 251000 266000
2020-06-17 23:30 18.54 96700 260000 (2008) 38300 (2006) 130000 38300 51000 67700 80300 105000 180000 199000 257000 260000
2020-06-17 22:30 18.53 96600 260000 (2008) 38300 (2006) 130000 38300 51000 67700 80300 105000 180000 199000 257000 260000
2020-06-17 21:30 18.58 97000 260000 (2008) 38300 (2006) 130000 38300 51000 67700 80300 105000 180000 199000 257000 260000
2020-06-17 20:30 18.59 97100 260000 (2008) 38300 (2006) 130000 38300 51000 67700 80300 105000 180000 199000 257000 260000
2020-06-17 19:30 18.57 97000 260000 (2008) 38300 (2006) 130000 38300 51000 67700 80300 105000 180000 199000 257000 260000
2020-06-17 18:30 18.57 97000 260000 (2008) 38300 (2006) 130000 38300 51000 67700 80300 105000 180000 199000 257000 260000
2020-06-17 17:30 18.56 96900 260000 (2008) 38300 (2006) 130000 38300 51000 67700 80300 105000 180000 199000 257000 260000
2020-06-17 16:30 18.57 97000 260000 (2008) 38300 (2006) 130000 38300 51000 67700 80300 105000 180000 199000 257000 260000
2020-06-17 15:30 18.60 97200 260000 (2008) 38300 (2006) 130000 38300 51000 67700 80300 105000 180000 199000 257000 260000
2020-06-17 14:30 18.62 97400 260000 (2008) 38300 (2006) 130000 38300 51000 67700 80300 105000 180000 199000 257000 260000
2020-06-17 13:30 18.60 97200 260000 (2008) 38300 (2006) 130000 38300 51000 67700 80300 105000 180000 199000 257000 260000
2020-06-17 12:30 18.62 97400 260000 (2008) 38300 (2006) 130000 38300 51000 67700 80300 105000 180000 199000 257000 260000
2020-06-17 11:30 18.62 97400 260000 (2008) 38300 (2006) 130000 38300 51000 67700 80300 105000 180000 199000 257000 260000
2020-06-17 10:30 18.66 97700 260000 (2008) 38300 (2006) 130000 38300 51000 67700 80300 105000 180000 199000 257000 260000
2020-06-17 09:30 18.70 98100 260000 (2008) 38300 (2006) 130000 38300 51000 67700 80300 105000 180000 199000 257000 260000
2020-06-17 08:30 18.71 98200 260000 (2008) 38300 (2006) 130000 38300 51000 67700 80300 105000 180000 199000 257000 260000
2020-06-17 07:30 18.74 98400 260000 (2008) 38300 (2006) 130000 38300 51000 67700 80300 105000 180000 199000 257000 260000
2020-06-17 06:30 18.77 98700 260000 (2008) 38300 (2006) 130000 38300 51000 67700 80300 105000 180000 199000 257000 260000
2020-06-17 05:30 18.78 98800 260000 (2008) 38300 (2006) 130000 38300 51000 67700 80300 105000 180000 199000 257000 260000
2020-06-17 04:30 18.79 98900 260000 (2008) 38300 (2006) 130000 38300 51000 67700 80300 105000 180000 199000 257000 260000
2020-06-17 03:30 18.78 98800 260000 (2008) 38300 (2006) 130000 38300 51000 67700 80300 105000 180000 199000 257000 260000
2020-06-17 02:30 18.74 98400 260000 (2008) 38300 (2006) 130000 38300 51000 67700 80300 105000 180000 199000 257000 260000
2020-06-17 01:30 18.79 98900 260000 (2008) 38300 (2006) 130000 38300 51000 67700 80300 105000 180000 199000 257000 260000
2020-06-17 00:30 18.77 98700 260000 (2008) 38300 (2006) 130000 38300 51000 67700 80300 105000 180000 199000 257000 260000
2020-06-16 23:30 18.78 98800 264000 (2008) 40200 (2006) 130000 40200 52300 71700 84300 103000 164000 211000 255000 264000
2020-06-16 22:30 18.79 98900 264000 (2008) 40200 (2006) 130000 40200 52300 71700 84300 103000 164000 211000 255000 264000
2020-06-16 21:30 18.82 99100 264000 (2008) 40200 (2006) 130000 40200 52300 71700 84300 103000 164000 211000 255000 264000
2020-06-16 20:30 18.80 99000 264000 (2008) 40200 (2006) 130000 40200 52300 71700 84300 103000 164000 211000 255000 264000
2020-06-16 19:30 18.76 98600 264000 (2008) 40200 (2006) 130000 40200 52300 71700 84300 103000 164000 211000 255000 264000
2020-06-16 18:30 18.78 98800 264000 (2008) 40200 (2006) 130000 40200 52300 71700 84300 103000 164000 211000 255000 264000
2020-06-16 17:30 18.77 98700 264000 (2008) 40200 (2006) 130000 40200 52300 71700 84300 103000 164000 211000 255000 264000
2020-06-16 16:30 18.76 98600 264000 (2008) 40200 (2006) 130000 40200 52300 71700 84300 103000 164000 211000 255000 264000
2020-06-16 15:30 18.72 98300 264000 (2008) 40200 (2006) 130000 40200 52300 71700 84300 103000 164000 211000 255000 264000
2020-06-16 14:30 18.72 98300 264000 (2008) 40200 (2006) 130000 40200 52300 71700 84300 103000 164000 211000 255000 264000
2020-06-16 13:30 18.71 98200 264000 (2008) 40200 (2006) 130000 40200 52300 71700 84300 103000 164000 211000 255000 264000
2020-06-16 12:30 18.71 98200 264000 (2008) 40200 (2006) 130000 40200 52300 71700 84300 103000 164000 211000 255000 264000
2020-06-16 11:30 18.67 97800 264000 (2008) 40200 (2006) 130000 40200 52300 71700 84300 103000 164000 211000 255000 264000
2020-06-16 10:30 18.70 98100 264000 (2008) 40200 (2006) 130000 40200 52300 71700 84300 103000 164000 211000 255000 264000
2020-06-16 09:30 18.71 98200 264000 (2008) 40200 (2006) 130000 40200 52300 71700 84300 103000 164000 211000 255000 264000
2020-06-16 08:30 18.70 98100 264000 (2008) 40200 (2006) 130000 40200 52300 71700 84300 103000 164000 211000 255000 264000
2020-06-16 07:30 18.73 98400 264000 (2008) 40200 (2006) 130000 40200 52300 71700 84300 103000 164000 211000 255000 264000
2020-06-16 06:30 18.72 98300 264000 (2008) 40200 (2006) 130000 40200 52300 71700 84300 103000 164000 211000 255000 264000
2020-06-16 05:30 18.72 98300 264000 (2008) 40200 (2006) 130000 40200 52300 71700 84300 103000 164000 211000 255000 264000
2020-06-16 04:30 18.73 98400 264000 (2008) 40200 (2006) 130000 40200 52300 71700 84300 103000 164000 211000 255000 264000
2020-06-16 03:30 18.73 98400 264000 (2008) 40200 (2006) 130000 40200 52300 71700 84300 103000 164000 211000 255000 264000
2020-06-16 02:30 18.76 98600 264000 (2008) 40200 (2006) 130000 40200 52300 71700 84300 103000 164000 211000 255000 264000
2020-06-16 01:30 18.74 98400 264000 (2008) 40200 (2006) 130000 40200 52300 71700 84300 103000 164000 211000 255000 264000
2020-06-16 00:30 18.77 98700 264000 (2008) 40200 (2006) 130000 40200 52300 71700 84300 103000 164000 211000 255000 264000
2020-06-15 23:30 18.78 98800 265000 (2008) 43000 (2006) 129000 43000 54700 83400 84900 100000 161000 233000 260000 265000
2020-06-15 22:30 18.79 98900 265000 (2008) 43000 (2006) 129000 43000 54700 83400 84900 100000 161000 233000 260000 265000
2020-06-15 21:30 18.84 99300 265000 (2008) 43000 (2006) 129000 43000 54700 83400 84900 100000 161000 233000 260000 265000
2020-06-15 20:30 18.81 99100 265000 (2008) 43000 (2006) 129000 43000 54700 83400 84900 100000 161000 233000 260000 265000
2020-06-15 19:30 18.83 99200 265000 (2008) 43000 (2006) 129000 43000 54700 83400 84900 100000 161000 233000 260000 265000
2020-06-15 18:30 18.84 99300 265000 (2008) 43000 (2006) 129000 43000 54700 83400 84900 100000 161000 233000 260000 265000
2020-06-15 17:30 18.89 99800 265000 (2008) 43000 (2006) 129000 43000 54700 83400 84900 100000 161000 233000 260000 265000
2020-06-15 16:30 18.92 100000 265000 (2008) 43000 (2006) 129000 43000 54700 83400 84900 100000 161000 233000 260000 265000
2020-06-15 15:30 18.92 100000 265000 (2008) 43000 (2006) 129000 43000 54700 83400 84900 100000 161000 233000 260000 265000
2020-06-15 14:30 18.94 100000 265000 (2008) 43000 (2006) 129000 43000 54700 83400 84900 100000 161000 233000 260000 265000
2020-06-15 13:30 18.98 101000 265000 (2008) 43000 (2006) 129000 43000 54700 83400 84900 100000 161000 233000 260000 265000
2020-06-15 12:30 19.03 101000 265000 (2008) 43000 (2006) 129000 43000 54700 83400 84900 100000 161000 233000 260000 265000
2020-06-15 11:30 19.00 101000 265000 (2008) 43000 (2006) 129000 43000 54700 83400 84900 100000 161000 233000 260000 265000
2020-06-15 10:30 19.04 101000 265000 (2008) 43000 (2006) 129000 43000 54700 83400 84900 100000 161000 233000 260000 265000
2020-06-15 09:30 19.08 101000 265000 (2008) 43000 (2006) 129000 43000 54700 83400 84900 100000 161000 233000 260000 265000
2020-06-15 08:30 19.09 102000 265000 (2008) 43000 (2006) 129000 43000 54700 83400 84900 100000 161000 233000 260000 265000
2020-06-15 07:30 19.18 102000 265000 (2008) 43000 (2006) 129000 43000 54700 83400 84900 100000 161000 233000 260000 265000
2020-06-15 06:30 19.21 103000 265000 (2008) 43000 (2006) 129000 43000 54700 83400 84900 100000 161000 233000 260000 265000
2020-06-15 05:30 19.25 103000 265000 (2008) 43000 (2006) 129000 43000 54700 83400 84900 100000 161000 233000 260000 265000
2020-06-15 04:30 19.31 104000 265000 (2008) 43000 (2006) 129000 43000 54700 83400 84900 100000 161000 233000 260000 265000
2020-06-15 03:30 19.39 104000 265000 (2008) 43000 (2006) 129000 43000 54700 83400 84900 100000 161000 233000 260000 265000
2020-06-15 02:30 19.41 104000 265000 (2008) 43000 (2006) 129000 43000 54700 83400 84900 100000 161000 233000 260000 265000
2020-06-15 01:30 19.41 104000 265000 (2008) 43000 (2006) 129000 43000 54700 83400 84900 100000 161000 233000 260000 265000
2020-06-15 00:30 19.43 105000 265000 (2008) 43000 (2006) 129000 43000 54700 83400 84900 100000 161000 233000 260000 265000
2020-06-14 23:30 19.55 106000 271000 (2019) 47300 (2006) 128000 47300 53900 80100 80100 102000 191000 211000 247000 271000
2020-06-14 22:30 19.64 107000 271000 (2019) 47300 (2006) 128000 47300 53900 80100 80100 102000 191000 211000 247000 271000
2020-06-14 21:30 19.67 107000 271000 (2019) 47300 (2006) 128000 47300 53900 80100 80100 102000 191000 211000 247000 271000
2020-06-14 20:30 19.72 107000 271000 (2019) 47300 (2006) 128000 47300 53900 80100 80100 102000 191000 211000 247000 271000
2020-06-14 19:30 19.72 107000 271000 (2019) 47300 (2006) 128000 47300 53900 80100 80100 102000 191000 211000 247000 271000
2020-06-14 18:30 19.79 108000 271000 (2019) 47300 (2006) 128000 47300 53900 80100 80100 102000 191000 211000 247000 271000
2020-06-14 17:30 19.82 108000 271000 (2019) 47300 (2006) 128000 47300 53900 80100 80100 102000 191000 211000 247000 271000
2020-06-14 16:30 19.85 109000 271000 (2019) 47300 (2006) 128000 47300 53900 80100 80100 102000 191000 211000 247000 271000
2020-06-14 15:30 19.93 109000 271000 (2019) 47300 (2006) 128000 47300 53900 80100 80100 102000 191000 211000 247000 271000
2020-06-14 14:30 19.98 110000 271000 (2019) 47300 (2006) 128000 47300 53900 80100 80100 102000 191000 211000 247000 271000
2020-06-14 13:30 20.03 110000 271000 (2019) 47300 (2006) 128000 47300 53900 80100 80100 102000 191000 211000 247000 271000
2020-06-14 12:30 20.10 111000 271000 (2019) 47300 (2006) 128000 47300 53900 80100 80100 102000 191000 211000 247000 271000
2020-06-14 11:30 20.13 111000 271000 (2019) 47300 (2006) 128000 47300 53900 80100 80100 102000 191000 211000 247000 271000
2020-06-14 10:30 20.17 112000 271000 (2019) 47300 (2006) 128000 47300 53900 80100 80100 102000 191000 211000 247000 271000
2020-06-14 09:30 20.19 112000 271000 (2019) 47300 (2006) 128000 47300 53900 80100 80100 102000 191000 211000 247000 271000
2020-06-14 08:30 20.25 112000 271000 (2019) 47300 (2006) 128000 47300 53900 80100 80100 102000 191000 211000 247000 271000
2020-06-14 07:30 20.26 113000 271000 (2019) 47300 (2006) 128000 47300 53900 80100 80100 102000 191000 211000 247000 271000
2020-06-14 06:30 20.33 113000 271000 (2019) 47300 (2006) 128000 47300 53900 80100 80100 102000 191000 211000 247000 271000
2020-06-14 05:30 20.40 114000 271000 (2019) 47300 (2006) 128000 47300 53900 80100 80100 102000 191000 211000 247000 271000
2020-06-14 04:30 20.40 114000 271000 (2019) 47300 (2006) 128000 47300 53900 80100 80100 102000 191000 211000 247000 271000
2020-06-14 03:30 20.42 114000 271000 (2019) 47300 (2006) 128000 47300 53900 80100 80100 102000 191000 211000 247000 271000
2020-06-14 02:30 20.46 115000 271000 (2019) 47300 (2006) 128000 47300 53900 80100 80100 102000 191000 211000 247000 271000
2020-06-14 01:30 20.49 115000 271000 (2019) 47300 (2006) 128000 47300 53900 80100 80100 102000 191000 211000 247000 271000
2020-06-14 00:30 20.55 115000 271000 (2019) 47300 (2006) 128000 47300 53900 80100 80100 102000 191000 211000 247000 271000
2020-06-13 23:30 20.59 116000 282000 (2019) 49200 (2006) 124000 49200 55000 75000 77600 108000 174000 174000 219000 282000
2020-06-13 22:30 20.60 116000 282000 (2019) 49200 (2006) 124000 49200 55000 75000 77600 108000 174000 174000 219000 282000
2020-06-13 21:30 20.57 116000 282000 (2019) 49200 (2006) 124000 49200 55000 75000 77600 108000 174000 174000 219000 282000
2020-06-13 20:30 20.60 116000 282000 (2019) 49200 (2006) 124000 49200 55000 75000 77600 108000 174000 174000 219000 282000
2020-06-13 19:30 20.62 116000 282000 (2019) 49200 (2006) 124000 49200 55000 75000 77600 108000 174000 174000 219000 282000
2020-06-13 18:30 20.64 116000 282000 (2019) 49200 (2006) 124000 49200 55000 75000 77600 108000 174000 174000 219000 282000
2020-06-13 17:30 20.65 116000 282000 (2019) 49200 (2006) 124000 49200 55000 75000 77600 108000 174000 174000 219000 282000
2020-06-13 16:30 20.61 116000 282000 (2019) 49200 (2006) 124000 49200 55000 75000 77600 108000 174000 174000 219000 282000
2020-06-13 15:30 20.65 116000 282000 (2019) 49200 (2006) 124000 49200 55000 75000 77600 108000 174000 174000 219000 282000
2020-06-13 14:30 20.65 116000 282000 (2019) 49200 (2006) 124000 49200 55000 75000 77600 108000 174000 174000 219000 282000
2020-06-13 13:30 20.63 116000 282000 (2019) 49200 (2006) 124000 49200 55000 75000 77600 108000 174000 174000 219000 282000
2020-06-13 12:30 20.61 116000 282000 (2019) 49200 (2006) 124000 49200 55000 75000 77600 108000 174000 174000 219000 282000
2020-06-13 11:30 20.61 116000 282000 (2019) 49200 (2006) 124000 49200 55000 75000 77600 108000 174000 174000 219000 282000
2020-06-13 10:30 20.63 116000 282000 (2019) 49200 (2006) 124000 49200 55000 75000 77600 108000 174000 174000 219000 282000
2020-06-13 09:30 20.62 116000 282000 (2019) 49200 (2006) 124000 49200 55000 75000 77600 108000 174000 174000 219000 282000
2020-06-13 08:30 20.54 115000 282000 (2019) 49200 (2006) 124000 49200 55000 75000 77600 108000 174000 174000 219000 282000
2020-06-13 07:30 20.56 116000 282000 (2019) 49200 (2006) 124000 49200 55000 75000 77600 108000 174000 174000 219000 282000
2020-06-13 06:30 20.58 116000 282000 (2019) 49200 (2006) 124000 49200 55000 75000 77600 108000 174000 174000 219000 282000
2020-06-13 05:30 20.53 115000 282000 (2019) 49200 (2006) 124000 49200 55000 75000 77600 108000 174000 174000 219000 282000
2020-06-13 04:30 20.50 115000 282000 (2019) 49200 (2006) 124000 49200 55000 75000 77600 108000 174000 174000 219000 282000
2020-06-13 03:30 20.46 115000 282000 (2019) 49200 (2006) 124000 49200 55000 75000 77600 108000 174000 174000 219000 282000
2020-06-13 02:30 20.40 114000 282000 (2019) 49200 (2006) 124000 49200 55000 75000 77600 108000 174000 174000 219000 282000
2020-06-13 01:30 20.36 114000 282000 (2019) 49200 (2006) 124000 49200 55000 75000 77600 108000 174000 174000 219000 282000
2020-06-13 00:30 20.33 113000 282000 (2019) 49200 (2006) 124000 49200 55000 75000 77600 108000 174000 174000 219000 282000
2020-06-12 23:30 20.28 113000 291000 (2019) 46700 (2003) 122000 46700 47600 73700 79000 115000 151000 175000 226000 291000
2020-06-12 22:30 20.26 113000 291000 (2019) 46700 (2003) 122000 46700 47600 73700 79000 115000 151000 175000 226000 291000
2020-06-12 21:30 20.21 112000 291000 (2019) 46700 (2003) 122000 46700 47600 73700 79000 115000 151000 175000 226000 291000
2020-06-12 20:30 20.16 112000 291000 (2019) 46700 (2003) 122000 46700 47600 73700 79000 115000 151000 175000 226000 291000
2020-06-12 19:30 20.14 111000 291000 (2019) 46700 (2003) 122000 46700 47600 73700 79000 115000 151000 175000 226000 291000
2020-06-12 18:30 20.11 111000 291000 (2019) 46700 (2003) 122000 46700 47600 73700 79000 115000 151000 175000 226000 291000
2020-06-12 17:30 20.10 111000 291000 (2019) 46700 (2003) 122000 46700 47600 73700 79000 115000 151000 175000 226000 291000
2020-06-12 16:30 20.09 111000 291000 (2019) 46700 (2003) 122000 46700 47600 73700 79000 115000 151000 175000 226000 291000
2020-06-12 15:30 20.05 111000 291000 (2019) 46700 (2003) 122000 46700 47600 73700 79000 115000 151000 175000 226000 291000
2020-06-12 14:30 20.05 111000 291000 (2019) 46700 (2003) 122000 46700 47600 73700 79000 115000 151000 175000 226000 291000
2020-06-12 13:30 20.07 111000 291000 (2019) 46700 (2003) 122000 46700 47600 73700 79000 115000 151000 175000 226000 291000
2020-06-12 12:30 20.04 110000 291000 (2019) 46700 (2003) 122000 46700 47600 73700 79000 115000 151000 175000 226000 291000
2020-06-12 11:30 20.03 110000 291000 (2019) 46700 (2003) 122000 46700 47600 73700 79000 115000 151000 175000 226000 291000
2020-06-12 10:30 19.99 110000 291000 (2019) 46700 (2003) 122000 46700 47600 73700 79000 115000 151000 175000 226000 291000
2020-06-12 09:30 19.99 110000 291000 (2019) 46700 (2003) 122000 46700 47600 73700 79000 115000 151000 175000 226000 291000
2020-06-12 08:30 19.98 110000 291000 (2019) 46700 (2003) 122000 46700 47600 73700 79000 115000 151000 175000 226000 291000
2020-06-12 07:30 20.03 110000 291000 (2019) 46700 (2003) 122000 46700 47600 73700 79000 115000 151000 175000 226000 291000
2020-06-12 06:30 20.02 110000 291000 (2019) 46700 (2003) 122000 46700 47600 73700 79000 115000 151000 175000 226000 291000
2020-06-12 05:30 20.06 111000 291000 (2019) 46700 (2003) 122000 46700 47600 73700 79000 115000 151000 175000 226000 291000
2020-06-12 04:30 20.06 111000 291000 (2019) 46700 (2003) 122000 46700 47600 73700 79000 115000 151000 175000 226000 291000
2020-06-12 03:30 20.06 111000 291000 (2019) 46700 (2003) 122000 46700 47600 73700 79000 115000 151000 175000 226000 291000
2020-06-12 02:30 20.08 111000 291000 (2019) 46700 (2003) 122000 46700 47600 73700 79000 115000 151000 175000 226000 291000
2020-06-12 01:30 20.12 111000 291000 (2019) 46700 (2003) 122000 46700 47600 73700 79000 115000 151000 175000 226000 291000
2020-06-12 00:30 20.12 111000 291000 (2019) 46700 (2003) 122000 46700 47600 73700 79000 115000 151000 175000 226000 291000
2020-06-11 23:30 20.15 112000 304000 (2019) 42900 (2006) 124000 42900 44700 54900 72900 118000 150000 183000 238000 304000
2020-06-11 22:30 20.18 112000 304000 (2019) 42900 (2006) 124000 42900 44700 54900 72900 118000 150000 183000 238000 304000
2020-06-11 21:30 20.18 112000 304000 (2019) 42900 (2006) 124000 42900 44700 54900 72900 118000 150000 183000 238000 304000
2020-06-11 20:30 20.22 112000 304000 (2019) 42900 (2006) 124000 42900 44700 54900 72900 118000 150000 183000 238000 304000
2020-06-11 19:30 20.21 112000 304000 (2019) 42900 (2006) 124000 42900 44700 54900 72900 118000 150000 183000 238000 304000
2020-06-11 18:30 20.26 113000 304000 (2019) 42900 (2006) 124000 42900 44700 54900 72900 118000 150000 183000 238000 304000
2020-06-11 17:30 20.29 113000 304000 (2019) 42900 (2006) 124000 42900 44700 54900 72900 118000 150000 183000 238000 304000
2020-06-11 16:30 20.31 113000 304000 (2019) 42900 (2006) 124000 42900 44700 54900 72900 118000 150000 183000 238000 304000
2020-06-11 15:30 20.35 113000 304000 (2019) 42900 (2006) 124000 42900 44700 54900 72900 118000 150000 183000 238000 304000
2020-06-11 14:30 20.40 114000 304000 (2019) 42900 (2006) 124000 42900 44700 54900 72900 118000 150000 183000 238000 304000
2020-06-11 13:30 20.42 114000 304000 (2019) 42900 (2006) 124000 42900 44700 54900 72900 118000 150000 183000 238000 304000
2020-06-11 12:30 20.49 115000 304000 (2019) 42900 (2006) 124000 42900 44700 54900 72900 118000 150000 183000 238000 304000
2020-06-11 11:30 20.51 115000 304000 (2019) 42900 (2006) 124000 42900 44700 54900 72900 118000 150000 183000 238000 304000
2020-06-11 10:30 20.55 115000 304000 (2019) 42900 (2006) 124000 42900 44700 54900 72900 118000 150000 183000 238000 304000
2020-06-11 09:30 20.57 116000 304000 (2019) 42900 (2006) 124000 42900 44700 54900 72900 118000 150000 183000 238000 304000
2020-06-11 08:30 20.62 116000 304000 (2019) 42900 (2006) 124000 42900 44700 54900 72900 118000 150000 183000 238000 304000
2020-06-11 07:30 20.64 116000 304000 (2019) 42900 (2006) 124000 42900 44700 54900 72900 118000 150000 183000 238000 304000
2020-06-11 06:30 20.71 117000 304000 (2019) 42900 (2006) 124000 42900 44700 54900 72900 118000 150000 183000 238000 304000
2020-06-11 05:30 20.76 118000 304000 (2019) 42900 (2006) 124000 42900 44700 54900 72900 118000 150000 183000 238000 304000
2020-06-11 04:30 20.83 118000 304000 (2019) 42900 (2006) 124000 42900 44700 54900 72900 118000 150000 183000 238000 304000
2020-06-11 03:30 20.86 119000 304000 (2019) 42900 (2006) 124000 42900 44700 54900 72900 118000 150000 183000 238000 304000
2020-06-11 02:30 20.93 119000 304000 (2019) 42900 (2006) 124000 42900 44700 54900 72900 118000 150000 183000 238000 304000
2020-06-11 01:30 20.98 120000 304000 (2019) 42900 (2006) 124000 42900 44700 54900 72900 118000 150000 183000 238000 304000
2020-06-11 00:30 21.02 120000 304000 (2019) 42900 (2006) 124000 42900 44700 54900 72900 118000 150000 183000 238000 304000
2020-06-10 23:30 21.04 120000 312000 (2019) 37600 (2006) 125000 37600 44600 55900 68900 106000 176000 182000 237000 312000
2020-06-10 22:30 21.13 121000 312000 (2019) 37600 (2006) 125000 37600 44600 55900 68900 106000 176000 182000 237000 312000
2020-06-10 21:30 21.16 122000 312000 (2019) 37600 (2006) 125000 37600 44600 55900 68900 106000 176000 182000 237000 312000
2020-06-10 20:30 21.22 122000 312000 (2019) 37600 (2006) 125000 37600 44600 55900 68900 106000 176000 182000 237000 312000
2020-06-10 19:30 21.25 123000 312000 (2019) 37600 (2006) 125000 37600 44600 55900 68900 106000 176000 182000 237000 312000
2020-06-10 18:30 21.20 122000 312000 (2019) 37600 (2006) 125000 37600 44600 55900 68900 106000 176000 182000 237000 312000
2020-06-10 17:30 21.25 123000 312000 (2019) 37600 (2006) 125000 37600 44600 55900 68900 106000 176000 182000 237000 312000
2020-06-10 16:30 21.30 123000 312000 (2019) 37600 (2006) 125000 37600 44600 55900 68900 106000 176000 182000 237000 312000
2020-06-10 15:30 21.34 124000 312000 (2019) 37600 (2006) 125000 37600 44600 55900 68900 106000 176000 182000 237000 312000
2020-06-10 14:30 21.35 124000 312000 (2019) 37600 (2006) 125000 37600 44600 55900 68900 106000 176000 182000 237000 312000
2020-06-10 13:30 21.36 124000 312000 (2019) 37600 (2006) 125000 37600 44600 55900 68900 106000 176000 182000 237000 312000
2020-06-10 12:30 21.39 124000 312000 (2019) 37600 (2006) 125000 37600 44600 55900 68900 106000 176000 182000 237000 312000
2020-06-10 11:30 21.37 124000 312000 (2019) 37600 (2006) 125000 37600 44600 55900 68900 106000 176000 182000 237000 312000
2020-06-10 10:30 21.40 124000 312000 (2019) 37600 (2006) 125000 37600 44600 55900 68900 106000 176000 182000 237000 312000
2020-06-10 09:30 21.40 124000 312000 (2019) 37600 (2006) 125000 37600 44600 55900 68900 106000 176000 182000 237000 312000
2020-06-10 08:30 21.41 124000 312000 (2019) 37600 (2006) 125000 37600 44600 55900 68900 106000 176000 182000 237000 312000
2020-06-10 07:30 21.45 125000 312000 (2019) 37600 (2006) 125000 37600 44600 55900 68900 106000 176000 182000 237000 312000
2020-06-10 06:30 21.48 125000 312000 (2019) 37600 (2006) 125000 37600 44600 55900 68900 106000 176000 182000 237000 312000
2020-06-10 05:30 21.50 125000 312000 (2019) 37600 (2006) 125000 37600 44600 55900 68900 106000 176000 182000 237000 312000
2020-06-10 04:30 21.56 126000 312000 (2019) 37600 (2006) 125000 37600 44600 55900 68900 106000 176000 182000 237000 312000
2020-06-10 03:30 21.62 127000 312000 (2019) 37600 (2006) 125000 37600 44600 55900 68900 106000 176000 182000 237000 312000
2020-06-10 02:30 21.64 127000 312000 (2019) 37600 (2006) 125000 37600 44600 55900 68900 106000 176000 182000 237000 312000
2020-06-10 01:30 21.74 128000 312000 (2019) 37600 (2006) 125000 37600 44600 55900 68900 106000 176000 182000 237000 312000
2020-06-10 00:30 21.82 129000 312000 (2019) 37600 (2006) 125000 37600 44600 55900 68900 106000 176000 182000 237000 312000
2020-06-09 23:30 21.85 129000 317000 (2019) 38800 (2006) 128000 38800 45200 57300 66600 111000 188000 203000 227000 317000
2020-06-09 22:30 21.92 130000 317000 (2019) 38800 (2006) 128000 38800 45200 57300 66600 111000 188000 203000 227000 317000
2020-06-09 21:30 21.97 130000 317000 (2019) 38800 (2006) 128000 38800 45200 57300 66600 111000 188000 203000 227000 317000
2020-06-09 20:30 22.01 131000 317000 (2019) 38800 (2006) 128000 38800 45200 57300 66600 111000 188000 203000 227000 317000
2020-06-09 19:30 21.96 130000 317000 (2019) 38800 (2006) 128000 38800 45200 57300 66600 111000 188000 203000 227000 317000
2020-06-09 18:30 21.93 130000 317000 (2019) 38800 (2006) 128000 38800 45200 57300 66600 111000 188000 203000 227000 317000
2020-06-09 17:30 21.82 129000 317000 (2019) 38800 (2006) 128000 38800 45200 57300 66600 111000 188000 203000 227000 317000
2020-06-09 16:30 21.74 128000 317000 (2019) 38800 (2006) 128000 38800 45200 57300 66600 111000 188000 203000 227000 317000
2020-06-09 15:30 21.58 126000 317000 (2019) 38800 (2006) 128000 38800 45200 57300 66600 111000 188000 203000 227000 317000
2020-06-09 14:30 21.45 125000 317000 (2019) 38800 (2006) 128000 38800 45200 57300 66600 111000 188000 203000 227000 317000
2020-06-09 13:30 21.27 123000 317000 (2019) 38800 (2006) 128000 38800 45200 57300 66600 111000 188000 203000 227000 317000
2020-06-09 12:30 21.10 121000 317000 (2019) 38800 (2006) 128000 38800 45200 57300 66600 111000 188000 203000 227000 317000
2020-06-09 11:30 20.91 119000 317000 (2019) 38800 (2006) 128000 38800 45200 57300 66600 111000 188000 203000 227000 317000
2020-06-09 10:30 20.67 117000 317000 (2019) 38800 (2006) 128000 38800 45200 57300 66600 111000 188000 203000 227000 317000
2020-06-09 09:30 20.38 114000 317000 (2019) 38800 (2006) 128000 38800 45200 57300 66600 111000 188000 203000 227000 317000
2020-06-09 08:30 20.18 112000 317000 (2019) 38800 (2006) 128000 38800 45200 57300 66600 111000 188000 203000 227000 317000
2020-06-09 07:30 20.15 112000 317000 (2019) 38800 (2006) 128000 38800 45200 57300 66600 111000 188000 203000 227000 317000
2020-06-09 06:30 20.12 111000 317000 (2019) 38800 (2006) 128000 38800 45200 57300 66600 111000 188000 203000 227000 317000
2020-06-09 05:30 20.16 112000 317000 (2019) 38800 (2006) 128000 38800 45200 57300 66600 111000 188000 203000 227000 317000
2020-06-09 04:30 20.21 112000 317000 (2019) 38800 (2006) 128000 38800 45200 57300 66600 111000 188000 203000 227000 317000
2020-06-09 03:30 20.26 113000 317000 (2019) 38800 (2006) 128000 38800 45200 57300 66600 111000 188000 203000 227000 317000
2020-06-09 02:30 20.29 113000 317000 (2019) 38800 (2006) 128000 38800 45200 57300 66600 111000 188000 203000 227000 317000
2020-06-09 01:30 20.37 114000 317000 (2019) 38800 (2006) 128000 38800 45200 57300 66600 111000 188000 203000 227000 317000
2020-06-09 00:30 20.42 114000 317000 (2019) 38800 (2006) 128000 38800 45200 57300 66600 111000 188000 203000 227000 317000
2020-06-08 23:30 20.48 115000 323000 (2019) 40000 (2006) 131000 40000 45700 58300 58800 111000 181000 190000 261000 323000
2020-06-08 22:30 20.52 115000 323000 (2019) 40000 (2006) 131000 40000 45700 58300 58800 111000 181000 190000 261000 323000
2020-06-08 21:30 20.61 116000 323000 (2019) 40000 (2006) 131000 40000 45700 58300 58800 111000 181000 190000 261000 323000
2020-06-08 20:30 20.66 117000 323000 (2019) 40000 (2006) 131000 40000 45700 58300 58800 111000 181000 190000 261000 323000
2020-06-08 19:30 20.72 117000 323000 (2019) 40000 (2006) 131000 40000 45700 58300 58800 111000 181000 190000 261000 323000
2020-06-08 18:30 20.77 118000 323000 (2019) 40000 (2006) 131000 40000 45700 58300 58800 111000 181000 190000 261000 323000
2020-06-08 17:30 20.82 118000 323000 (2019) 40000 (2006) 131000 40000 45700 58300 58800 111000 181000 190000 261000 323000
2020-06-08 16:30 20.88 119000 323000 (2019) 40000 (2006) 131000 40000 45700 58300 58800 111000 181000 190000 261000 323000
2020-06-08 15:30 20.94 119000 323000 (2019) 40000 (2006) 131000 40000 45700 58300 58800 111000 181000 190000 261000 323000
2020-06-08 14:30 21.01 120000 323000 (2019) 40000 (2006) 131000 40000 45700 58300 58800 111000 181000 190000 261000 323000
2020-06-08 13:30 21.08 121000 323000 (2019) 40000 (2006) 131000 40000 45700 58300 58800 111000 181000 190000 261000 323000
2020-06-08 12:30 21.18 122000 323000 (2019) 40000 (2006) 131000 40000 45700 58300 58800 111000 181000 190000 261000 323000
2020-06-08 11:30 21.27 123000 323000 (2019) 40000 (2006) 131000 40000 45700 58300 58800 111000 181000 190000 261000 323000
2020-06-08 10:30 21.31 123000 323000 (2019) 40000 (2006) 131000 40000 45700 58300 58800 111000 181000 190000 261000 323000
2020-06-08 09:30 21.42 124000 323000 (2019) 40000 (2006) 131000 40000 45700 58300 58800 111000 181000 190000 261000 323000
2020-06-08 08:30 21.48 125000 323000 (2019) 40000 (2006) 131000 40000 45700 58300 58800 111000 181000 190000 261000 323000
2020-06-08 07:30 21.59 126000 323000 (2019) 40000 (2006) 131000 40000 45700 58300 58800 111000 181000 190000 261000 323000
2020-06-08 06:30 21.68 127000 323000 (2019) 40000 (2006) 131000 40000 45700 58300 58800 111000 181000 190000 261000 323000
2020-06-08 05:30 21.74 128000 323000 (2019) 40000 (2006) 131000 40000 45700 58300 58800 111000 181000 190000 261000 323000
2020-06-08 04:30 21.82 129000 323000 (2019) 40000 (2006) 131000 40000 45700 58300 58800 111000 181000 190000 261000 323000
2020-06-08 03:30 21.89 129000 323000 (2019) 40000 (2006) 131000 40000 45700 58300 58800 111000 181000 190000 261000 323000
2020-06-08 02:30 21.95 130000 323000 (2019) 40000 (2006) 131000 40000 45700 58300 58800 111000 181000 190000 261000 323000
2020-06-08 01:30 22.02 131000 323000 (2019) 40000 (2006) 131000 40000 45700 58300 58800 111000 181000 190000 261000 323000
2020-06-08 00:30 22.11 132000 323000 (2019) 40000 (2006) 131000 40000 45700 58300 58800 111000 181000 190000 261000 323000
2020-06-07 23:30 22.15 132000 338000 (2019) 38000 (2006) 132000 38000 44600 60400 66200 105000 165000 183000 258000 338000
2020-06-07 22:30 22.24 133000 338000 (2019) 38000 (2006) 132000 38000 44600 60400 66200 105000 165000 183000 258000 338000
2020-06-07 21:30 22.35 135000 338000 (2019) 38000 (2006) 132000 38000 44600 60400 66200 105000 165000 183000 258000 338000
2020-06-07 20:30 22.41 135000 338000 (2019) 38000 (2006) 132000 38000 44600 60400 66200 105000 165000 183000 258000 338000
2020-06-07 19:30 22.42 135000 338000 (2019) 38000 (2006) 132000 38000 44600 60400 66200 105000 165000 183000 258000 338000
2020-06-07 18:30 22.47 136000 338000 (2019) 38000 (2006) 132000 38000 44600 60400 66200 105000 165000 183000 258000 338000
2020-06-07 17:30 22.51 136000 338000 (2019) 38000 (2006) 132000 38000 44600 60400 66200 105000 165000 183000 258000 338000
2020-06-07 16:30 22.56 137000 338000 (2019) 38000 (2006) 132000 38000 44600 60400 66200 105000 165000 183000 258000 338000
2020-06-07 15:30 22.61 138000 338000 (2019) 38000 (2006) 132000 38000 44600 60400 66200 105000 165000 183000 258000 338000
2020-06-07 14:30 22.70 139000 338000 (2019) 38000 (2006) 132000 38000 44600 60400 66200 105000 165000 183000 258000 338000
2020-06-07 13:30 22.78 139000 338000 (2019) 38000 (2006) 132000 38000 44600 60400 66200 105000 165000 183000 258000 338000
2020-06-07 12:30 22.85 140000 338000 (2019) 38000 (2006) 132000 38000 44600 60400 66200 105000 165000 183000 258000 338000
2020-06-07 11:30 22.85 140000 338000 (2019) 38000 (2006) 132000 38000 44600 60400 66200 105000 165000 183000 258000 338000
2020-06-07 10:30 22.91 141000 338000 (2019) 38000 (2006) 132000 38000 44600 60400 66200 105000 165000 183000 258000 338000
2020-06-07 09:30 22.99 142000 338000 (2019) 38000 (2006) 132000 38000 44600 60400 66200 105000 165000 183000 258000 338000
2020-06-07 08:30 23.00 142000 338000 (2019) 38000 (2006) 132000 38000 44600 60400 66200 105000 165000 183000 258000 338000
2020-06-07 07:30 23.13 144000 338000 (2019) 38000 (2006) 132000 38000 44600 60400 66200 105000 165000 183000 258000 338000
2020-06-07 06:30 23.15 144000 338000 (2019) 38000 (2006) 132000 38000 44600 60400 66200 105000 165000 183000 258000 338000
2020-06-07 05:30 23.16 144000 338000 (2019) 38000 (2006) 132000 38000 44600 60400 66200 105000 165000 183000 258000 338000
2020-06-07 04:30 23.25 145000 338000 (2019) 38000 (2006) 132000 38000 44600 60400 66200 105000 165000 183000 258000 338000
2020-06-07 03:30 23.31 146000 338000 (2019) 38000 (2006) 132000 38000 44600 60400 66200 105000 165000 183000 258000 338000
2020-06-07 02:30 23.35 146000 338000 (2019) 38000 (2006) 132000 38000 44600 60400 66200 105000 165000 183000 258000 338000
2020-06-07 01:30 23.42 147000 338000 (2019) 38000 (2006) 132000 38000 44600 60400 66200 105000 165000 183000 258000 338000
2020-06-07 00:30 23.45 147000 338000 (2019) 38000 (2006) 132000 38000 44600 60400 66200 105000 165000 183000 258000 338000
2020-06-06 23:30 23.49 148000 349000 (2019) 38300 (2006) 130000 38300 44000 61500 77400 116000 153000 188000 232000 349000
2020-06-06 22:30 23.54 148000 349000 (2019) 38300 (2006) 130000 38300 44000 61500 77400 116000 153000 188000 232000 349000
2020-06-06 21:30 23.58 149000 349000 (2019) 38300 (2006) 130000 38300 44000 61500 77400 116000 153000 188000 232000 349000
2020-06-06 20:30 23.62 149000 349000 (2019) 38300 (2006) 130000 38300 44000 61500 77400 116000 153000 188000 232000 349000
2020-06-06 19:30 23.65 150000 349000 (2019) 38300 (2006) 130000 38300 44000 61500 77400 116000 153000 188000 232000 349000
2020-06-06 18:30 23.69 150000 349000 (2019) 38300 (2006) 130000 38300 44000 61500 77400 116000 153000 188000 232000 349000
2020-06-06 17:30 23.74 151000 349000 (2019) 38300 (2006) 130000 38300 44000 61500 77400 116000 153000 188000 232000 349000
2020-06-06 16:30 23.83 152000 349000 (2019) 38300 (2006) 130000 38300 44000 61500 77400 116000 153000 188000 232000 349000
2020-06-06 15:30 23.87 153000 349000 (2019) 38300 (2006) 130000 38300 44000 61500 77400 116000 153000 188000 232000 349000
2020-06-06 14:30 23.91 153000 349000 (2019) 38300 (2006) 130000 38300 44000 61500 77400 116000 153000 188000 232000 349000
2020-06-06 13:30 23.97 154000 349000 (2019) 38300 (2006) 130000 38300 44000 61500 77400 116000 153000 188000 232000 349000
2020-06-06 12:30 24.05 155000 349000 (2019) 38300 (2006) 130000 38300 44000 61500 77400 116000 153000 188000 232000 349000
2020-06-06 11:30 24.12 156000 349000 (2019) 38300 (2006) 130000 38300 44000 61500 77400 116000 153000 188000 232000 349000
2020-06-06 10:30 24.14 156000 349000 (2019) 38300 (2006) 130000 38300 44000 61500 77400 116000 153000 188000 232000 349000
2020-06-06 09:30 24.18 156000 349000 (2019) 38300 (2006) 130000 38300 44000 61500 77400 116000 153000 188000 232000 349000
2020-06-06 08:30 24.22 157000 349000 (2019) 38300 (2006) 130000 38300 44000 61500 77400 116000 153000 188000 232000 349000
2020-06-06 07:30 24.23 157000 349000 (2019) 38300 (2006) 130000 38300 44000 61500 77400 116000 153000 188000 232000 349000
2020-06-06 06:30 24.31 158000 349000 (2019) 38300 (2006) 130000 38300 44000 61500 77400 116000 153000 188000 232000 349000
2020-06-06 05:30 24.35 159000 349000 (2019) 38300 (2006) 130000 38300 44000 61500 77400 116000 153000 188000 232000 349000
2020-06-06 04:30 24.38 159000 349000 (2019) 38300 (2006) 130000 38300 44000 61500 77400 116000 153000 188000 232000 349000
2020-06-06 03:30 24.43 160000 349000 (2019) 38300 (2006) 130000 38300 44000 61500 77400 116000 153000 188000 232000 349000
2020-06-06 02:30 24.45 160000 349000 (2019) 38300 (2006) 130000 38300 44000 61500 77400 116000 153000 188000 232000 349000
2020-06-06 01:30 24.47 160000 349000 (2019) 38300 (2006) 130000 38300 44000 61500 77400 116000 153000 188000 232000 349000
2020-06-06 00:30 24.49 160000 349000 (2019) 38300 (2006) 130000 38300 44000 61500 77400 116000 153000 188000 232000 349000
2020-06-05 23:30 24.50 161000 352000 (2019) 40400 (2006) 128000 40400 45000 62000 77600 121000 164000 184000 200000 352000
2020-06-05 22:30 24.47 160000 352000 (2019) 40400 (2006) 128000 40400 45000 62000 77600 121000 164000 184000 200000 352000
2020-06-05 21:30 24.54 161000 352000 (2019) 40400 (2006) 128000 40400 45000 62000 77600 121000 164000 184000 200000 352000
2020-06-05 20:30 24.52 161000 352000 (2019) 40400 (2006) 128000 40400 45000 62000 77600 121000 164000 184000 200000 352000
2020-06-05 19:30 24.53 161000 352000 (2019) 40400 (2006) 128000 40400 45000 62000 77600 121000 164000 184000 200000 352000
2020-06-05 18:30 24.55 161000 352000 (2019) 40400 (2006) 128000 40400 45000 62000 77600 121000 164000 184000 200000 352000
2020-06-05 17:30 24.57 161000 352000 (2019) 40400 (2006) 128000 40400 45000 62000 77600 121000 164000 184000 200000 352000
2020-06-05 16:30 24.57 161000 352000 (2019) 40400 (2006) 128000 40400 45000 62000 77600 121000 164000 184000 200000 352000
2020-06-05 15:30 24.54 161000 352000 (2019) 40400 (2006) 128000 40400 45000 62000 77600 121000 164000 184000 200000 352000
2020-06-05 14:30 24.56 161000 352000 (2019) 40400 (2006) 128000 40400 45000 62000 77600 121000 164000 184000 200000 352000
2020-06-05 13:30 24.55 161000 352000 (2019) 40400 (2006) 128000 40400 45000 62000 77600 121000 164000 184000 200000 352000
2020-06-05 12:30 24.48 160000 352000 (2019) 40400 (2006) 128000 40400 45000 62000 77600 121000 164000 184000 200000 352000
2020-06-05 11:30 24.47 160000 352000 (2019) 40400 (2006) 128000 40400 45000 62000 77600 121000 164000 184000 200000 352000
2020-06-05 10:30 24.44 160000 352000 (2019) 40400 (2006) 128000 40400 45000 62000 77600 121000 164000 184000 200000 352000
2020-06-05 09:30 24.41 159000 352000 (2019) 40400 (2006) 128000 40400 45000 62000 77600 121000 164000 184000 200000 352000
2020-06-05 08:30 24.39 159000 352000 (2019) 40400 (2006) 128000 40400 45000 62000 77600 121000 164000 184000 200000 352000
2020-06-05 07:30 24.34 158000 352000 (2019) 40400 (2006) 128000 40400 45000 62000 77600 121000 164000 184000 200000 352000
2020-06-05 06:30 24.25 157000 352000 (2019) 40400 (2006) 128000 40400 45000 62000 77600 121000 164000 184000 200000 352000
2020-06-05 05:30 24.19 157000 352000 (2019) 40400 (2006) 128000 40400 45000 62000 77600 121000 164000 184000 200000 352000
2020-06-05 04:30 24.11 156000 352000 (2019) 40400 (2006) 128000 40400 45000 62000 77600 121000 164000 184000 200000 352000
2020-06-05 03:30 24.09 155000 352000 (2019) 40400 (2006) 128000 40400 45000 62000 77600 121000 164000 184000 200000 352000
2020-06-05 02:30 24.03 155000 352000 (2019) 40400 (2006) 128000 40400 45000 62000 77600 121000 164000 184000 200000 352000
2020-06-05 01:30 23.97 154000 352000 (2019) 40400 (2006) 128000 40400 45000 62000 77600 121000 164000 184000 200000 352000
2020-06-05 00:30 23.92 153000 352000 (2019) 40400 (2006) 128000 40400 45000 62000 77600 121000 164000 184000 200000 352000
2020-06-04 23:30 23.91 153000 359000 (2019) 42500 (2006) 122000 42500 48500 60000 63300 107000 148000 162000 194000 359000
2020-06-04 22:30 23.88 153000 359000 (2019) 42500 (2006) 122000 42500 48500 60000 63300 107000 148000 162000 194000 359000
2020-06-04 21:30 23.83 152000 359000 (2019) 42500 (2006) 122000 42500 48500 60000 63300 107000 148000 162000 194000 359000
2020-06-04 20:30 23.80 152000 359000 (2019) 42500 (2006) 122000 42500 48500 60000 63300 107000 148000 162000 194000 359000
2020-06-04 19:30 23.77 151000 359000 (2019) 42500 (2006) 122000 42500 48500 60000 63300 107000 148000 162000 194000 359000
2020-06-04 18:30 23.78 151000 359000 (2019) 42500 (2006) 122000 42500 48500 60000 63300 107000 148000 162000 194000 359000
2020-06-04 17:30 23.78 151000 359000 (2019) 42500 (2006) 122000 42500 48500 60000 63300 107000 148000 162000 194000 359000
2020-06-04 16:30 23.79 152000 359000 (2019) 42500 (2006) 122000 42500 48500 60000 63300 107000 148000 162000 194000 359000
2020-06-04 15:30 23.83 152000 359000 (2019) 42500 (2006) 122000 42500 48500 60000 63300 107000 148000 162000 194000 359000
2020-06-04 14:30 23.85 152000 359000 (2019) 42500 (2006) 122000 42500 48500 60000 63300 107000 148000 162000 194000 359000
2020-06-04 13:30 23.83 152000 359000 (2019) 42500 (2006) 122000 42500 48500 60000 63300 107000 148000 162000 194000 359000
2020-06-04 12:30 23.87 153000 359000 (2019) 42500 (2006) 122000 42500 48500 60000 63300 107000 148000 162000 194000 359000
2020-06-04 11:30 23.83 152000 359000 (2019) 42500 (2006) 122000 42500 48500 60000 63300 107000 148000 162000 194000 359000
2020-06-04 10:30 23.80 152000 359000 (2019) 42500 (2006) 122000 42500 48500 60000 63300 107000 148000 162000 194000 359000
2020-06-04 09:30 23.75 151000 359000 (2019) 42500 (2006) 122000 42500 48500 60000 63300 107000 148000 162000 194000 359000
2020-06-04 08:30 23.69 150000 359000 (2019) 42500 (2006) 122000 42500 48500 60000 63300 107000 148000 162000 194000 359000
2020-06-04 07:30 23.55 149000 359000 (2019) 42500 (2006) 122000 42500 48500 60000 63300 107000 148000 162000 194000 359000
2020-06-04 06:30 23.42 147000 359000 (2019) 42500 (2006) 122000 42500 48500 60000 63300 107000 148000 162000 194000 359000
2020-06-04 05:30 23.26 145000 359000 (2019) 42500 (2006) 122000 42500 48500 60000 63300 107000 148000 162000 194000 359000
2020-06-04 04:30 23.03 142000 359000 (2019) 42500 (2006) 122000 42500 48500 60000 63300 107000 148000 162000 194000 359000
2020-06-04 03:30 22.75 139000 359000 (2019) 42500 (2006) 122000 42500 48500 60000 63300 107000 148000 162000 194000 359000
2020-06-04 02:30 22.51 136000 359000 (2019) 42500 (2006) 122000 42500 48500 60000 63300 107000 148000 162000 194000 359000
2020-06-04 01:30 22.23 133000 359000 (2019) 42500 (2006) 122000 42500 48500 60000 63300 107000 148000 162000 194000 359000
2020-06-04 00:30 22.03 131000 359000 (2019) 42500 (2006) 122000 42500 48500 60000 63300 107000 148000 162000 194000 359000
2020-06-03 23:30 21.98 130000 349000 (2019) 44500 (2006) 121000 44500 45100 59900 60100 110000 142000 155000 254000 349000
2020-06-03 22:30 22.09 132000 349000 (2019) 44500 (2006) 121000 44500 45100 59900 60100 110000 142000 155000 254000 349000
2020-06-03 21:30 22.21 133000 349000 (2019) 44500 (2006) 121000 44500 45100 59900 60100 110000 142000 155000 254000 349000
2020-06-03 20:30 22.23 133000 349000 (2019) 44500 (2006) 121000 44500 45100 59900 60100 110000 142000 155000 254000 349000
2020-06-03 19:30 22.29 134000 349000 (2019) 44500 (2006) 121000 44500 45100 59900 60100 110000 142000 155000 254000 349000
2020-06-03 18:30 22.38 135000 349000 (2019) 44500 (2006) 121000 44500 45100 59900 60100 110000 142000 155000 254000 349000
2020-06-03 17:30 22.39 135000 349000 (2019) 44500 (2006) 121000 44500 45100 59900 60100 110000 142000 155000 254000 349000
2020-06-03 16:30 22.50 136000 349000 (2019) 44500 (2006) 121000 44500 45100 59900 60100 110000 142000 155000 254000 349000
2020-06-03 15:30 22.56 137000 349000 (2019) 44500 (2006) 121000 44500 45100 59900 60100 110000 142000 155000 254000 349000
2020-06-03 14:30 22.60 137000 349000 (2019) 44500 (2006) 121000 44500 45100 59900 60100 110000 142000 155000 254000 349000
2020-06-03 13:30 22.71 139000 349000 (2019) 44500 (2006) 121000 44500 45100 59900 60100 110000 142000 155000 254000 349000
2020-06-03 12:30 22.79 140000 349000 (2019) 44500 (2006) 121000 44500 45100 59900 60100 110000 142000 155000 254000 349000
2020-06-03 11:30 22.90 141000 349000 (2019) 44500 (2006) 121000 44500 45100 59900 60100 110000 142000 155000 254000 349000
2020-06-03 10:30 23.11 143000 349000 (2019) 44500 (2006) 121000 44500 45100 59900 60100 110000 142000 155000 254000 349000
2020-06-03 09:30 23.16 144000 349000 (2019) 44500 (2006) 121000 44500 45100 59900 60100 110000 142000 155000 254000 349000
2020-06-03 08:30 23.21 145000 349000 (2019) 44500 (2006) 121000 44500 45100 59900 60100 110000 142000 155000 254000 349000
2020-06-03 07:30 23.32 146000 349000 (2019) 44500 (2006) 121000 44500 45100 59900 60100 110000 142000 155000 254000 349000
2020-06-03 06:30 23.38 147000 349000 (2019) 44500 (2006) 121000 44500 45100 59900 60100 110000 142000 155000 254000 349000
2020-06-03 05:30 23.48 148000 349000 (2019) 44500 (2006) 121000 44500 45100 59900 60100 110000 142000 155000 254000 349000
2020-06-03 04:30 23.59 149000 349000 (2019) 44500 (2006) 121000 44500 45100 59900 60100 110000 142000 155000 254000 349000
2020-06-03 03:30 23.67 150000 349000 (2019) 44500 (2006) 121000 44500 45100 59900 60100 110000 142000 155000 254000 349000
2020-06-03 02:30 23.79 152000 349000 (2019) 44500 (2006) 121000 44500 45100 59900 60100 110000 142000 155000 254000 349000
2020-06-03 01:30 23.89 153000 349000 (2019) 44500 (2006) 121000 44500 45100 59900 60100 110000 142000 155000 254000 349000
2020-06-03 00:30 24.02 154000 349000 (2019) 44500 (2006) 121000 44500 45100 59900 60100 110000 142000 155000 254000 349000
2020-06-02 23:30 24.15 156000 335000 (2019) 43600 (2003) 123000 43600 46600 52800 62100 109000 151000 154000 296000 335000
2020-06-02 22:30 24.25 157000 335000 (2019) 43600 (2003) 123000 43600 46600 52800 62100 109000 151000 154000 296000 335000
2020-06-02 21:30 24.38 159000 335000 (2019) 43600 (2003) 123000 43600 46600 52800 62100 109000 151000 154000 296000 335000
2020-06-02 20:30 24.49 160000 335000 (2019) 43600 (2003) 123000 43600 46600 52800 62100 109000 151000 154000 296000 335000
2020-06-02 19:30 24.59 162000 335000 (2019) 43600 (2003) 123000 43600 46600 52800 62100 109000 151000 154000 296000 335000
2020-06-02 18:30 24.70 163000 335000 (2019) 43600 (2003) 123000 43600 46600 52800 62100 109000 151000 154000 296000 335000
2020-06-02 17:30 24.80 164000 335000 (2019) 43600 (2003) 123000 43600 46600 52800 62100 109000 151000 154000 296000 335000
2020-06-02 16:30 24.94 166000 335000 (2019) 43600 (2003) 123000 43600 46600 52800 62100 109000 151000 154000 296000 335000
2020-06-02 15:30 25.04 168000 335000 (2019) 43600 (2003) 123000 43600 46600 52800 62100 109000 151000 154000 296000 335000
2020-06-02 14:30 25.16 169000 335000 (2019) 43600 (2003) 123000 43600 46600 52800 62100 109000 151000 154000 296000 335000
2020-06-02 13:30 25.29 171000 335000 (2019) 43600 (2003) 123000 43600 46600 52800 62100 109000 151000 154000 296000 335000
2020-06-02 12:30 25.42 173000 335000 (2019) 43600 (2003) 123000 43600 46600 52800 62100 109000 151000 154000 296000 335000
2020-06-02 11:30 25.55 175000 335000 (2019) 43600 (2003) 123000 43600 46600 52800 62100 109000 151000 154000 296000 335000
2020-06-02 10:30 25.67 176000 335000 (2019) 43600 (2003) 123000 43600 46600 52800 62100 109000 151000 154000 296000 335000
2020-06-02 09:30 25.78 178000 335000 (2019) 43600 (2003) 123000 43600 46600 52800 62100 109000 151000 154000 296000 335000
2020-06-02 08:30 25.87 179000 335000 (2019) 43600 (2003) 123000 43600 46600 52800 62100 109000 151000 154000 296000 335000
2020-06-02 07:30 26.02 181000 335000 (2019) 43600 (2003) 123000 43600 46600 52800 62100 109000 151000 154000 296000 335000
2020-06-02 06:30 26.15 183000 335000 (2019) 43600 (2003) 123000 43600 46600 52800 62100 109000 151000 154000 296000 335000
2020-06-02 05:30 26.27 185000 335000 (2019) 43600 (2003) 123000 43600 46600 52800 62100 109000 151000 154000 296000 335000
2020-06-02 04:30 26.37 186000 335000 (2019) 43600 (2003) 123000 43600 46600 52800 62100 109000 151000 154000 296000 335000
2020-06-02 03:30 26.48 188000 335000 (2019) 43600 (2003) 123000 43600 46600 52800 62100 109000 151000 154000 296000 335000
2020-06-02 02:30 26.60 190000 335000 (2019) 43600 (2003) 123000 43600 46600 52800 62100 109000 151000 154000 296000 335000
2020-06-02 01:30 26.70 191000 335000 (2019) 43600 (2003) 123000 43600 46600 52800 62100 109000 151000 154000 296000 335000
2020-06-02 00:30 26.80 192000 335000 (2019) 43600 (2003) 123000 43600 46600 52800 62100 109000 151000 154000 296000 335000
2020-06-01 23:30 26.91 194000 327000 (2019) 43600 (2003) 121000 43600 46500 52200 58200 113000 148000 171000 290000 327000
2020-06-01 22:30 27.01 196000 327000 (2019) 43600 (2003) 121000 43600 46500 52200 58200 113000 148000 171000 290000 327000
2020-06-01 21:30 27.10 197000 327000 (2019) 43600 (2003) 121000 43600 46500 52200 58200 113000 148000 171000 290000 327000
2020-06-01 20:30 27.19 198000 327000 (2019) 43600 (2003) 121000 43600 46500 52200 58200 113000 148000 171000 290000 327000
2020-06-01 19:30 27.33 201000 327000 (2019) 43600 (2003) 121000 43600 46500 52200 58200 113000 148000 171000 290000 327000
2020-06-01 18:30 27.45 202000 327000 (2019) 43600 (2003) 121000 43600 46500 52200 58200 113000 148000 171000 290000 327000
2020-06-01 17:30 27.58 204000 327000 (2019) 43600 (2003) 121000 43600 46500 52200 58200 113000 148000 171000 290000 327000
2020-06-01 16:30 27.66 206000 327000 (2019) 43600 (2003) 121000 43600 46500 52200 58200 113000 148000 171000 290000 327000
2020-06-01 15:30 27.77 207000 327000 (2019) 43600 (2003) 121000 43600 46500 52200 58200 113000 148000 171000 290000 327000
2020-06-01 14:30 27.85 209000 327000 (2019) 43600 (2003) 121000 43600 46500 52200 58200 113000 148000 171000 290000 327000
2020-06-01 13:30 27.99 211000 327000 (2019) 43600 (2003) 121000 43600 46500 52200 58200 113000 148000 171000 290000 327000
2020-06-01 12:30 28.07 212000 327000 (2019) 43600 (2003) 121000 43600 46500 52200 58200 113000 148000 171000 290000 327000
2020-06-01 11:30 28.15 213000 327000 (2019) 43600 (2003) 121000 43600 46500 52200 58200 113000 148000 171000 290000 327000
2020-06-01 10:30 28.24 215000 327000 (2019) 43600 (2003) 121000 43600 46500 52200 58200 113000 148000 171000 290000 327000
2020-06-01 09:30 28.33 216000 327000 (2019) 43600 (2003) 121000 43600 46500 52200 58200 113000 148000 171000 290000 327000
2020-06-01 08:30 28.43 218000 327000 (2019) 43600 (2003) 121000 43600 46500 52200 58200 113000 148000 171000 290000 327000
2020-06-01 07:30 28.49 219000 327000 (2019) 43600 (2003) 121000 43600 46500 52200 58200 113000 148000 171000 290000 327000
2020-06-01 06:30 28.56 220000 327000 (2019) 43600 (2003) 121000 43600 46500 52200 58200 113000 148000 171000 290000 327000
2020-06-01 05:30 28.62 221000 327000 (2019) 43600 (2003) 121000 43600 46500 52200 58200 113000 148000 171000 290000 327000
2020-06-01 04:30 28.72 222000 327000 (2019) 43600 (2003) 121000 43600 46500 52200 58200 113000 148000 171000 290000 327000
2020-06-01 03:30 28.79 223000 327000 (2019) 43600 (2003) 121000 43600 46500 52200 58200 113000 148000 171000 290000 327000
2020-06-01 02:30 28.88 225000 327000 (2019) 43600 (2003) 121000 43600 46500 52200 58200 113000 148000 171000 290000 327000
2020-06-01 01:30 28.94 226000 327000 (2019) 43600 (2003) 121000 43600 46500 52200 58200 113000 148000 171000 290000 327000
2020-06-01 00:30 29.01 227000 327000 (2019) 43600 (2003) 121000 43600 46500 52200 58200 113000 148000 171000 290000 327000
2020-05-31 23:30 29.08 228000 340000 (2019) 41900 (2006) 117000 41900 44700 51500 56900 93800 153000 167000 252000 340000
2020-05-31 22:30 29.09 228000 340000 (2019) 41900 (2006) 117000 41900 44700 51500 56900 93800 153000 167000 252000 340000
2020-05-31 21:30 29.15 229000 340000 (2019) 41900 (2006) 117000 41900 44700 51500 56900 93800 153000 167000 252000 340000
2020-05-31 20:30 29.22 230000 340000 (2019) 41900 (2006) 117000 41900 44700 51500 56900 93800 153000 167000 252000 340000
2020-05-31 19:30 29.23 230000 340000 (2019) 41900 (2006) 117000 41900 44700 51500 56900 93800 153000 167000 252000 340000
2020-05-31 18:30 29.24 231000 340000 (2019) 41900 (2006) 117000 41900 44700 51500 56900 93800 153000 167000 252000 340000
2020-05-31 17:30 29.33 232000 340000 (2019) 41900 (2006) 117000 41900 44700 51500 56900 93800 153000 167000 252000 340000
2020-05-31 16:30 29.40 233000 340000 (2019) 41900 (2006) 117000 41900 44700 51500 56900 93800 153000 167000 252000 340000
2020-05-31 15:30 29.46 234000 340000 (2019) 41900 (2006) 117000 41900 44700 51500 56900 93800 153000 167000 252000 340000
2020-05-31 14:30 29.52 235000 340000 (2019) 41900 (2006) 117000 41900 44700 51500 56900 93800 153000 167000 252000 340000
2020-05-31 13:30 29.57 236000 340000 (2019) 41900 (2006) 117000 41900 44700 51500 56900 93800 153000 167000 252000 340000
2020-05-31 12:30 29.61 237000 340000 (2019) 41900 (2006) 117000 41900 44700 51500 56900 93800 153000 167000 252000 340000
2020-05-31 11:30 29.61 237000 340000 (2019) 41900 (2006) 117000 41900 44700 51500 56900 93800 153000 167000 252000 340000
2020-05-31 10:30 29.66 238000 340000 (2019) 41900 (2006) 117000 41900 44700 51500 56900 93800 153000 167000 252000 340000
2020-05-31 09:30 29.73 239000 340000 (2019) 41900 (2006) 117000 41900 44700 51500 56900 93800 153000 167000 252000 340000
2020-05-31 08:30 29.77 239000 340000 (2019) 41900 (2006) 117000 41900 44700 51500 56900 93800 153000 167000 252000 340000
2020-05-31 07:30 29.82 240000 340000 (2019) 41900 (2006) 117000 41900 44700 51500 56900 93800 153000 167000 252000 340000
2020-05-31 06:30 29.83 240000 340000 (2019) 41900 (2006) 117000 41900 44700 51500 56900 93800 153000 167000 252000 340000
2020-05-31 05:30 29.82 240000 340000 (2019) 41900 (2006) 117000 41900 44700 51500 56900 93800 153000 167000 252000 340000
2020-05-31 04:30 29.91 242000 340000 (2019) 41900 (2006) 117000 41900 44700 51500 56900 93800 153000 167000 252000 340000
2020-05-31 03:30 29.95 243000 340000 (2019) 41900 (2006) 117000 41900 44700 51500 56900 93800 153000 167000 252000 340000
2020-05-31 02:30 29.96 243000 340000 (2019) 41900 (2006) 117000 41900 44700 51500 56900 93800 153000 167000 252000 340000
2020-05-31 01:30 30.02 244000 340000 (2019) 41900 (2006) 117000 41900 44700 51500 56900 93800 153000 167000 252000 340000
2020-05-31 00:30 30.04 244000 340000 (2019) 41900 (2006) 117000 41900 44700 51500 56900 93800 153000 167000 252000 340000
2020-05-30 23:30 30.05 244000 333000 (2019) 42500 (2006) 118000 42500 45800 51100 55800 89900 174000 183000 270000 333000
2020-05-30 22:30 30.15 246000 333000 (2019) 42500 (2006) 118000 42500 45800 51100 55800 89900 174000 183000 270000 333000
2020-05-30 21:30 30.21 247000 333000 (2019) 42500 (2006) 118000 42500 45800 51100 55800 89900 174000 183000 270000 333000
2020-05-30 20:30 30.22 247000 333000 (2019) 42500 (2006) 118000 42500 45800 51100 55800 89900 174000 183000 270000 333000
2020-05-30 19:30 30.22 247000 333000 (2019) 42500 (2006) 118000 42500 45800 51100 55800 89900 174000 183000 270000 333000
2020-05-30 18:30 30.22 247000 333000 (2019) 42500 (2006) 118000 42500 45800 51100 55800 89900 174000 183000 270000 333000
2020-05-30 17:30 30.29 248000 333000 (2019) 42500 (2006) 118000 42500 45800 51100 55800 89900 174000 183000 270000 333000
2020-05-30 16:30 30.29 248000 333000 (2019) 42500 (2006) 118000 42500 45800 51100 55800 89900 174000 183000 270000 333000
2020-05-30 15:30 30.32 249000 333000 (2019) 42500 (2006) 118000 42500 45800 51100 55800 89900 174000 183000 270000 333000
2020-05-30 14:30 30.34 249000 333000 (2019) 42500 (2006) 118000 42500 45800 51100 55800 89900 174000 183000 270000 333000
2020-05-30 13:30 30.39 250000 333000 (2019) 42500 (2006) 118000 42500 45800 51100 55800 89900 174000 183000 270000 333000
2020-05-30 12:30 30.38 250000 333000 (2019) 42500 (2006) 118000 42500 45800 51100 55800 89900 174000 183000 270000 333000
2020-05-30 11:30 30.34 249000 333000 (2019) 42500 (2006) 118000 42500 45800 51100 55800 89900 174000 183000 270000 333000
2020-05-30 10:30 30.30 248000 333000 (2019) 42500 (2006) 118000 42500 45800 51100 55800 89900 174000 183000 270000 333000
2020-05-30 09:30 30.22 247000 333000 (2019) 42500 (2006) 118000 42500 45800 51100 55800 89900 174000 183000 270000 333000
2020-05-30 08:30 30.14 246000 333000 (2019) 42500 (2006) 118000 42500 45800 51100 55800 89900 174000 183000 270000 333000
2020-05-30 07:30 30.10 245000 333000 (2019) 42500 (2006) 118000 42500 45800 51100 55800 89900 174000 183000 270000 333000
2020-05-30 06:30 30.04 244000 333000 (2019) 42500 (2006) 118000 42500 45800 51100 55800 89900 174000 183000 270000 333000
2020-05-30 05:30 30.02 244000 333000 (2019) 42500 (2006) 118000 42500 45800 51100 55800 89900 174000 183000 270000 333000
2020-05-30 04:30 29.94 242000 333000 (2019) 42500 (2006) 118000 42500 45800 51100 55800 89900 174000 183000 270000 333000
2020-05-30 03:30 29.94 242000 333000 (2019) 42500 (2006) 118000 42500 45800 51100 55800 89900 174000 183000 270000 333000
2020-05-30 02:30 29.85 241000 333000 (2019) 42500 (2006) 118000 42500 45800 51100 55800 89900 174000 183000 270000 333000
2020-05-30 01:30 29.76 239000 333000 (2019) 42500 (2006) 118000 42500 45800 51100 55800 89900 174000 183000 270000 333000
2020-05-30 00:30 29.70 238000 333000 (2019) 42500 (2006) 118000 42500 45800 51100 55800 89900 174000 183000 270000 333000
2020-05-29 23:30 29.70 238000 350000 (2019) 38000 (2006) 120000 38000 46600 50800 54900 96500 144000 188000 259000 350000
2020-05-29 22:30 29.66 238000 350000 (2019) 38000 (2006) 120000 38000 46600 50800 54900 96500 144000 188000 259000 350000
2020-05-29 21:30 29.61 237000 350000 (2019) 38000 (2006) 120000 38000 46600 50800 54900 96500 144000 188000 259000 350000
2020-05-29 20:30 29.52 235000 350000 (2019) 38000 (2006) 120000 38000 46600 50800 54900 96500 144000 188000 259000 350000
2020-05-29 19:30 29.48 235000 350000 (2019) 38000 (2006) 120000 38000 46600 50800 54900 96500 144000 188000 259000 350000
2020-05-29 18:30 29.40 233000 350000 (2019) 38000 (2006) 120000 38000 46600 50800 54900 96500 144000 188000 259000 350000
2020-05-29 17:30 29.33 232000 350000 (2019) 38000 (2006) 120000 38000 46600 50800 54900 96500 144000 188000 259000 350000
2020-05-29 16:30 29.35 232000 350000 (2019) 38000 (2006) 120000 38000 46600 50800 54900 96500 144000 188000 259000 350000
2020-05-29 15:30 29.29 231000 350000 (2019) 38000 (2006) 120000 38000 46600 50800 54900 96500 144000 188000 259000 350000
2020-05-29 14:30 29.30 232000 350000 (2019) 38000 (2006) 120000 38000 46600 50800 54900 96500 144000 188000 259000 350000
2020-05-29 13:30 29.31 232000 350000 (2019) 38000 (2006) 120000 38000 46600 50800 54900 96500 144000 188000 259000 350000
2020-05-29 12:30 29.27 231000 350000 (2019) 38000 (2006) 120000 38000 46600 50800 54900 96500 144000 188000 259000 350000
2020-05-29 11:30 29.23 230000 350000 (2019) 38000 (2006) 120000 38000 46600 50800 54900 96500 144000 188000 259000 350000
2020-05-29 10:30 29.18 230000 350000 (2019) 38000 (2006) 120000 38000 46600 50800 54900 96500 144000 188000 259000 350000
2020-05-29 09:30 29.14 229000 350000 (2019) 38000 (2006) 120000 38000 46600 50800 54900 96500 144000 188000 259000 350000
2020-05-29 08:30 29.02 227000 350000 (2019) 38000 (2006) 120000 38000 46600 50800 54900 96500 144000 188000 259000 350000
2020-05-29 07:30 28.96 226000 350000 (2019) 38000 (2006) 120000 38000 46600 50800 54900 96500 144000 188000 259000 350000
2020-05-29 06:30 28.82 224000 350000 (2019) 38000 (2006) 120000 38000 46600 50800 54900 96500 144000 188000 259000 350000
2020-05-29 05:30 28.71 222000 350000 (2019) 38000 (2006) 120000 38000 46600 50800 54900 96500 144000 188000 259000 350000
2020-05-29 04:30 28.59 220000 350000 (2019) 38000 (2006) 120000 38000 46600 50800 54900 96500 144000 188000 259000 350000
2020-05-29 03:30 28.49 219000 350000 (2019) 38000 (2006) 120000 38000 46600 50800 54900 96500 144000 188000 259000 350000
2020-05-29 02:30 28.31 216000 350000 (2019) 38000 (2006) 120000 38000 46600 50800 54900 96500 144000 188000 259000 350000
2020-05-29 01:30 28.19 214000 350000 (2019) 38000 (2006) 120000 38000 46600 50800 54900 96500 144000 188000 259000 350000
2020-05-29 00:30 28.03 211000 350000 (2019) 38000 (2006) 120000 38000 46600 50800 54900 96500 144000 188000 259000 350000
2020-05-28 23:30 27.85 209000 327000 (2019) 37300 (2006) 118000 37300 46300 53600 54500 98300 152000 190000 225000 327000
2020-05-28 22:30 27.63 205000 327000 (2019) 37300 (2006) 118000 37300 46300 53600 54500 98300 152000 190000 225000 327000
2020-05-28 21:30 27.50 203000 327000 (2019) 37300 (2006) 118000 37300 46300 53600 54500 98300 152000 190000 225000 327000
2020-05-28 20:30 27.34 201000 327000 (2019) 37300 (2006) 118000 37300 46300 53600 54500 98300 152000 190000 225000 327000
2020-05-28 19:30 27.30 200000 327000 (2019) 37300 (2006) 118000 37300 46300 53600 54500 98300 152000 190000 225000 327000
2020-05-28 18:30 27.25 199000 327000 (2019) 37300 (2006) 118000 37300 46300 53600 54500 98300 152000 190000 225000 327000
2020-05-28 17:30 27.20 199000 327000 (2019) 37300 (2006) 118000 37300 46300 53600 54500 98300 152000 190000 225000 327000
2020-05-28 16:30 27.12 197000 327000 (2019) 37300 (2006) 118000 37300 46300 53600 54500 98300 152000 190000 225000 327000
2020-05-28 15:30 27.17 198000 327000 (2019) 37300 (2006) 118000 37300 46300 53600 54500 98300 152000 190000 225000 327000
2020-05-28 14:30 27.10 197000 327000 (2019) 37300 (2006) 118000 37300 46300 53600 54500 98300 152000 190000 225000 327000
2020-05-28 13:30 27.08 197000 327000 (2019) 37300 (2006) 118000 37300 46300 53600 54500 98300 152000 190000 225000 327000
2020-05-28 12:30 26.98 195000 327000 (2019) 37300 (2006) 118000 37300 46300 53600 54500 98300 152000 190000 225000 327000
2020-05-28 11:30 26.85 193000 327000 (2019) 37300 (2006) 118000 37300 46300 53600 54500 98300 152000 190000 225000 327000
2020-05-28 10:30 26.78 192000 327000 (2019) 37300 (2006) 118000 37300 46300 53600 54500 98300 152000 190000 225000 327000
2020-05-28 09:30 26.71 191000 327000 (2019) 37300 (2006) 118000 37300 46300 53600 54500 98300 152000 190000 225000 327000
2020-05-28 08:30 26.64 190000 327000 (2019) 37300 (2006) 118000 37300 46300 53600 54500 98300 152000 190000 225000 327000
2020-05-28 07:30 26.57 189000 327000 (2019) 37300 (2006) 118000 37300 46300 53600 54500 98300 152000 190000 225000 327000
2020-05-28 06:30 26.51 188000 327000 (2019) 37300 (2006) 118000 37300 46300 53600 54500 98300 152000 190000 225000 327000
2020-05-28 05:30 26.39 186000 327000 (2019) 37300 (2006) 118000 37300 46300 53600 54500 98300 152000 190000 225000 327000
2020-05-28 04:30 26.39 186000 327000 (2019) 37300 (2006) 118000 37300 46300 53600 54500 98300 152000 190000 225000 327000
2020-05-28 03:30 26.34 186000 327000 (2019) 37300 (2006) 118000 37300 46300 53600 54500 98300 152000 190000 225000 327000
2020-05-28 02:30 26.30 185000 327000 (2019) 37300 (2006) 118000 37300 46300 53600 54500 98300 152000 190000 225000 327000
2020-05-28 01:30 26.21 184000 327000 (2019) 37300 (2006) 118000 37300 46300 53600 54500 98300 152000 190000 225000 327000
2020-05-28 00:30 26.12 183000 327000 (2019) 37300 (2006) 118000 37300 46300 53600 54500 98300 152000 190000 225000 327000
2020-05-27 23:30 25.99 181000 327000 (2019) 38600 (2006) 112000 38600 46500 55700 55900 93500 146000 157000 221000 327000
2020-05-27 22:30 25.98 181000 327000 (2019) 38600 (2006) 112000 38600 46500 55700 55900 93500 146000 157000 221000 327000
2020-05-27 21:30 26.05 182000 327000 (2019) 38600 (2006) 112000 38600 46500 55700 55900 93500 146000 157000 221000 327000
2020-05-27 20:30 25.99 181000 327000 (2019) 38600 (2006) 112000 38600 46500 55700 55900 93500 146000 157000 221000 327000
2020-05-27 19:30 25.81 178000 327000 (2019) 38600 (2006) 112000 38600 46500 55700 55900 93500 146000 157000 221000 327000
2020-05-27 18:30 25.67 176000 327000 (2019) 38600 (2006) 112000 38600 46500 55700 55900 93500 146000 157000 221000 327000
2020-05-27 17:30 25.50 174000 327000 (2019) 38600 (2006) 112000 38600 46500 55700 55900 93500 146000 157000 221000 327000
2020-05-27 16:30 25.34 172000 327000 (2019) 38600 (2006) 112000 38600 46500 55700 55900 93500 146000 157000 221000 327000
2020-05-27 15:30 25.24 170000 327000 (2019) 38600 (2006) 112000 38600 46500 55700 55900 93500 146000 157000 221000 327000
2020-05-27 14:30 25.09 168000 327000 (2019) 38600 (2006) 112000 38600 46500 55700 55900 93500 146000 157000 221000 327000
2020-05-27 13:30 24.95 166000 327000 (2019) 38600 (2006) 112000 38600 46500 55700 55900 93500 146000 157000 221000 327000
2020-05-27 12:30 24.80 164000 327000 (2019) 38600 (2006) 112000 38600 46500 55700 55900 93500 146000 157000 221000 327000
2020-05-27 11:30 24.70 163000 327000 (2019) 38600 (2006) 112000 38600 46500 55700 55900 93500 146000 157000 221000 327000
2020-05-27 10:30 24.55 161000 327000 (2019) 38600 (2006) 112000 38600 46500 55700 55900 93500 146000 157000 221000 327000
2020-05-27 09:30 24.49 160000 327000 (2019) 38600 (2006) 112000 38600 46500 55700 55900 93500 146000 157000 221000 327000
2020-05-27 08:30 24.45 160000 327000 (2019) 38600 (2006) 112000 38600 46500 55700 55900 93500 146000 157000 221000 327000
2020-05-27 07:30 24.53 161000 327000 (2019) 38600 (2006) 112000 38600 46500 55700 55900 93500 146000 157000 221000 327000
2020-05-27 06:30 24.43 160000 327000 (2019) 38600 (2006) 112000 38600 46500 55700 55900 93500 146000 157000 221000 327000
2020-05-27 05:30 24.31 158000 327000 (2019) 38600 (2006) 112000 38600 46500 55700 55900 93500 146000 157000 221000 327000
2020-05-27 04:30 24.14 156000 327000 (2019) 38600 (2006) 112000 38600 46500 55700 55900 93500 146000 157000 221000 327000
2020-05-27 03:30 24.01 154000 327000 (2019) 38600 (2006) 112000 38600 46500 55700 55900 93500 146000 157000 221000 327000
2020-05-27 02:30 23.91 153000 327000 (2019) 38600 (2006) 112000 38600 46500 55700 55900 93500 146000 157000 221000 327000
2020-05-27 01:30 23.75 151000 327000 (2019) 38600 (2006) 112000 38600 46500 55700 55900 93500 146000 157000 221000 327000
2020-05-27 00:30 23.69 150000 327000 (2019) 38600 (2006) 112000 38600 46500 55700 55900 93500 146000 157000 221000 327000
2020-05-26 23:30 23.54 148000 313000 (2019) 39400 (2006) 107000 39400 43800 49000 55700 103000 127000 130000 185000 313000
2020-05-26 22:30 23.49 148000 313000 (2019) 39400 (2006) 107000 39400 43800 49000 55700 103000 127000 130000 185000 313000
2020-05-26 21:30 23.36 146000 313000 (2019) 39400 (2006) 107000 39400 43800 49000 55700 103000 127000 130000 185000 313000
2020-05-26 20:30 23.24 145000 313000 (2019) 39400 (2006) 107000 39400 43800 49000 55700 103000 127000 130000 185000 313000
2020-05-26 19:30 23.08 143000 313000 (2019) 39400 (2006) 107000 39400 43800 49000 55700 103000 127000 130000 185000 313000
2020-05-26 18:30 22.99 142000 313000 (2019) 39400 (2006) 107000 39400 43800 49000 55700 103000 127000 130000 185000 313000
2020-05-26 17:30 22.89 141000 313000 (2019) 39400 (2006) 107000 39400 43800 49000 55700 103000 127000 130000 185000 313000
2020-05-26 16:30 22.81 140000 313000 (2019) 39400 (2006) 107000 39400 43800 49000 55700 103000 127000 130000 185000 313000
2020-05-26 15:30 22.71 139000 313000 (2019) 39400 (2006) 107000 39400 43800 49000 55700 103000 127000 130000 185000 313000
2020-05-26 14:30 22.58 137000 313000 (2019) 39400 (2006) 107000 39400 43800 49000 55700 103000 127000 130000 185000 313000
2020-05-26 13:30 22.47 136000 313000 (2019) 39400 (2006) 107000 39400 43800 49000 55700 103000 127000 130000 185000 313000
2020-05-26 12:30 22.39 135000 313000 (2019) 39400 (2006) 107000 39400 43800 49000 55700 103000 127000 130000 185000 313000
2020-05-26 11:30 22.32 134000 313000 (2019) 39400 (2006) 107000 39400 43800 49000 55700 103000 127000 130000 185000 313000
2020-05-26 10:30 22.22 133000 313000 (2019) 39400 (2006) 107000 39400 43800 49000 55700 103000 127000 130000 185000 313000
2020-05-26 09:30 22.12 132000 313000 (2019) 39400 (2006) 107000 39400 43800 49000 55700 103000 127000 130000 185000 313000
2020-05-26 08:30 22.08 132000 313000 (2019) 39400 (2006) 107000 39400 43800 49000 55700 103000 127000 130000 185000 313000
2020-05-26 07:30 21.99 131000 313000 (2019) 39400 (2006) 107000 39400 43800 49000 55700 103000 127000 130000 185000 313000
2020-05-26 06:30 21.92 130000 313000 (2019) 39400 (2006) 107000 39400 43800 49000 55700 103000 127000 130000 185000 313000
2020-05-26 05:30 21.82 129000 313000 (2019) 39400 (2006) 107000 39400 43800 49000 55700 103000 127000 130000 185000 313000
2020-05-26 04:30 21.74 128000 313000 (2019) 39400 (2006) 107000 39400 43800 49000 55700 103000 127000 130000 185000 313000
2020-05-26 03:30 21.66 127000 313000 (2019) 39400 (2006) 107000 39400 43800 49000 55700 103000 127000 130000 185000 313000
2020-05-26 02:30 21.50 125000 313000 (2019) 39400 (2006) 107000 39400 43800 49000 55700 103000 127000 130000 185000 313000
2020-05-26 01:30 21.28 123000 313000 (2019) 39400 (2006) 107000 39400 43800 49000 55700 103000 127000 130000 185000 313000
2020-05-26 00:30 21.03 120000 313000 (2019) 39400 (2006) 107000 39400 43800 49000 55700 103000 127000 130000 185000 313000
2020-05-25 23:30 20.81 118000 317000 (2019) 39700 (2006) 99100 39700 46300 51400 55500 82100 128000 137000 168000 317000
2020-05-25 22:30 20.58 116000 317000 (2019) 39700 (2006) 99100 39700 46300 51400 55500 82100 128000 137000 168000 317000
2020-05-25 21:30 20.39 114000 317000 (2019) 39700 (2006) 99100 39700 46300 51400 55500 82100 128000 137000 168000 317000
2020-05-25 20:30 20.24 112000 317000 (2019) 39700 (2006) 99100 39700 46300 51400 55500 82100 128000 137000 168000 317000
2020-05-25 19:30 19.85 109000 317000 (2019) 39700 (2006) 99100 39700 46300 51400 55500 82100 128000 137000 168000 317000
2020-05-25 18:30 19.61 106000 317000 (2019) 39700 (2006) 99100 39700 46300 51400 55500 82100 128000 137000 168000 317000
2020-05-25 17:30 19.48 105000 317000 (2019) 39700 (2006) 99100 39700 46300 51400 55500 82100 128000 137000 168000 317000
2020-05-25 16:30 19.33 104000 317000 (2019) 39700 (2006) 99100 39700 46300 51400 55500 82100 128000 137000 168000 317000
2020-05-25 15:30 19.23 103000 317000 (2019) 39700 (2006) 99100 39700 46300 51400 55500 82100 128000 137000 168000 317000
2020-05-25 14:30 19.01 101000 317000 (2019) 39700 (2006) 99100 39700 46300 51400 55500 82100 128000 137000 168000 317000
2020-05-25 13:30 18.86 99500 317000 (2019) 39700 (2006) 99100 39700 46300 51400 55500 82100 128000 137000 168000 317000
2020-05-25 12:30 18.78 98800 317000 (2019) 39700 (2006) 99100 39700 46300 51400 55500 82100 128000 137000 168000 317000
2020-05-25 11:30 18.72 98300 317000 (2019) 39700 (2006) 99100 39700 46300 51400 55500 82100 128000 137000 168000 317000
2020-05-25 10:30 18.62 97400 317000 (2019) 39700 (2006) 99100 39700 46300 51400 55500 82100 128000 137000 168000 317000
2020-05-25 09:30 18.56 96900 317000 (2019) 39700 (2006) 99100 39700 46300 51400 55500 82100 128000 137000 168000 317000
2020-05-25 08:30 18.44 95800 317000 (2019) 39700 (2006) 99100 39700 46300 51400 55500 82100 128000 137000 168000 317000
2020-05-25 07:30 18.32 94800 317000 (2019) 39700 (2006) 99100 39700 46300 51400 55500 82100 128000 137000 168000 317000
2020-05-25 06:30 18.24 94100 317000 (2019) 39700 (2006) 99100 39700 46300 51400 55500 82100 128000 137000 168000 317000
2020-05-25 05:30 18.10 92900 317000 (2019) 39700 (2006) 99100 39700 46300 51400 55500 82100 128000 137000 168000 317000
2020-05-25 04:30 18.01 92200 317000 (2019) 39700 (2006) 99100 39700 46300 51400 55500 82100 128000 137000 168000 317000
2020-05-25 03:30 17.91 91300 317000 (2019) 39700 (2006) 99100 39700 46300 51400 55500 82100 128000 137000 168000 317000
2020-05-25 02:30 17.83 90700 317000 (2019) 39700 (2006) 99100 39700 46300 51400 55500 82100 128000 137000 168000 317000
2020-05-25 01:30 17.78 90200 317000 (2019) 39700 (2006) 99100 39700 46300 51400 55500 82100 128000 137000 168000 317000
2020-05-25 00:30 17.71 89600 317000 (2019) 39700 (2006) 99100 39700 46300 51400 55500 82100 128000 137000 168000 317000
2020-05-24 23:30 17.61 88700 320000 (2019) 40900 (2006) 97500 40900 46200 53500 55200 77300 123000 134000 157000 320000
2020-05-24 22:30 17.59 88500 320000 (2019) 40900 (2006) 97500 40900 46200 53500 55200 77300 123000 134000 157000 320000
2020-05-24 21:30 17.53 88000 320000 (2019) 40900 (2006) 97500 40900 46200 53500 55200 77300 123000 134000 157000 320000
2020-05-24 20:30 17.42 87100 320000 (2019) 40900 (2006) 97500 40900 46200 53500 55200 77300 123000 134000 157000 320000
2020-05-24 19:30 17.40 86900 320000 (2019) 40900 (2006) 97500 40900 46200 53500 55200 77300 123000 134000 157000 320000
2020-05-24 18:30 17.35 86400 320000 (2019) 40900 (2006) 97500 40900 46200 53500 55200 77300 123000 134000 157000 320000
2020-05-24 17:30 17.34 86400 320000 (2019) 40900 (2006) 97500 40900 46200 53500 55200 77300 123000 134000 157000 320000
2020-05-24 16:30 17.33 86300 320000 (2019) 40900 (2006) 97500 40900 46200 53500 55200 77300 123000 134000 157000 320000
2020-05-24 15:30 17.32 86200 320000 (2019) 40900 (2006) 97500 40900 46200 53500 55200 77300 123000 134000 157000 320000
2020-05-24 14:30 17.29 85900 320000 (2019) 40900 (2006) 97500 40900 46200 53500 55200 77300 123000 134000 157000 320000
2020-05-24 13:30 17.28 85800 320000 (2019) 40900 (2006) 97500 40900 46200 53500 55200 77300 123000 134000 157000 320000
2020-05-24 12:30 17.30 86000 320000 (2019) 40900 (2006) 97500 40900 46200 53500 55200 77300 123000 134000 157000 320000
2020-05-24 11:30 17.31 86100 320000 (2019) 40900 (2006) 97500 40900 46200 53500 55200 77300 123000 134000 157000 320000
2020-05-24 10:30 17.27 85800 320000 (2019) 40900 (2006) 97500 40900 46200 53500 55200 77300 123000 134000 157000 320000
2020-05-24 09:30 17.28 85800 320000 (2019) 40900 (2006) 97500 40900 46200 53500 55200 77300 123000 134000 157000 320000
2020-05-24 08:30 17.26 85700 320000 (2019) 40900 (2006) 97500 40900 46200 53500 55200 77300 123000 134000 157000 320000
2020-05-24 07:30 17.27 85800 320000 (2019) 40900 (2006) 97500 40900 46200 53500 55200 77300 123000 134000 157000 320000
2020-05-24 06:30 17.28 85800 320000 (2019) 40900 (2006) 97500 40900 46200 53500 55200 77300 123000 134000 157000 320000
2020-05-24 05:30 17.30 86000 320000 (2019) 40900 (2006) 97500 40900 46200 53500 55200 77300 123000 134000 157000 320000
2020-05-24 04:30 17.30 86000 320000 (2019) 40900 (2006) 97500 40900 46200 53500 55200 77300 123000 134000 157000 320000
2020-05-24 03:30 17.27 85800 320000 (2019) 40900 (2006) 97500 40900 46200 53500 55200 77300 123000 134000 157000 320000
2020-05-24 02:30 17.27 85800 320000 (2019) 40900 (2006) 97500 40900 46200 53500 55200 77300 123000 134000 157000 320000
2020-05-24 01:30 17.31 86100 320000 (2019) 40900 (2006) 97500 40900 46200 53500 55200 77300 123000 134000 157000 320000
2020-05-24 00:30 17.34 86400 320000 (2019) 40900 (2006) 97500 40900 46200 53500 55200 77300 123000 134000 157000 320000
2020-05-23 23:30 17.36 86500 317000 (2019) 42400 (2006) 101000 42400 46800 53000 54500 81900 132000 134000 181000 317000
2020-05-23 22:30 17.37 86600 317000 (2019) 42400 (2006) 101000 42400 46800 53000 54500 81900 132000 134000 181000 317000
2020-05-23 21:30 17.36 86500 317000 (2019) 42400 (2006) 101000 42400 46800 53000 54500 81900 132000 134000 181000 317000
2020-05-23 20:30 17.35 86400 317000 (2019) 42400 (2006) 101000 42400 46800 53000 54500 81900 132000 134000 181000 317000
2020-05-23 19:30 17.35 86400 317000 (2019) 42400 (2006) 101000 42400 46800 53000 54500 81900 132000 134000 181000 317000
2020-05-23 18:30 17.33 86300 317000 (2019) 42400 (2006) 101000 42400 46800 53000 54500 81900 132000 134000 181000 317000
2020-05-23 17:30 17.36 86500 317000 (2019) 42400 (2006) 101000 42400 46800 53000 54500 81900 132000 134000 181000 317000
2020-05-23 16:30 17.41 87000 317000 (2019) 42400 (2006) 101000 42400 46800 53000 54500 81900 132000 134000 181000 317000
2020-05-23 15:30 17.41 87000 317000 (2019) 42400 (2006) 101000 42400 46800 53000 54500 81900 132000 134000 181000 317000
2020-05-23 14:30 17.45 87300 317000 (2019) 42400 (2006) 101000 42400 46800 53000 54500 81900 132000 134000 181000 317000
2020-05-23 13:30 17.47 87500 317000 (2019) 42400 (2006) 101000 42400 46800 53000 54500 81900 132000 134000 181000 317000
2020-05-23 12:30 17.46 87400 317000 (2019) 42400 (2006) 101000 42400 46800 53000 54500 81900 132000 134000 181000 317000
2020-05-23 11:30 17.46 87400 317000 (2019) 42400 (2006) 101000 42400 46800 53000 54500 81900 132000 134000 181000 317000
2020-05-23 10:30 17.46 87400 317000 (2019) 42400 (2006) 101000 42400 46800 53000 54500 81900 132000 134000 181000 317000
2020-05-23 09:30 17.49 87700 317000 (2019) 42400 (2006) 101000 42400 46800 53000 54500 81900 132000 134000 181000 317000
2020-05-23 08:30 17.50 87800 317000 (2019) 42400 (2006) 101000 42400 46800 53000 54500 81900 132000 134000 181000 317000
2020-05-23 07:30 17.53 88000 317000 (2019) 42400 (2006) 101000 42400 46800 53000 54500 81900 132000 134000 181000 317000
2020-05-23 06:30 17.55 88200 317000 (2019) 42400 (2006) 101000 42400 46800 53000 54500 81900 132000 134000 181000 317000
2020-05-23 05:30 17.56 88300 317000 (2019) 42400 (2006) 101000 42400 46800 53000 54500 81900 132000 134000 181000 317000
2020-05-23 04:30 17.61 88700 317000 (2019) 42400 (2006) 101000 42400 46800 53000 54500 81900 132000 134000 181000 317000
2020-05-23 03:30 17.62 88800 317000 (2019) 42400 (2006) 101000 42400 46800 53000 54500 81900 132000 134000 181000 317000
2020-05-23 02:30 17.62 88800 317000 (2019) 42400 (2006) 101000 42400 46800 53000 54500 81900 132000 134000 181000 317000
2020-05-23 01:30 17.65 89100 317000 (2019) 42400 (2006) 101000 42400 46800 53000 54500 81900 132000 134000 181000 317000
2020-05-23 00:30 17.65 89100 317000 (2019) 42400 (2006) 101000 42400 46800 53000 54500 81900 132000 134000 181000 317000
2020-05-22 23:30 17.68 89300 278000 (2019) 43300 (2006) 102000 43300 47800 52700 53900 81900 123000 154000 191000 278000
2020-05-22 22:30 17.71 89600 278000 (2019) 43300 (2006) 102000 43300 47800 52700 53900 81900 123000 154000 191000 278000
2020-05-22 21:30 17.76 90100 278000 (2019) 43300 (2006) 102000 43300 47800 52700 53900 81900 123000 154000 191000 278000
2020-05-22 20:30 17.72 89700 278000 (2019) 43300 (2006) 102000 43300 47800 52700 53900 81900 123000 154000 191000 278000
2020-05-22 19:30 17.73 89800 278000 (2019) 43300 (2006) 102000 43300 47800 52700 53900 81900 123000 154000 191000 278000
2020-05-22 18:30 17.75 90000 278000 (2019) 43300 (2006) 102000 43300 47800 52700 53900 81900 123000 154000 191000 278000
2020-05-22 17:30 17.80 90400 278000 (2019) 43300 (2006) 102000 43300 47800 52700 53900 81900 123000 154000 191000 278000
2020-05-22 16:30 17.81 90500 278000 (2019) 43300 (2006) 102000 43300 47800 52700 53900 81900 123000 154000 191000 278000
2020-05-22 15:30 17.79 90300 278000 (2019) 43300 (2006) 102000 43300 47800 52700 53900 81900 123000 154000 191000 278000
2020-05-22 14:30 17.86 90900 278000 (2019) 43300 (2006) 102000 43300 47800 52700 53900 81900 123000 154000 191000 278000
2020-05-22 13:30 17.86 90900 278000 (2019) 43300 (2006) 102000 43300 47800 52700 53900 81900 123000 154000 191000 278000
2020-05-22 12:30 17.84 90700 278000 (2019) 43300 (2006) 102000 43300 47800 52700 53900 81900 123000 154000 191000 278000
2020-05-22 11:30 17.85 90800 278000 (2019) 43300 (2006) 102000 43300 47800 52700 53900 81900 123000 154000 191000 278000
2020-05-22 10:30 17.86 90900 278000 (2019) 43300 (2006) 102000 43300 47800 52700 53900 81900 123000 154000 191000 278000
2020-05-22 09:30 17.94 91600 278000 (2019) 43300 (2006) 102000 43300 47800 52700 53900 81900 123000 154000 191000 278000
2020-05-22 08:30 17.99 92000 278000 (2019) 43300 (2006) 102000 43300 47800 52700 53900 81900 123000 154000 191000 278000
2020-05-22 07:30 18.00 92100 278000 (2019) 43300 (2006) 102000 43300 47800 52700 53900 81900 123000 154000 191000 278000
2020-05-22 06:30 18.05 92500 278000 (2019) 43300 (2006) 102000 43300 47800 52700 53900 81900 123000 154000 191000 278000
2020-05-22 05:30 18.04 92400 278000 (2019) 43300 (2006) 102000 43300 47800 52700 53900 81900 123000 154000 191000 278000
2020-05-22 04:30 18.07 92700 278000 (2019) 43300 (2006) 102000 43300 47800 52700 53900 81900 123000 154000 191000 278000
2020-05-22 03:30 18.12 93100 278000 (2019) 43300 (2006) 102000 43300 47800 52700 53900 81900 123000 154000 191000 278000
2020-05-22 02:30 18.16 93400 278000 (2019) 43300 (2006) 102000 43300 47800 52700 53900 81900 123000 154000 191000 278000
2020-05-22 01:30 18.18 93600 278000 (2019) 43300 (2006) 102000 43300 47800 52700 53900 81900 123000 154000 191000 278000
2020-05-22 00:30 18.21 93900 278000 (2019) 43300 (2006) 102000 43300 47800 52700 53900 81900 123000 154000 191000 278000
2020-05-21 23:30 18.25 94200 227000 (2019) 42000 (2006) 103000 42000 49200 52900 55500 95000 140000 148000 183000 227000
2020-05-21 22:30 18.28 94400 227000 (2019) 42000 (2006) 103000 42000 49200 52900 55500 95000 140000 148000 183000 227000
2020-05-21 21:30 18.34 95000 227000 (2019) 42000 (2006) 103000 42000 49200 52900 55500 95000 140000 148000 183000 227000
2020-05-21 20:30 18.34 95000 227000 (2019) 42000 (2006) 103000 42000 49200 52900 55500 95000 140000 148000 183000 227000
2020-05-21 19:30 18.38 95300 227000 (2019) 42000 (2006) 103000 42000 49200 52900 55500 95000 140000 148000 183000 227000
2020-05-21 18:30 18.40 95500 227000 (2019) 42000 (2006) 103000 42000 49200 52900 55500 95000 140000 148000 183000 227000
2020-05-21 17:30 18.48 96200 227000 (2019) 42000 (2006) 103000 42000 49200 52900 55500 95000 140000 148000 183000 227000
2020-05-21 16:30 18.47 96100 227000 (2019) 42000 (2006) 103000 42000 49200 52900 55500 95000 140000 148000 183000 227000
2020-05-21 15:30 18.51 96400 227000 (2019) 42000 (2006) 103000 42000 49200 52900 55500 95000 140000 148000 183000 227000
2020-05-21 14:30 18.57 97000 227000 (2019) 42000 (2006) 103000 42000 49200 52900 55500 95000 140000 148000 183000 227000
2020-05-21 13:30 18.59 97100 227000 (2019) 42000 (2006) 103000 42000 49200 52900 55500 95000 140000 148000 183000 227000
2020-05-21 12:30 18.55 96800 227000 (2019) 42000 (2006) 103000 42000 49200 52900 55500 95000 140000 148000 183000 227000
2020-05-21 11:30 18.59 97100 227000 (2019) 42000 (2006) 103000 42000 49200 52900 55500 95000 140000 148000 183000 227000
2020-05-21 10:30 18.60 97200 227000 (2019) 42000 (2006) 103000 42000 49200 52900 55500 95000 140000 148000 183000 227000
2020-05-21 09:30 18.63 97500 227000 (2019) 42000 (2006) 103000 42000 49200 52900 55500 95000 140000 148000 183000 227000
2020-05-21 08:30 18.67 97800 227000 (2019) 42000 (2006) 103000 42000 49200 52900 55500 95000 140000 148000 183000 227000
2020-05-21 07:30 18.70 98100 227000 (2019) 42000 (2006) 103000 42000 49200 52900 55500 95000 140000 148000 183000 227000
2020-05-21 06:30 18.73 98400 227000 (2019) 42000 (2006) 103000 42000 49200 52900 55500 95000 140000 148000 183000 227000
2020-05-21 05:30 18.74 98400 227000 (2019) 42000 (2006) 103000 42000 49200 52900 55500 95000 140000 148000 183000 227000
2020-05-21 04:30 18.81 99100 227000 (2019) 42000 (2006) 103000 42000 49200 52900 55500 95000 140000 148000 183000 227000
2020-05-21 03:30 18.83 99200 227000 (2019) 42000 (2006) 103000 42000 49200 52900 55500 95000 140000 148000 183000 227000
2020-05-21 02:30 18.84 99300 227000 (2019) 42000 (2006) 103000 42000 49200 52900 55500 95000 140000 148000 183000 227000
2020-05-21 01:30 18.90 99900 227000 (2019) 42000 (2006) 103000 42000 49200 52900 55500 95000 140000 148000 183000 227000
2020-05-21 00:30 18.96 100000 227000 (2019) 42000 (2006) 103000 42000 49200 52900 55500 95000 140000 148000 183000 227000
2020-05-20 23:30 18.97 100000 210000 (2019) 39800 (2006) 101000 39800 45000 53800 57700 85800 131000 152000 185000 210000
2020-05-20 22:30 18.98 101000 210000 (2019) 39800 (2006) 101000 39800 45000 53800 57700 85800 131000 152000 185000 210000
2020-05-20 21:30 19.03 101000 210000 (2019) 39800 (2006) 101000 39800 45000 53800 57700 85800 131000 152000 185000 210000
2020-05-20 20:30 19.04 101000 210000 (2019) 39800 (2006) 101000 39800 45000 53800 57700 85800 131000 152000 185000 210000
2020-05-20 19:30 19.06 101000 210000 (2019) 39800 (2006) 101000 39800 45000 53800 57700 85800 131000 152000 185000 210000
2020-05-20 18:30 19.09 102000 210000 (2019) 39800 (2006) 101000 39800 45000 53800 57700 85800 131000 152000 185000 210000
2020-05-20 17:30 19.11 102000 210000 (2019) 39800 (2006) 101000 39800 45000 53800 57700 85800 131000 152000 185000 210000
2020-05-20 16:30 19.23 103000 210000 (2019) 39800 (2006) 101000 39800 45000 53800 57700 85800 131000 152000 185000 210000
2020-05-20 15:30 19.20 103000 210000 (2019) 39800 (2006) 101000 39800 45000 53800 57700 85800 131000 152000 185000 210000
2020-05-20 14:30 19.27 103000 210000 (2019) 39800 (2006) 101000 39800 45000 53800 57700 85800 131000 152000 185000 210000
2020-05-20 13:30 19.31 104000 210000 (2019) 39800 (2006) 101000 39800 45000 53800 57700 85800 131000 152000 185000 210000
2020-05-20 12:30 19.37 104000 210000 (2019) 39800 (2006) 101000 39800 45000 53800 57700 85800 131000 152000 185000 210000
2020-05-20 11:30 19.39 104000 210000 (2019) 39800 (2006) 101000 39800 45000 53800 57700 85800 131000 152000 185000 210000
2020-05-20 10:30 19.42 105000 210000 (2019) 39800 (2006) 101000 39800 45000 53800 57700 85800 131000 152000 185000 210000
2020-05-20 09:30 19.47 105000 210000 (2019) 39800 (2006) 101000 39800 45000 53800 57700 85800 131000 152000 185000 210000
2020-05-20 08:30 19.51 105000 210000 (2019) 39800 (2006) 101000 39800 45000 53800 57700 85800 131000 152000 185000 210000
2020-05-20 07:30 19.58 106000 210000 (2019) 39800 (2006) 101000 39800 45000 53800 57700 85800 131000 152000 185000 210000
2020-05-20 06:30 19.62 106000 210000 (2019) 39800 (2006) 101000 39800 45000 53800 57700 85800 131000 152000 185000 210000
2020-05-20 05:30 19.68 107000 210000 (2019) 39800 (2006) 101000 39800 45000 53800 57700 85800 131000 152000 185000 210000
2020-05-20 04:30 19.74 108000 210000 (2019) 39800 (2006) 101000 39800 45000 53800 57700 85800 131000 152000 185000 210000
2020-05-20 03:30 19.78 108000 210000 (2019) 39800 (2006) 101000 39800 45000 53800 57700 85800 131000 152000 185000 210000
2020-05-20 02:30 19.81 108000 210000 (2019) 39800 (2006) 101000 39800 45000 53800 57700 85800 131000 152000 185000 210000
2020-05-20 01:30 19.83 108000 210000 (2019) 39800 (2006) 101000 39800 45000 53800 57700 85800 131000 152000 185000 210000
2020-05-20 00:30 19.86 109000 210000 (2019) 39800 (2006) 101000 39800 45000 53800 57700 85800 131000 152000 185000 210000
2020-05-19 23:30 19.89 109000 212000 (2015) 39700 (2006) 102000 39700 44100 53700 55100 83200 148000 169000 188000 212000
2020-05-19 22:30 19.94 109000 212000 (2015) 39700 (2006) 102000 39700 44100 53700 55100 83200 148000 169000 188000 212000
2020-05-19 21:30 19.95 110000 212000 (2015) 39700 (2006) 102000 39700 44100 53700 55100 83200 148000 169000 188000 212000
2020-05-19 20:30 19.97 110000 212000 (2015) 39700 (2006) 102000 39700 44100 53700 55100 83200 148000 169000 188000 212000
2020-05-19 19:30 19.96 110000 212000 (2015) 39700 (2006) 102000 39700 44100 53700 55100 83200 148000 169000 188000 212000
2020-05-19 18:30 19.98 110000 212000 (2015) 39700 (2006) 102000 39700 44100 53700 55100 83200 148000 169000 188000 212000
2020-05-19 17:30 20.01 110000 212000 (2015) 39700 (2006) 102000 39700 44100 53700 55100 83200 148000 169000 188000 212000
2020-05-19 16:30 20.04 110000 212000 (2015) 39700 (2006) 102000 39700 44100 53700 55100 83200 148000 169000 188000 212000
2020-05-19 15:30 20.04 110000 212000 (2015) 39700 (2006) 102000 39700 44100 53700 55100 83200 148000 169000 188000 212000
2020-05-19 14:30 20.07 111000 212000 (2015) 39700 (2006) 102000 39700 44100 53700 55100 83200 148000 169000 188000 212000
2020-05-19 13:30 20.12 111000 212000 (2015) 39700 (2006) 102000 39700 44100 53700 55100 83200 148000 169000 188000 212000
2020-05-19 12:30 20.13 111000 212000 (2015) 39700 (2006) 102000 39700 44100 53700 55100 83200 148000 169000 188000 212000
2020-05-19 11:30 20.14 111000 212000 (2015) 39700 (2006) 102000 39700 44100 53700 55100 83200 148000 169000 188000 212000
2020-05-19 10:30 20.16 112000 212000 (2015) 39700 (2006) 102000 39700 44100 53700 55100 83200 148000 169000 188000 212000
2020-05-19 09:30 20.19 112000 212000 (2015) 39700 (2006) 102000 39700 44100 53700 55100 83200 148000 169000 188000 212000
2020-05-19 08:30 20.21 112000 212000 (2015) 39700 (2006) 102000 39700 44100 53700 55100 83200 148000 169000 188000 212000
2020-05-19 07:30 20.24 112000 212000 (2015) 39700 (2006) 102000 39700 44100 53700 55100 83200 148000 169000 188000 212000
2020-05-19 06:30 20.25 112000 212000 (2015) 39700 (2006) 102000 39700 44100 53700 55100 83200 148000 169000 188000 212000
2020-05-19 05:30 20.27 113000 212000 (2015) 39700 (2006) 102000 39700 44100 53700 55100 83200 148000 169000 188000 212000
2020-05-19 04:30 20.33 113000 212000 (2015) 39700 (2006) 102000 39700 44100 53700 55100 83200 148000 169000 188000 212000
2020-05-19 03:30 20.35 113000 212000 (2015) 39700 (2006) 102000 39700 44100 53700 55100 83200 148000 169000 188000 212000
2020-05-19 02:30 20.38 114000 212000 (2015) 39700 (2006) 102000 39700 44100 53700 55100 83200 148000 169000 188000 212000
2020-05-19 01:30 20.43 114000 212000 (2015) 39700 (2006) 102000 39700 44100 53700 55100 83200 148000 169000 188000 212000
2020-05-19 00:30 20.50 115000 212000 (2015) 39700 (2006) 102000 39700 44100 53700 55100 83200 148000 169000 188000 212000
2020-05-18 23:30 20.52 115000 214000 (2010) 40200 (2006) 107000 40200 45700 55900 58000 93200 152000 180000 199000 214000
2020-05-18 22:30 20.58 116000 214000 (2010) 40200 (2006) 107000 40200 45700 55900 58000 93200 152000 180000 199000 214000
2020-05-18 21:30 20.60 116000 214000 (2010) 40200 (2006) 107000 40200 45700 55900 58000 93200 152000 180000 199000 214000
2020-05-18 20:30 20.67 117000 214000 (2010) 40200 (2006) 107000 40200 45700 55900 58000 93200 152000 180000 199000 214000
2020-05-18 19:30 20.74 117000 214000 (2010) 40200 (2006) 107000 40200 45700 55900 58000 93200 152000 180000 199000 214000
2020-05-18 18:30 20.76 118000 214000 (2010) 40200 (2006) 107000 40200 45700 55900 58000 93200 152000 180000 199000 214000
2020-05-18 17:30 20.89 119000 214000 (2010) 40200 (2006) 107000 40200 45700 55900 58000 93200 152000 180000 199000 214000
2020-05-18 16:30 20.93 119000 214000 (2010) 40200 (2006) 107000 40200 45700 55900 58000 93200 152000 180000 199000 214000
2020-05-18 15:30 21.02 120000 214000 (2010) 40200 (2006) 107000 40200 45700 55900 58000 93200 152000 180000 199000 214000
2020-05-18 14:30 21.10 121000 214000 (2010) 40200 (2006) 107000 40200 45700 55900 58000 93200 152000 180000 199000 214000
2020-05-18 13:30 21.19 122000 214000 (2010) 40200 (2006) 107000 40200 45700 55900 58000 93200 152000 180000 199000 214000
2020-05-18 12:30 21.34 124000 214000 (2010) 40200 (2006) 107000 40200 45700 55900 58000 93200 152000 180000 199000 214000
2020-05-18 11:30 21.47 125000 214000 (2010) 40200 (2006) 107000 40200 45700 55900 58000 93200 152000 180000 199000 214000
2020-05-18 10:30 21.62 127000 214000 (2010) 40200 (2006) 107000 40200 45700 55900 58000 93200 152000 180000 199000 214000
2020-05-18 09:30 21.77 128000 214000 (2010) 40200 (2006) 107000 40200 45700 55900 58000 93200 152000 180000 199000 214000
2020-05-18 08:30 21.85 129000 214000 (2010) 40200 (2006) 107000 40200 45700 55900 58000 93200 152000 180000 199000 214000
2020-05-18 07:30 21.89 129000 214000 (2010) 40200 (2006) 107000 40200 45700 55900 58000 93200 152000 180000 199000 214000
2020-05-18 06:30 22.00 131000 214000 (2010) 40200 (2006) 107000 40200 45700 55900 58000 93200 152000 180000 199000 214000
2020-05-18 05:30 22.12 132000 214000 (2010) 40200 (2006) 107000 40200 45700 55900 58000 93200 152000 180000 199000 214000
2020-05-18 04:30 22.18 133000 214000 (2010) 40200 (2006) 107000 40200 45700 55900 58000 93200 152000 180000 199000 214000
2020-05-18 03:30 22.23 133000 214000 (2010) 40200 (2006) 107000 40200 45700 55900 58000 93200 152000 180000 199000 214000
2020-05-18 02:30 22.30 134000 214000 (2010) 40200 (2006) 107000 40200 45700 55900 58000 93200 152000 180000 199000 214000
2020-05-18 01:30 22.38 135000 214000 (2010) 40200 (2006) 107000 40200 45700 55900 58000 93200 152000 180000 199000 214000
2020-05-18 00:30 22.44 136000 214000 (2010) 40200 (2006) 107000 40200 45700 55900 58000 93200 152000 180000 199000 214000
2020-05-17 23:30 22.45 136000 233000 (2010) 41200 (2006) 109000 41200 46900 56000 64400 111000 128000 160000 209000 233000
2020-05-17 22:30 22.45 136000 233000 (2010) 41200 (2006) 109000 41200 46900 56000 64400 111000 128000 160000 209000 233000
2020-05-17 21:30 22.50 136000 233000 (2010) 41200 (2006) 109000 41200 46900 56000 64400 111000 128000 160000 209000 233000
2020-05-17 20:30 22.52 136000 233000 (2010) 41200 (2006) 109000 41200 46900 56000 64400 111000 128000 160000 209000 233000
2020-05-17 19:30 22.51 136000 233000 (2010) 41200 (2006) 109000 41200 46900 56000 64400 111000 128000 160000 209000 233000
2020-05-17 18:30 22.51 136000 233000 (2010) 41200 (2006) 109000 41200 46900 56000 64400 111000 128000 160000 209000 233000
2020-05-17 17:30 22.49 136000 233000 (2010) 41200 (2006) 109000 41200 46900 56000 64400 111000 128000 160000 209000 233000
2020-05-17 16:30 22.44 136000 233000 (2010) 41200 (2006) 109000 41200 46900 56000 64400 111000 128000 160000 209000 233000
2020-05-17 15:30 22.46 136000 233000 (2010) 41200 (2006) 109000 41200 46900 56000 64400 111000 128000 160000 209000 233000
2020-05-17 14:30 22.42 135000 233000 (2010) 41200 (2006) 109000 41200 46900 56000 64400 111000 128000 160000 209000 233000
2020-05-17 13:30 22.41 135000 233000 (2010) 41200 (2006) 109000 41200 46900 56000 64400 111000 128000 160000 209000 233000
2020-05-17 12:30 22.37 135000 233000 (2010) 41200 (2006) 109000 41200 46900 56000 64400 111000 128000 160000 209000 233000
2020-05-17 11:30 22.35 135000 233000 (2010) 41200 (2006) 109000 41200 46900 56000 64400 111000 128000 160000 209000 233000
2020-05-17 10:30 22.35 135000 233000 (2010) 41200 (2006) 109000 41200 46900 56000 64400 111000 128000 160000 209000 233000
2020-05-17 09:30 22.31 134000 233000 (2010) 41200 (2006) 109000 41200 46900 56000 64400 111000 128000 160000 209000 233000
2020-05-17 08:30 22.27 134000 233000 (2010) 41200 (2006) 109000 41200 46900 56000 64400 111000 128000 160000 209000 233000
2020-05-17 07:30 22.26 134000 233000 (2010) 41200 (2006) 109000 41200 46900 56000 64400 111000 128000 160000 209000 233000
2020-05-17 06:30 22.25 133000 233000 (2010) 41200 (2006) 109000 41200 46900 56000 64400 111000 128000 160000 209000 233000
2020-05-17 05:30 22.20 133000 233000 (2010) 41200 (2006) 109000 41200 46900 56000 64400 111000 128000 160000 209000 233000
2020-05-17 04:30 22.18 133000 233000 (2010) 41200 (2006) 109000 41200 46900 56000 64400 111000 128000 160000 209000 233000
2020-05-17 03:30 22.19 133000 233000 (2010) 41200 (2006) 109000 41200 46900 56000 64400 111000 128000 160000 209000 233000
2020-05-17 02:30 22.29 134000 233000 (2010) 41200 (2006) 109000 41200 46900 56000 64400 111000 128000 160000 209000 233000
2020-05-17 01:30 22.27 134000 233000 (2010) 41200 (2006) 109000 41200 46900 56000 64400 111000 128000 160000 209000 233000
2020-05-17 00:30 22.33 134000 233000 (2010) 41200 (2006) 109000 41200 46900 56000 64400 111000 128000 160000 209000 233000
2020-05-16 23:30 22.29 134000 249000 (2007) 42400 (2006) 113000 42400 47300 57400 60900 93400 147000 162000 247000 249000
2020-05-16 22:30 22.27 134000 249000 (2007) 42400 (2006) 113000 42400 47300 57400 60900 93400 147000 162000 247000 249000
2020-05-16 21:30 22.32 134000 249000 (2007) 42400 (2006) 113000 42400 47300 57400 60900 93400 147000 162000 247000 249000
2020-05-16 20:30 22.31 134000 249000 (2007) 42400 (2006) 113000 42400 47300 57400 60900 93400 147000 162000 247000 249000
2020-05-16 19:30 22.31 134000 249000 (2007) 42400 (2006) 113000 42400 47300 57400 60900 93400 147000 162000 247000 249000
2020-05-16 18:30 22.31 134000 249000 (2007) 42400 (2006) 113000 42400 47300 57400 60900 93400 147000 162000 247000 249000
2020-05-16 17:30 22.33 134000 249000 (2007) 42400 (2006) 113000 42400 47300 57400 60900 93400 147000 162000 247000 249000
2020-05-16 16:30 22.34 134000 249000 (2007) 42400 (2006) 113000 42400 47300 57400 60900 93400 147000 162000 247000 249000
2020-05-16 15:30 22.30 134000 249000 (2007) 42400 (2006) 113000 42400 47300 57400 60900 93400 147000 162000 247000 249000
2020-05-16 14:30 22.30 134000 249000 (2007) 42400 (2006) 113000 42400 47300